[[{"header":{"parameterUnit":"m.s-1","parameterCategory":1,"la1":30.6,"la2":29.2853,"lo1":-89.7004,"lo2":-87.6739,"dy":0.0162,"dx":0.0183,"nx":112,"ny":82,"refTime":"2023-08-19T18:00:00:Z","depth":0,"parameterNumber":2,"parameterNumberName":"U-component_of_WINDS"},"data":[0.0,0.0,0.0,0.0,0.0,0.0,0.0,0.0,0.0,0.0,0.0,0.0,0.0,0.0,0.0,0.0,0.0,0.0,0.0,0.0,0.0,0.0,0.0,0.0,0.0,0.0,0.0,0.0,0.0,0.0,0.0,0.0,0.0,0.0,0.0,0.0,0.0,0.0,0.0,0.0,0.0,0.0,0.0,0.0,0.0,0.0,0.0,0.0,0.0,0.0,0.0,0.0,0.0,0.0,0.0,0.0,0.0,0.0,0.0,0.0,0.0,0.0,0.0,0.0,0.0,0.0,0.0,0.0,0.0,0.0,0.0,0.0,0.0,0.0,0.0,0.0,0.0,0.0,0.0,0.0,0.0,0.0,0.0,0.0,0.0,0.0,0.0,0.0,0.0,0.0,-3.9948,-4.0241,-4.0649,-4.0937,-4.1013,-4.1068,-4.1099,-4.1092,0.0,0.0,0.0,0.0,0.0,0.0,0.0,0.0,0.0,0.0,0.0,0.0,0.0,0.0,0.0,0.0,0.0,0.0,0.0,0.0,0.0,0.0,0.0,0.0,0.0,0.0,0.0,0.0,0.0,0.0,0.0,0.0,0.0,0.0,0.0,0.0,0.0,0.0,0.0,0.0,0.0,0.0,0.0,0.0,0.0,0.0,0.0,0.0,0.0,0.0,0.0,0.0,0.0,0.0,0.0,0.0,0.0,0.0,0.0,0.0,0.0,0.0,0.0,0.0,0.0,0.0,0.0,0.0,0.0,0.0,0.0,0.0,0.0,0.0,0.0,0.0,0.0,0.0,0.0,0.0,0.0,0.0,0.0,0.0,0.0,0.0,0.0,0.0,0.0,0.0,0.0,0.0,0.0,0.0,0.0,0.0,0.0,0.0,0.0,0.0,0.0,0.0,0.0,0.0,-4.0139,-4.0575,-4.0849,-4.1018,-4.1083,-4.1081,-4.1104,-4.1094,0.0,0.0,0.0,0.0,0.0,0.0,0.0,0.0,0.0,0.0,0.0,0.0,0.0,0.0,0.0,0.0,0.0,0.0,0.0,0.0,0.0,0.0,0.0,0.0,0.0,0.0,0.0,0.0,0.0,0.0,0.0,0.0,0.0,0.0,0.0,0.0,0.0,0.0,0.0,0.0,0.0,0.0,0.0,0.0,0.0,0.0,0.0,0.0,0.0,0.0,0.0,0.0,0.0,0.0,0.0,0.0,0.0,0.0,0.0,0.0,0.0,0.0,0.0,0.0,0.0,0.0,0.0,0.0,0.0,0.0,0.0,0.0,0.0,0.0,0.0,0.0,0.0,0.0,0.0,0.0,0.0,0.0,0.0,0.0,0.0,0.0,0.0,0.0,0.0,0.0,0.0,0.0,0.0,0.0,0.0,0.0,0.0,0.0,0.0,0.0,0.0,0.0,0.0,-4.0101,-4.0394,-4.0723,-4.0911,-4.1026,-4.1092,-4.1098,-4.1092,-4.1092,-4.1108,0.0,0.0,0.0,0.0,0.0,0.0,0.0,0.0,0.0,0.0,0.0,0.0,0.0,0.0,0.0,0.0,0.0,0.0,0.0,0.0,0.0,0.0,0.0,0.0,0.0,0.0,0.0,0.0,0.0,0.0,0.0,0.0,0.0,0.0,0.0,0.0,0.0,0.0,0.0,0.0,0.0,0.0,0.0,0.0,0.0,0.0,0.0,0.0,0.0,0.0,0.0,0.0,0.0,0.0,0.0,0.0,0.0,0.0,0.0,0.0,0.0,0.0,0.0,0.0,0.0,0.0,0.0,0.0,0.0,0.0,0.0,0.0,0.0,0.0,0.0,0.0,0.0,0.0,0.0,0.0,0.0,0.0,0.0,0.0,0.0,0.0,0.0,0.0,0.0,0.0,0.0,0.0,0.0,0.0,0.0,0.0,0.0,0.0,0.0,0.0,0.0,0.0,-4.0397,-4.0595,-4.0784,-4.0921,-4.1028,-4.1087,-4.1105,-4.1093,-4.1108,-4.1098,0.0,0.0,0.0,0.0,0.0,0.0,0.0,0.0,0.0,0.0,0.0,0.0,0.0,0.0,0.0,0.0,0.0,0.0,0.0,0.0,0.0,0.0,0.0,0.0,0.0,0.0,0.0,0.0,0.0,0.0,0.0,0.0,0.0,0.0,0.0,0.0,0.0,0.0,0.0,0.0,0.0,0.0,0.0,0.0,0.0,0.0,0.0,0.0,0.0,0.0,0.0,0.0,0.0,0.0,0.0,0.0,0.0,0.0,0.0,0.0,0.0,0.0,0.0,0.0,0.0,0.0,0.0,0.0,0.0,0.0,0.0,0.0,0.0,0.0,0.0,0.0,0.0,0.0,0.0,0.0,0.0,0.0,0.0,0.0,0.0,0.0,0.0,0.0,0.0,0.0,0.0,0.0,0.0,0.0,0.0,0.0,0.0,0.0,0.0,0.0,0.0,0.0,-4.0462,-4.0655,-4.0789,-4.0914,-4.1037,-4.1087,-4.1102,-4.1093,-4.1108,-4.1098,0.0,0.0,0.0,0.0,0.0,0.0,0.0,0.0,0.0,0.0,0.0,0.0,0.0,0.0,0.0,0.0,0.0,0.0,0.0,0.0,0.0,0.0,0.0,0.0,0.0,0.0,0.0,0.0,0.0,0.0,0.0,0.0,0.0,0.0,0.0,0.0,0.0,0.0,0.0,0.0,0.0,0.0,0.0,0.0,0.0,0.0,0.0,0.0,0.0,0.0,0.0,0.0,0.0,0.0,0.0,0.0,0.0,0.0,0.0,0.0,0.0,0.0,0.0,0.0,0.0,0.0,0.0,0.0,0.0,0.0,0.0,0.0,0.0,0.0,0.0,0.0,0.0,0.0,0.0,0.0,0.0,0.0,0.0,0.0,0.0,0.0,0.0,0.0,0.0,0.0,0.0,0.0,0.0,0.0,0.0,0.0,0.0,0.0,0.0,0.0,0.0,0.0,-4.05,-4.0681,0.0,-4.0948,-4.1026,-4.1085,-4.1097,-4.1092,-4.1091,0.0,0.0,0.0,0.0,0.0,0.0,0.0,0.0,0.0,0.0,0.0,0.0,0.0,0.0,0.0,0.0,0.0,0.0,0.0,0.0,0.0,0.0,0.0,0.0,0.0,0.0,0.0,0.0,0.0,0.0,0.0,0.0,0.0,0.0,0.0,0.0,0.0,0.0,0.0,0.0,0.0,0.0,0.0,0.0,0.0,0.0,0.0,0.0,0.0,0.0,0.0,0.0,0.0,0.0,0.0,0.0,0.0,0.0,0.0,0.0,0.0,0.0,0.0,0.0,0.0,0.0,0.0,0.0,0.0,0.0,0.0,0.0,0.0,0.0,0.0,0.0,0.0,0.0,0.0,0.0,0.0,0.0,0.0,0.0,0.0,0.0,0.0,0.0,0.0,0.0,0.0,0.0,0.0,0.0,0.0,0.0,0.0,0.0,0.0,0.0,0.0,0.0,-4.0375,-4.0508,-4.0675,0.0,-4.095,-4.1025,-4.1089,-4.1108,-4.1109,-4.1093,0.0,0.0,0.0,0.0,0.0,0.0,0.0,0.0,0.0,0.0,0.0,0.0,0.0,0.0,0.0,0.0,0.0,0.0,0.0,0.0,0.0,0.0,0.0,0.0,0.0,0.0,0.0,0.0,0.0,0.0,0.0,0.0,0.0,0.0,0.0,0.0,0.0,0.0,0.0,0.0,0.0,0.0,0.0,0.0,0.0,0.0,0.0,0.0,0.0,0.0,0.0,0.0,0.0,0.0,0.0,0.0,0.0,0.0,0.0,0.0,0.0,0.0,0.0,0.0,0.0,0.0,0.0,0.0,0.0,0.0,0.0,0.0,0.0,0.0,0.0,0.0,0.0,0.0,0.0,0.0,0.0,0.0,0.0,0.0,0.0,0.0,0.0,0.0,0.0,0.0,0.0,0.0,0.0,0.0,0.0,0.0,0.0,0.0,0.0,0.0,0.0,0.0,-4.036,-4.0519,-4.0649,-4.0776,-4.0921,-4.1025,-4.1089,-4.1097,-4.11,0.0,0.0,0.0,0.0,0.0,0.0,0.0,0.0,0.0,0.0,0.0,0.0,0.0,0.0,0.0,0.0,0.0,0.0,0.0,0.0,0.0,0.0,0.0,0.0,0.0,0.0,0.0,0.0,0.0,0.0,0.0,0.0,0.0,0.0,0.0,0.0,0.0,0.0,0.0,0.0,0.0,0.0,0.0,0.0,0.0,0.0,0.0,0.0,0.0,0.0,0.0,0.0,0.0,0.0,0.0,0.0,0.0,0.0,0.0,0.0,0.0,0.0,0.0,0.0,0.0,0.0,0.0,0.0,0.0,0.0,0.0,0.0,0.0,0.0,0.0,0.0,0.0,0.0,0.0,0.0,0.0,0.0,0.0,0.0,0.0,0.0,0.0,0.0,0.0,0.0,0.0,0.0,0.0,0.0,0.0,0.0,0.0,0.0,0.0,0.0,0.0,0.0,0.0,-4.0383,-4.0515,-4.0629,-4.0718,-4.0848,-4.0954,-4.1022,-4.1061,-4.1101,-4.1105,0.0,0.0,0.0,0.0,0.0,0.0,0.0,0.0,0.0,0.0,0.0,0.0,0.0,0.0,0.0,0.0,0.0,0.0,0.0,0.0,0.0,0.0,0.0,0.0,0.0,0.0,0.0,0.0,0.0,0.0,0.0,0.0,0.0,0.0,0.0,0.0,0.0,0.0,0.0,0.0,0.0,0.0,0.0,0.0,0.0,0.0,0.0,0.0,0.0,0.0,0.0,0.0,0.0,0.0,0.0,0.0,0.0,0.0,0.0,0.0,0.0,0.0,0.0,0.0,0.0,0.0,0.0,0.0,0.0,0.0,0.0,0.0,0.0,0.0,0.0,0.0,0.0,0.0,0.0,0.0,0.0,0.0,0.0,0.0,0.0,0.0,0.0,0.0,0.0,0.0,0.0,0.0,0.0,0.0,0.0,0.0,0.0,0.0,0.0,0.0,0.0,0.0,-4.0375,-4.0512,-4.0633,-4.0688,-4.0806,-4.0888,-4.0956,-4.102,-4.1069,-4.1103,0.0,0.0,0.0,0.0,0.0,0.0,0.0,0.0,0.0,0.0,0.0,0.0,0.0,0.0,0.0,0.0,0.0,0.0,0.0,0.0,0.0,0.0,0.0,0.0,0.0,0.0,0.0,0.0,0.0,0.0,0.0,0.0,0.0,0.0,0.0,0.0,0.0,0.0,0.0,0.0,0.0,0.0,0.0,0.0,0.0,0.0,0.0,0.0,0.0,0.0,0.0,0.0,0.0,0.0,0.0,0.0,0.0,0.0,0.0,0.0,0.0,0.0,0.0,0.0,0.0,0.0,0.0,0.0,0.0,0.0,0.0,0.0,0.0,0.0,0.0,0.0,0.0,0.0,0.0,0.0,0.0,0.0,0.0,0.0,0.0,0.0,0.0,0.0,0.0,0.0,0.0,0.0,0.0,0.0,0.0,0.0,0.0,0.0,0.0,0.0,0.0,0.0,-4.0379,-4.0503,-4.061,-4.068,-4.0752,-4.0821,-4.0887,-4.0957,-4.1023,-4.1083,0.0,0.0,0.0,0.0,0.0,0.0,0.0,0.0,0.0,0.0,0.0,0.0,0.0,0.0,0.0,0.0,0.0,0.0,0.0,0.0,0.0,0.0,0.0,0.0,0.0,0.0,0.0,0.0,0.0,0.0,0.0,0.0,0.0,0.0,0.0,0.0,0.0,0.0,0.0,0.0,0.0,0.0,0.0,0.0,0.0,0.0,0.0,0.0,0.0,0.0,0.0,0.0,0.0,0.0,0.0,0.0,0.0,0.0,0.0,0.0,-4.3515,0.0,0.0,0.0,0.0,0.0,0.0,0.0,0.0,0.0,0.0,0.0,0.0,0.0,0.0,0.0,0.0,0.0,0.0,0.0,0.0,0.0,0.0,0.0,0.0,0.0,0.0,0.0,0.0,0.0,0.0,0.0,0.0,0.0,0.0,0.0,0.0,0.0,0.0,0.0,0.0,0.0,-4.037,-4.046,-4.0546,-4.061,-4.0688,-4.0744,-4.0815,-4.0873,-4.0953,-4.1018,-4.1011,0.0,0.0,0.0,0.0,0.0,0.0,0.0,0.0,0.0,0.0,0.0,0.0,0.0,0.0,0.0,0.0,0.0,0.0,0.0,0.0,0.0,0.0,0.0,0.0,0.0,0.0,0.0,0.0,0.0,0.0,0.0,0.0,0.0,0.0,0.0,0.0,0.0,0.0,0.0,0.0,0.0,0.0,0.0,0.0,0.0,0.0,0.0,0.0,0.0,0.0,0.0,0.0,0.0,0.0,0.0,0.0,0.0,0.0,0.0,0.0,-4.3515,0.0,0.0,0.0,0.0,0.0,0.0,0.0,0.0,0.0,0.0,0.0,0.0,0.0,0.0,0.0,0.0,0.0,0.0,0.0,0.0,0.0,0.0,0.0,0.0,0.0,0.0,0.0,0.0,0.0,0.0,0.0,0.0,0.0,0.0,0.0,0.0,0.0,0.0,0.0,0.0,-4.0289,-4.0386,-4.0468,-4.0539,-4.0579,-4.0641,-4.0745,-4.0771,-4.0835,-4.0907,-4.0925,0.0,0.0,0.0,0.0,0.0,0.0,0.0,0.0,0.0,0.0,0.0,0.0,0.0,0.0,0.0,0.0,0.0,0.0,0.0,0.0,0.0,0.0,0.0,0.0,0.0,0.0,0.0,0.0,0.0,0.0,0.0,0.0,0.0,0.0,0.0,0.0,0.0,0.0,0.0,0.0,0.0,0.0,0.0,0.0,0.0,0.0,0.0,0.0,0.0,0.0,0.0,0.0,0.0,-4.2759,-4.2938,-4.2991,-4.3042,-4.2727,-4.2139,-4.2782,-4.3075,-4.3075,0.0,0.0,0.0,0.0,0.0,0.0,0.0,0.0,0.0,0.0,0.0,0.0,0.0,0.0,0.0,0.0,0.0,0.0,0.0,0.0,0.0,0.0,0.0,0.0,0.0,-3.8707,-3.8707,0.0,0.0,0.0,0.0,0.0,0.0,0.0,0.0,0.0,0.0,0.0,0.0,-4.0168,-4.028,-4.0396,-4.0449,-4.0473,-4.0519,-4.0633,-4.0662,-4.0694,-4.0754,-4.0828,-4.0869,0.0,0.0,0.0,0.0,0.0,0.0,0.0,0.0,0.0,0.0,0.0,0.0,0.0,0.0,0.0,0.0,0.0,0.0,0.0,0.0,0.0,0.0,0.0,0.0,0.0,0.0,0.0,0.0,0.0,0.0,0.0,0.0,-3.6662,-3.7328,0.0,0.0,0.0,0.0,0.0,0.0,0.0,0.0,0.0,0.0,0.0,0.0,0.0,0.0,-4.0135,-4.0292,-4.0523,-4.0818,-4.0853,-4.103,-4.1325,-4.1325,-4.1302,-4.126,-4.137,0.0,-4.1407,-4.1407,0.0,0.0,0.0,0.0,0.0,0.0,0.0,0.0,0.0,0.0,0.0,0.0,0.0,0.0,0.0,0.0,0.0,0.0,0.0,0.0,0.0,0.0,-3.8707,-3.8707,-3.8707,-3.8707,0.0,-3.8707,-3.8719,-3.8792,0.0,0.0,0.0,0.0,0.0,0.0,0.0,0.0,-4.0098,-4.0177,-4.0252,-4.0314,-4.0383,-4.0422,-4.0438,-4.0488,-4.0554,-4.0615,-4.0694,-4.0739,-4.0818,-4.0804,0.0,0.0,0.0,0.0,0.0,0.0,0.0,0.0,0.0,0.0,0.0,0.0,0.0,0.0,0.0,0.0,0.0,0.0,0.0,0.0,0.0,0.0,0.0,0.0,0.0,0.0,0.0,0.0,0.0,-3.578,-3.6029,-3.6658,-3.6844,-3.7079,0.0,0.0,0.0,0.0,0.0,0.0,0.0,0.0,0.0,-3.882,-3.9062,-3.9294,-3.9514,-3.9755,-3.999,-4.0218,-4.042,-4.058,-4.0721,-4.0842,-4.0707,-4.037,-4.037,-4.0127,-3.9811,-4.0728,-4.1095,-4.1095,0.0,0.0,0.0,0.0,0.0,-4.0432,-4.0432,-3.99,0.0,0.0,0.0,0.0,0.0,0.0,0.0,0.0,0.0,0.0,0.0,0.0,0.0,-3.8707,-3.8707,-3.8707,-3.8707,-3.8707,-3.8719,0.0,-3.8822,-3.8892,-3.9073,0.0,0.0,0.0,0.0,-3.9815,-3.9859,-3.9967,-4.0059,-4.0186,-4.0215,-4.0243,-4.0278,-4.0302,-4.0364,-4.0433,-4.0457,-4.0489,-4.0511,-4.0518,-4.0518,0.0,0.0,0.0,0.0,0.0,0.0,0.0,0.0,0.0,0.0,0.0,0.0,0.0,0.0,0.0,0.0,0.0,0.0,0.0,0.0,0.0,0.0,0.0,0.0,0.0,0.0,0.0,0.0,-3.5171,-3.5199,-3.5835,-3.586,-3.5964,0.0,0.0,0.0,0.0,0.0,0.0,-3.7789,-3.8031,-3.8086,-3.7942,-3.8235,-3.8447,-3.8587,-3.8914,-3.9169,-3.9305,-3.9607,-3.9788,-3.9876,-4.0032,-3.9859,-3.9447,-3.9447,-3.9132,-3.8719,-3.996,-4.049,-4.049,-4.049,-4.049,-4.049,-4.049,-4.012,-3.9588,-3.9588,-3.9169,-3.8658,-3.8658,0.0,-3.8627,-3.8627,0.0,0.0,0.0,0.0,-3.8627,-3.8627,-3.8627,-3.8627,-3.8627,-3.8627,-3.8627,-3.8627,-3.8627,-3.8658,0.0,-3.8792,-3.8848,-3.8989,0.0,0.0,0.0,0.0,-3.9599,-3.9599,-3.9735,-3.9867,-3.9954,-3.9986,-4.0038,-4.008,-4.0119,-4.0148,-4.0225,-4.0215,-4.0214,-4.0211,-4.022,-4.023,-4.0193,0.0,0.0,0.0,0.0,0.0,0.0,0.0,0.0,0.0,0.0,0.0,0.0,0.0,0.0,0.0,0.0,0.0,0.0,0.0,0.0,0.0,0.0,0.0,0.0,0.0,0.0,0.0,0.0,0.0,-3.5083,-3.5542,0.0,0.0,0.0,0.0,-3.7484,-3.7648,-3.7496,-3.6984,-3.6973,-3.6723,-3.6156,-3.6337,-3.6506,-3.6627,-3.6974,-3.7247,-3.744,-3.7646,-3.7864,-3.8144,-3.8194,-3.8327,-3.8471,-3.8471,-3.8435,-3.8433,-3.8719,-3.8836,-3.8836,-3.8836,-3.8836,-3.8836,-3.8836,-3.8799,-3.8762,-3.8762,-3.8645,-3.851,-3.851,-3.8462,-3.8433,-3.8433,-3.8433,0.0,0.0,-3.8433,-3.8433,-3.8433,-3.8433,-3.8433,-3.8433,-3.8433,-3.8433,-3.8433,-3.8433,-3.8481,0.0,-3.8765,-3.8807,-3.8822,0.0,-3.9007,-3.9021,-3.9197,-3.9324,-3.9324,-3.9489,-3.9611,-3.9611,-3.9747,-3.9815,-3.9826,-3.9889,-3.9943,-4.0007,-4.0017,-4.0019,-4.0022,-4.0022,-4.0002,-3.9922,-3.9918,0.0,0.0,0.0,0.0,0.0,0.0,0.0,0.0,0.0,0.0,0.0,0.0,0.0,0.0,0.0,0.0,0.0,0.0,0.0,0.0,0.0,0.0,0.0,0.0,0.0,0.0,0.0,0.0,-3.4141,-3.4113,0.0,-3.4775,-3.5192,-3.5539,-3.5799,-3.6102,-3.6211,-3.6016,-3.6118,-3.6089,-3.5883,-3.6019,-3.6191,-3.6381,-3.6568,-3.6811,-3.7105,-3.7316,-3.7522,-3.7739,-3.781,-3.7966,-3.8136,-3.8136,-3.817,-3.8219,-3.837,-3.8467,-3.8515,-3.8515,-3.8515,-3.8515,-3.8515,-3.8515,-3.8515,-3.8515,-3.8481,-3.843,-3.8385,-3.8303,-3.8219,-3.8219,-3.8219,-3.8219,-3.8219,-3.8219,-3.8219,-3.8219,-3.8219,-3.8219,-3.8219,-3.8219,-3.8219,-3.8219,-3.8219,-3.8236,-3.8302,-3.8449,-3.8559,-3.8588,-3.8649,-3.8725,-3.8848,-3.8979,-3.9059,-3.9101,-3.8745,-3.8514,-3.8565,-3.8147,-3.7889,-3.7937,-3.796,-3.7983,-3.7988,-3.8007,-3.7999,-3.8003,-3.8015,-3.8237,-3.8736,-3.8731,-3.8952,0.0,0.0,0.0,0.0,0.0,0.0,0.0,0.0,0.0,0.0,0.0,0.0,0.0,0.0,0.0,0.0,0.0,0.0,0.0,0.0,0.0,0.0,0.0,0.0,0.0,0.0,-3.2821,-3.3203,-3.3174,-3.3309,-3.3771,-3.4151,-3.4521,-3.4875,-3.5152,-3.5377,-3.5492,-3.5611,-3.5706,-3.5728,-3.5844,-3.5997,-3.6148,-3.6339,-3.6547,-3.6771,-3.7009,-3.7239,-3.743,-3.7504,-3.7667,-3.788,-3.788,-3.7897,-3.7949,-3.8053,-3.8121,-3.8186,-3.8334,-3.8399,-3.8399,-3.8399,-3.8401,-3.8352,-3.8285,-3.8236,-3.8221,-3.8139,-3.8018,-3.7932,-3.7932,-3.7932,-3.7932,-3.7932,-3.7932,-3.7932,-3.7932,-3.7932,-3.7932,-3.7932,-3.7932,-3.7932,-3.7932,-3.7932,-3.7932,-3.7932,-3.817,-3.8385,-3.8415,-3.8446,-3.8494,-3.8606,-3.8462,-3.832,-3.835,-3.7733,-3.7299,-3.7335,-3.6944,-3.6681,-3.6745,-3.6752,-3.6764,-3.6764,-3.6764,-3.6752,-3.6739,-3.6739,-3.6942,-3.7429,-3.7668,-3.8141,-3.8829,0.0,0.0,0.0,0.0,0.0,0.0,0.0,0.0,0.0,0.0,0.0,0.0,0.0,0.0,0.0,0.0,0.0,0.0,0.0,0.0,0.0,0.0,0.0,-3.1756,-3.1927,-3.2094,-3.237,-3.2812,-3.3229,-3.3658,-3.3924,-3.43,-3.4851,-3.4899,-3.5065,-3.5469,-3.5492,-3.552,-3.56,-3.5711,-3.5795,-3.5795,-3.6127,-3.6301,-3.6301,-3.6629,-3.6891,-3.7089,-3.7222,-3.7391,-3.7577,-3.7577,-3.7577,-3.7577,-3.7667,-3.7685,-3.7739,-3.8203,-3.8382,-3.8382,-3.8382,-3.8336,-3.8239,-3.807,-3.7933,-3.7864,-3.7739,-3.7649,-3.7577,-3.7577,-3.7577,-3.7577,-3.7577,-3.7577,-3.7577,-3.7577,-3.7577,-3.7577,-3.7577,-3.7577,-3.7577,-3.7577,-3.7577,-3.7577,-3.7559,-3.7897,-3.8219,-3.8254,-3.83,-3.8298,-3.8234,-3.759,0.0,-3.7048,-3.6459,-3.6036,-3.6036,-3.6203,-3.6302,-3.6288,-3.6353,-3.6407,-3.6389,-3.6389,-3.6362,-3.6311,-3.6311,-3.6223,-3.6047,-3.6803,-3.7533,-3.8254,0.0,0.0,0.0,0.0,0.0,0.0,0.0,0.0,0.0,0.0,0.0,0.0,0.0,0.0,0.0,0.0,0.0,0.0,0.0,0.0,0.0,0.0,-3.1511,-3.1568,-3.1756,-3.194,-3.2219,-3.2453,-3.2823,-3.3346,-3.3642,-3.3949,-3.43,-3.4667,-3.4947,-3.5065,-3.5337,-3.5514,-3.552,-3.5616,-3.5689,-3.5795,-3.5905,-3.6036,-3.6229,-3.6381,-3.655,-3.6736,-3.6871,-3.7009,-3.7164,-3.7164,-3.7164,-3.7182,-3.7336,-3.741,-3.7448,-3.7863,-3.8037,-3.8037,-3.8037,-3.795,-3.7863,-3.7757,-3.7595,-3.7447,-3.7428,-3.7298,-3.7164,-3.7164,-3.7164,-3.7164,-3.7164,-3.7164,-3.7164,-3.7164,-3.7164,-3.7164,-3.7164,-3.7164,-3.7164,-3.7164,-3.7164,-3.6988,-3.6406,-3.6467,-3.672,-3.7019,-3.7001,-3.6802,-3.6343,-3.6056,0.0,-3.5941,-3.5268,-3.4795,-3.4795,-3.4365,-3.405,-3.4009,-3.4065,-3.4094,-3.4035,-3.4035,-3.4021,-3.4006,-3.4009,-3.4262,-3.4793,-3.6007,-3.6715,0.0,0.0,0.0,0.0,0.0,0.0,0.0,0.0,0.0,0.0,0.0,0.0,0.0,0.0,0.0,0.0,0.0,0.0,0.0,0.0,0.0,0.0,-3.1336,-3.1366,-3.1409,-3.1641,-3.187,-3.2025,-3.2247,-3.2563,-3.2985,-3.333,-3.3684,-3.4,-3.4349,-3.4667,-3.4899,-3.5128,-3.5291,-3.5423,-3.5435,-3.5549,-3.5678,-3.5706,-3.5817,-3.6036,-3.6127,-3.6259,-3.6444,-3.6506,-3.6609,0.0,-3.671,-3.6731,-3.6791,-3.695,-3.7048,0.0,0.0,0.0,0.0,0.0,-3.7594,-3.7522,-3.7392,-3.7239,-3.7085,-3.7029,-3.6911,-3.6771,-3.6731,-3.671,-3.671,-3.671,-3.671,-3.671,-3.671,-3.671,-3.671,-3.671,-3.6466,-3.626,-3.626,-3.5998,-3.5651,-3.518,0.0,0.0,-3.5136,-3.551,-3.5687,-3.5257,-3.4919,-3.4671,-3.4652,-3.4008,-3.3544,-3.3544,-3.318,-3.2928,-3.288,-3.2928,0.0,0.0,0.0,-3.2882,-3.285,-3.277,0.0,0.0,0.0,-3.5683,-3.602,0.0,0.0,0.0,-3.7393,-3.7299,0.0,0.0,0.0,0.0,0.0,0.0,0.0,0.0,0.0,0.0,0.0,0.0,0.0,0.0,0.0,0.0,-3.1087,-3.1132,-3.1263,-3.1539,-3.1742,-3.1799,-3.2122,-3.2398,-3.2574,-3.2985,-3.3398,-3.3797,-3.3975,-3.4275,-3.478,0.0,0.0,0.0,0.0,-3.5314,-3.5446,-3.5526,-3.5639,-3.5751,-3.5866,-3.5997,-3.6101,-3.6122,-3.6148,-3.6216,-3.6237,-3.6318,-3.644,-3.6509,-3.6632,-3.6791,-3.7336,-3.7522,-3.7503,-3.7297,-3.722,0.0,0.0,0.0,0.0,-3.6591,-3.6489,-3.6423,-3.6301,-3.6259,-3.6237,-3.6237,-3.6237,-3.6199,-3.6134,-3.6117,-3.6082,-3.5996,-3.548,-3.4998,-3.4998,-3.4484,-3.4005,-3.3919,-3.3901,-3.368,-3.3014,-3.393,-3.4712,-3.4499,-3.3917,-3.3442,-3.3318,-3.2792,-3.2404,-3.2404,0.0,0.0,-3.2522,-3.2522,-3.2522,-3.2522,-3.2506,-3.2455,-3.2387,-3.2214,-3.2457,-3.3173,-3.3794,-3.4484,-3.5248,-3.5925,-3.6232,-3.6195,-3.6736,-3.6816,0.0,0.0,0.0,0.0,0.0,0.0,0.0,0.0,0.0,0.0,0.0,0.0,0.0,0.0,0.0,-3.0821,-3.0866,-3.091,-3.1102,-3.119,-3.138,-3.1771,-3.187,-3.2038,-3.2382,-3.2629,-3.2915,-3.3372,-3.3658,-3.3924,-3.425,-3.4448,0.0,-3.4811,-3.5018,-3.5152,-3.5175,-3.5314,-3.5383,-3.5406,0.0,0.0,-3.556,-3.5667,-3.5711,-3.5739,-3.5844,-3.5927,-3.5949,-3.6187,-3.6318,-3.6447,-3.693,-3.7124,-3.7105,-3.6834,-3.6733,-3.6713,-3.6509,-3.6381,-3.6314,-3.6293,-3.6208,-3.6084,-3.6062,-3.5975,0.0,-3.5905,-3.5822,-3.5603,-3.4992,-3.4861,-3.4708,-3.41,-3.3845,-3.376,-3.376,-3.3641,-3.3352,-3.2774,-3.2655,-3.2417,-3.1686,-3.2515,-3.3111,-3.2559,-3.2278,-3.2154,-3.2136,-3.2033,-3.1946,-3.1946,-3.2002,-3.2002,-3.1965,-3.2002,-3.2002,-3.1965,-3.1857,-3.1765,-3.1691,-3.1671,-3.1721,-3.1859,-3.2447,-3.3083,-3.373,-3.4406,-3.4952,-3.543,-3.6032,-3.6161,0.0,0.0,0.0,0.0,0.0,0.0,0.0,0.0,0.0,0.0,0.0,-2.9991,0.0,0.0,-3.0144,-3.0296,-3.0282,-3.0387,-3.0672,-3.0791,-3.1029,-3.1511,-3.1611,-3.1783,-3.2066,-3.2342,-3.2629,-3.2915,-3.324,-3.3555,-3.3873,-3.4025,-3.4226,-3.4497,-3.4618,-3.4763,-3.4899,-3.497,-3.5018,-3.5088,-3.5118,-3.5165,-3.5165,-3.5211,-3.5258,-3.5258,-3.5389,-3.5481,-3.5566,-3.5817,-3.591,-3.598,-3.6216,-3.6447,-3.6612,-3.6464,-3.6402,-3.6381,-3.6127,-3.6036,-3.5971,-3.5844,-3.5739,-3.5694,-3.5644,-3.5363,-3.4992,-3.4925,-3.4594,-3.4158,-3.3728,-3.3605,-3.3505,-3.3136,-3.2768,-3.2504,-3.2504,-3.2198,-3.1846,-3.1457,-3.139,-3.1273,-3.0922,-3.1264,-3.1565,-3.1462,-3.1408,-3.1387,-3.1315,-3.1295,-3.1295,-3.1295,-3.1336,-3.1336,-3.1295,-3.1336,-3.1336,-3.1295,-3.1237,-3.1181,-3.1159,-3.1117,-3.1098,-3.1098,-3.1661,-3.2256,-3.2889,-3.355,-3.4167,-3.4771,-3.5068,-3.5293,0.0,0.0,0.0,0.0,0.0,0.0,0.0,0.0,-2.8894,-2.9058,-2.923,-2.9352,-2.9383,-2.9415,-2.9477,-2.9637,-2.9668,-2.9792,-3.0113,-3.0326,-3.0598,-3.1014,-3.1263,-3.1509,-3.1712,-3.2023,-3.2299,-3.252,-3.2796,-3.3134,-3.3513,-3.3565,-3.3761,-3.4126,-3.4176,-3.43,-3.4546,-3.457,-3.4643,-3.4739,-3.4739,-3.4739,-3.4739,-3.4739,-3.4739,-3.4739,-3.4923,-3.5065,-3.5245,-3.5412,-3.5464,-3.5464,-3.5464,-3.561,-3.584,-3.5989,-3.6036,-3.6014,-3.5773,-3.5582,-3.5419,-3.52,-3.5014,-3.4868,-3.4793,-3.4369,-3.3857,-3.3727,-3.325,-3.2707,-3.2425,-3.2353,-3.232,-3.2172,-3.1693,-3.1264,-3.1264,-3.078,-3.0363,-3.0363,-3.0342,-3.0321,-3.0321,-3.0225,-3.0309,-3.0797,-3.0855,-3.0797,-3.0683,-3.0683,-3.0683,-3.0683,-3.0683,-3.0683,-3.0683,-3.0683,-3.0662,-3.0642,-3.0642,-3.0642,-3.0605,-3.0535,-3.0489,-3.0489,-3.0892,-3.144,-3.2083,-3.2669,-3.3267,-3.3865,-3.3969,-3.4308,-2.5063,-2.5849,-2.6586,-2.6812,-2.7116,-2.7384,0.0,0.0,-2.8039,-2.8352,-2.8417,-2.8495,-2.8683,-2.8716,-2.8812,-2.9131,-2.9194,-2.9289,-2.9634,-2.9806,-2.9976,-3.0221,-3.0777,-3.1234,-3.1523,-3.1566,-3.1781,-3.2219,-3.2398,-3.2602,-3.2884,-3.3065,-3.3309,-3.3581,-3.371,-3.3848,-3.4,-3.4101,-3.4176,-3.4201,-3.4201,-3.4201,-3.4201,-3.4201,-3.4201,-3.4201,-3.4448,-3.4715,-3.4947,-3.497,-3.4994,-3.4994,-3.4994,-3.4602,-3.4178,-3.5127,-3.5492,-3.547,-3.5389,-3.4856,-3.4196,-3.4174,-3.3633,-3.2995,-3.2995,-3.2872,-3.2749,-3.2626,-3.2446,-3.2096,-3.1307,-3.1083,-3.0936,-3.0287,-3.006,-3.0011,-3.0011,-2.9946,-2.9875,-2.9875,-2.9772,-2.9683,-2.9683,-2.9633,-2.9766,-3.0309,-3.0342,-3.0274,-3.0274,-3.0274,-3.0274,-3.0274,-3.0274,-3.0274,-3.0274,-3.0274,-3.0231,-3.0103,-3.0103,-3.0044,-2.9924,-2.9793,-2.9705,-2.9705,-2.973,-3.0003,-3.0631,-3.1133,-3.1684,-3.2268,-3.2762,-3.3361,-2.4,-2.4696,-2.524,-2.5744,-2.5988,-2.6161,-2.6505,-2.6778,-2.7027,-2.7162,-2.7451,-2.7696,-2.7776,-2.7888,-2.8052,0.0,-2.8398,-2.856,-2.8817,-2.9166,-2.9418,-2.9526,-3.0021,-3.0538,-3.1043,-3.1278,-3.1495,-3.1781,-3.1923,-3.212,-3.2437,-3.2523,-3.2742,-3.3087,-3.314,-3.3314,-3.3555,-3.3607,-3.3617,-3.3617,-3.3617,-3.3617,-3.3617,-3.3617,-3.3444,-3.3187,-3.3329,-3.3283,-3.3101,-3.3188,-3.3212,-3.3212,-3.3212,-3.3032,-3.2898,-3.4047,-3.4201,-3.3834,-3.3754,-3.3442,-3.3069,-3.2978,-3.2649,-3.2295,-3.2295,-3.1926,-3.1463,-3.1371,-3.0949,-3.0401,-2.9975,-2.9849,-2.977,-2.9482,-2.9403,-2.9403,-2.9403,-2.9341,-2.9296,-2.9296,-2.9166,-2.9097,-2.9097,-2.8982,-2.8982,-2.9118,-2.9438,-2.9665,-2.9576,-2.9576,-2.9576,-2.9576,-2.9493,-2.9432,-2.9432,-2.9371,-2.9303,-2.9257,-2.9234,-2.9234,-2.915,-2.9104,-2.9097,-2.9097,-2.8912,-2.9139,-2.981,-2.9853,-3.0422,-3.1415,-3.1526,-3.1916,-2.2925,-2.35,-2.3925,-2.4515,-2.4838,-2.5087,-2.5358,-2.5674,-2.5953,-2.607,-2.6414,-2.6722,-2.6892,-2.704,-2.7222,-2.7443,-2.761,-2.7796,-2.796,-2.8463,-2.8798,-2.8798,-2.9261,-2.9792,-3.0266,-3.0807,-3.1161,-3.1292,-3.1481,-3.171,-3.1938,-3.2023,-3.2231,-3.2574,-3.2629,-3.2765,-3.3054,-3.3038,-3.296,-3.2798,-3.2798,-3.2662,-3.25,-3.25,-3.2311,-3.1975,-3.2044,-3.1875,-3.1582,-3.171,-3.1758,-3.1782,-3.1782,-3.1669,-3.1619,-3.2474,-3.2682,-3.2478,-3.242,-3.2174,-3.188,-3.1741,-3.1472,-3.1194,-3.1194,-3.0731,-3.0199,-3.0099,-2.9594,-2.9059,-2.8936,-2.8905,-2.8905,-2.8905,-2.8865,-2.8842,-2.8842,-2.8732,-2.863,-2.863,-2.8535,-2.8439,-2.8376,-2.8271,-2.8125,-2.7972,-2.8376,-2.8701,-2.8764,-2.8779,-2.8779,-2.8779,-2.8677,-2.863,-2.863,-2.8543,-2.8472,-2.8472,-2.8472,-2.8472,-2.8472,-2.841,-2.8355,-2.8355,-2.8108,-2.8223,-2.8788,-2.8672,-2.9123,-3.0081,-3.0216,-3.0498,-2.168,-2.2285,-2.2809,-2.3027,-2.3644,-2.4251,-2.4251,-2.4504,-2.4862,-2.5229,-2.5347,-2.5558,-2.6117,-2.6233,-2.6336,-2.6679,-2.6905,-2.7074,-2.7196,-2.7709,-2.8039,-2.8039,-2.867,-2.9131,0.0,-3.0052,-3.0672,-3.0821,-3.1146,-3.1322,-3.1322,-3.1567,-3.1796,-3.2025,-3.2135,-3.2302,-3.2425,-3.2425,-3.2086,-3.1466,-3.1466,-3.1127,-3.0495,-3.0495,-3.0557,-3.0664,-3.0664,-3.0801,-3.1045,-3.1101,-3.1167,-3.1209,-3.1209,-3.0829,-3.0259,-3.0315,-3.1046,-3.201,-3.1884,-3.1307,-3.0644,-3.0504,-2.9878,-2.9185,-2.9185,-2.9084,-2.8936,-2.8787,-2.8637,-2.8503,-2.8444,-2.842,-2.842,-2.842,-2.8323,-2.8235,-2.8235,-2.8067,-2.7923,-2.7923,-2.787,-2.7775,-2.7565,-2.7484,-2.7386,-2.7174,-2.7133,-2.7338,-2.7874,-2.7938,-2.7938,-2.7938,-2.7923,-2.7923,-2.7923,-2.7938,-2.7923,-2.7923,-2.7923,-2.7923,-2.7923,-2.7667,-2.7552,-2.7552,-2.7264,-2.7146,-2.717,-2.7545,-2.7755,-2.7815,-2.878,-2.9253,-2.0323,-2.0865,-2.1413,-2.2031,-2.2397,-2.2697,-2.3128,-2.3386,-2.3692,-2.4093,-2.4371,-2.4695,-2.5146,-2.5288,-2.5476,-2.5734,-2.606,-2.628,-2.6336,-2.6905,-2.7343,-2.7343,-2.7941,0.0,0.0,0.0,0.0,-3.0312,-3.0523,-3.0747,-3.0969,-3.1043,-3.1234,-3.1524,-3.1567,-3.1471,-3.1218,-3.1218,-3.087,-3.0216,-3.0216,-3.0095,-2.9868,-2.9868,-2.9652,-2.9295,-2.9372,-2.919,-2.8878,-2.8947,-2.8981,-2.9006,-2.9006,-2.8867,-2.8682,-2.8682,-2.8943,-2.9347,-2.9746,-2.958,-2.9202,-2.9155,-2.8911,-2.8636,-2.8525,-2.8414,-2.8277,-2.8146,-2.8008,-2.791,-2.7875,-2.779,-2.773,-2.773,-2.76,-2.7469,-2.7469,-2.7352,-2.721,-2.7122,-2.6993,-2.6878,-2.6733,-2.6695,-2.6604,-2.6324,-2.6759,-2.7174,-2.7338,-2.7363,-2.7363,-2.7363,-2.721,-2.7097,-2.7097,-2.6927,-2.6849,-2.6849,-2.6839,-2.6847,-2.6847,-2.6747,-2.6703,-2.6693,-2.6447,-2.6283,-2.6291,-2.6213,-2.6317,-2.663,-2.6891,-2.7183,-1.8988,-1.959,-2.0118,-2.076,-2.1106,-2.1461,-2.1928,-2.2279,-2.259,-2.3075,-2.3398,-2.3706,-2.4215,-2.4407,-2.4587,-2.485,-2.5206,-2.5465,-2.5465,-2.6117,-2.6611,-2.6611,-2.7242,-2.763,0.0,0.0,0.0,-2.9699,-2.9915,-3.0174,-3.0447,-3.0507,-3.0657,-3.0911,-3.0778,-3.0556,-3.0256,-3.0018,-2.9587,-2.8934,-2.8669,-2.8551,-2.8551,-2.8551,-2.8329,-2.7928,-2.8021,-2.7835,-2.7484,-2.7515,-2.7575,-2.7615,-2.7615,-2.7615,-2.7615,-2.7615,-2.7575,-2.7625,-2.8271,-2.8383,-2.8238,-2.8189,-2.8146,-2.8088,-2.794,-2.7825,-2.7685,-2.7509,-2.7382,-2.728,-2.728,-2.7192,-2.7089,-2.7089,-2.6919,-2.6747,-2.6747,-2.6602,-2.6443,-2.6365,-2.6217,-2.6041,-2.5865,-2.5742,-2.5605,-2.5425,-2.5837,-2.6254,-2.6467,-2.6493,-2.6493,-2.6493,-2.6336,-2.6229,-2.6229,-2.6095,-2.596,-2.5906,-2.5912,-2.5881,-2.5841,-2.5783,-2.5721,-2.573,-2.5519,-2.5369,-2.5317,-2.504,-2.5066,-2.528,-2.536,-2.5505,-1.7755,-1.8416,-1.8962,-1.9183,-1.9844,-2.0469,-2.075,-2.1146,-2.1578,-2.2214,-2.2327,-2.259,0.0,0.0,-2.3666,-2.408,-2.4407,-2.4636,-2.4636,-2.5347,-2.5828,0.0,0.0,0.0,0.0,0.0,0.0,-2.894,0.0,-2.962,-2.9747,-2.9946,-3.0115,-3.0208,-2.9782,-2.9508,-2.945,-2.8855,-2.8231,-2.7594,-2.6958,-2.6657,-2.6657,-2.6657,-2.6657,-2.6657,-2.6657,-2.6747,-2.6849,-2.6849,-2.6927,-2.7045,-2.7045,-2.7045,-2.7045,-2.7045,-2.6967,-2.6927,-2.7484,-2.7715,-2.7715,-2.76,-2.7549,-2.7524,-2.7386,-2.7258,-2.7089,-2.6916,-2.6759,-2.6657,-2.6642,-2.6537,-2.6457,-2.6431,-2.6231,-2.6029,-2.6029,-2.5839,-2.5633,-2.5605,-2.5453,-2.5217,-2.4963,-2.4637,-2.4423,-2.4423,-2.4394,-2.4624,-2.5259,-2.5342,-2.5342,-2.5342,-2.5315,-2.5315,-2.5315,-2.5315,-2.5259,-2.5119,-2.5136,-2.5067,-2.4929,-2.4734,-2.4618,-2.4619,-2.4485,-2.4368,-2.424,-2.4088,-2.3927,-2.3717,-2.4157,-2.4271,-1.6632,-1.7294,-1.787,-1.8247,-1.8767,-1.9253,-1.9608,-2.001,-2.0489,-2.1136,-2.1415,-2.1769,-2.2553,-2.2703,0.0,-2.3224,-2.3629,0.0,-2.3875,-2.4515,0.0,-2.5016,0.0,-2.6176,-2.6176,-2.6837,0.0,0.0,-2.8346,-2.8972,-2.9275,-2.9338,-2.9285,-2.9112,-2.8988,-2.8463,-2.7513,-2.6918,-2.6521,-2.6365,-2.6181,-2.6096,-2.6096,-2.6096,-2.6096,-2.6096,-2.6096,-2.6123,-2.6136,-2.6136,-2.6177,-2.6204,-2.6204,-2.6204,-2.6204,-2.6204,-2.6163,-2.6177,-2.6338,-2.6657,-2.6971,-2.6945,-2.6852,-2.6747,-2.6616,-2.6498,-2.6353,-2.6204,-2.6123,-2.6069,-2.5988,-2.5811,-2.566,-2.5578,-2.5328,-2.5118,-2.5118,-2.4963,-2.4751,-2.4551,-2.425,-2.4005,-2.3758,-2.3581,-2.3416,-2.3327,-2.3177,-2.3492,-2.4582,-2.4652,-2.4567,-2.4567,-2.4352,-2.4208,-2.4208,-2.4121,-2.4034,-2.4005,-2.4006,-2.3984,-2.3969,-2.3764,-2.3666,-2.3647,-2.3418,-2.33,-2.3257,-2.3077,-2.2831,-2.2525,-2.2672,-2.2559,-1.5519,-1.6237,-1.6861,-1.7131,-1.7651,-1.8224,-1.8656,-1.9054,-1.9578,-2.0323,-2.0644,-2.1002,-2.1731,-2.1959,-2.2149,0.0,0.0,0.0,-2.3187,-2.3801,-2.4227,0.0,-2.4909,0.0,-2.5382,-2.6082,-2.6508,0.0,-2.7523,-2.8249,-2.8509,-2.8605,-2.8479,-2.8143,-2.7958,-2.7268,-2.6021,-2.5675,-2.5508,-2.5508,-2.5508,-2.5508,-2.5508,-2.5508,-2.5508,-2.5508,0.0,-2.5508,-2.5508,-2.5508,-2.5508,-2.5508,-2.5508,-2.5508,-2.5508,-2.5508,-2.5508,-2.5508,-2.5453,-2.5605,-2.592,-2.6177,-2.619,-2.6123,-2.5892,-2.577,-2.5674,-2.5536,-2.5453,-2.5397,-2.5314,-2.5118,-2.4879,-2.4765,-2.4523,-2.435,-2.4305,-2.4076,-2.38,-2.3505,-2.3177,-2.2895,-2.2804,-2.2592,-2.2421,-2.2329,-2.2237,-2.2408,-2.3075,-2.3374,-2.3535,-2.3475,-2.3297,-2.3148,-2.3075,-2.2985,-2.2937,-2.2847,-2.2837,-2.281,-2.2735,-2.2596,-2.2559,-2.2535,-2.2408,-2.2285,-2.2233,-2.2051,-2.1812,-2.1565,-2.1471,-2.1302,-1.4531,-1.5291,-1.5963,-1.6004,-1.6615,-1.7343,-1.7723,-1.8207,-1.8776,-1.9578,-1.9981,-2.0342,-2.1002,-2.1272,-2.1502,-2.1921,0.0,-2.2365,-2.2553,-2.3075,-2.3446,-2.3482,-2.4118,-2.454,-2.454,-2.5276,-2.5723,-2.5723,-2.6645,-2.7356,-2.7656,-2.771,-2.7548,-2.7117,-2.6668,-2.5948,-2.4905,-2.4892,-2.4892,-2.4892,-2.4892,-2.4892,-2.4892,-2.485,-2.485,-2.485,0.0,0.0,-2.4793,-2.4793,-2.4793,-2.4793,-2.4793,-2.4793,-2.4793,-2.4793,-2.4793,-2.4806,-2.4692,-2.4635,-2.4736,-2.5328,-2.5522,-2.5467,-2.5174,-2.5048,-2.4991,-2.4878,-2.4736,-2.4635,-2.4607,-2.4392,-2.4147,-2.3985,-2.3796,-2.3607,-2.3458,-2.3118,-2.2786,-2.247,-2.2132,-2.1928,-2.1885,-2.1647,-2.1428,-2.1396,-2.1396,-2.1333,-2.123,-2.1896,-2.2359,-2.2218,-2.2187,-2.2082,-2.1928,-2.1896,-2.1834,-2.1721,-2.1737,-2.1642,-2.1457,-2.1451,-2.1426,-2.1455,-2.1417,-2.1325,-2.1192,-2.1044,-2.0848,-2.0667,-2.0506,-2.0377,-1.4082,-1.4713,-1.5291,-1.5484,-1.5948,-1.6409,-1.6812,-1.7416,-1.8055,-1.8785,-1.9222,-1.9736,-2.0566,-2.0722,-2.0876,-2.1282,-2.1502,-2.1731,-2.1911,-2.2327,-2.2665,0.0,-2.3409,-2.3801,-2.3801,-2.4479,0.0,0.0,0.0,-2.6047,-2.685,-2.6662,-2.6168,-2.5441,-2.4853,-2.4474,-2.4276,-2.4276,-2.4276,-2.4276,-2.4276,-2.4276,-2.4247,-2.4076,-2.4018,-2.4005,0.0,0.0,-2.3842,-2.3842,-2.3842,-2.3842,-2.3842,-2.3842,-2.3842,-2.3842,-2.3842,-2.3842,-2.3813,-2.3813,-2.3901,-2.4509,-2.4624,-2.4523,-2.4465,-2.425,-2.4047,-2.4005,-2.3901,-2.3796,-2.3675,-2.3599,-2.348,-2.3168,-2.2944,-2.272,-2.2421,-2.2021,-2.1628,-2.1408,-2.123,-2.1008,-2.0741,-2.0645,-2.0549,-2.0387,-2.0269,-2.0183,-2.0161,-2.0869,-2.1313,-2.1178,-2.1008,-2.088,-2.0848,-2.0848,-2.0848,-2.0828,-2.0839,-2.0807,-2.0773,-2.068,-2.0607,-2.0597,-2.0424,-2.0271,-2.0172,-2.0118,-1.9911,-1.9573,-1.954,-1.9441,-1.3568,-1.4166,-1.4629,-1.4817,-1.5318,-1.5824,-1.6113,-1.6689,-1.7375,-1.8055,-1.8616,-1.9183,-1.9814,-2.0216,-2.0537,-2.0848,-2.1051,-2.1244,-2.1474,-2.1731,-2.1987,-2.2214,-2.2665,-2.3001,-2.3113,-2.3728,0.0,0.0,0.0,-2.5099,-2.5943,-2.5469,-2.4936,-2.4487,-2.3897,-2.3573,-2.3573,-2.3514,-2.3484,-2.3454,-2.3369,-2.3327,-2.3327,-2.3225,-2.3165,-2.3165,-2.3118,0.0,-2.3088,-2.3088,-2.3088,-2.3088,-2.3088,-2.3088,-2.3088,-2.3088,-2.3088,-2.3058,-2.2992,-2.2975,-2.2992,-2.3118,-2.3386,-2.3666,-2.359,-2.3399,-2.3165,-2.3165,-2.307,-2.2975,-2.2909,-2.2744,-2.2549,-2.2334,-2.1994,-2.1639,-2.1376,-2.1092,-2.0816,-2.0528,-2.0345,-2.015,-1.9868,-1.977,-1.9682,-1.9584,-1.9429,-1.9308,-1.9187,-1.9441,-1.9737,-2.0031,-1.9966,-1.9846,-1.9693,-1.966,-1.9616,-1.9507,-1.9518,-1.9518,-1.9507,-1.9454,-1.9421,-1.9407,-1.9335,-1.9235,-1.9187,-1.9098,-1.8965,-1.8787,-1.8654,-1.8596,-1.3222,-1.3695,-1.4082,-1.4356,-1.481,-1.5269,-1.5567,-1.6113,-1.6771,-1.7416,-1.8103,-1.8705,-1.9143,-1.9706,-2.0177,-2.0489,-2.0664,-2.0867,-2.1089,-2.1282,-2.1436,-2.1655,-2.1987,0.0,-2.2478,-2.3001,0.0,0.0,0.0,0.0,-2.4777,-2.4283,-2.3859,-2.3573,-2.312,-2.2896,-2.2854,-2.2744,-2.2653,-2.2622,-2.2463,-2.2378,-2.2378,-2.2359,-2.2347,-2.2329,-2.2329,0.0,0.0,-2.2298,-2.2298,-2.2298,-2.2298,-2.2298,-2.2298,-2.2298,-2.2298,-2.2267,-2.2192,-2.213,-2.2099,-2.1796,-2.2206,-2.2829,-2.2671,-2.2506,-2.2347,-2.2347,-2.2261,-2.213,-2.213,-2.1932,-2.1639,-2.1451,-2.1019,-2.0571,-2.041,-2.0248,-2.0009,-1.966,-1.9462,-1.9297,-1.9044,-1.8921,-1.8831,-1.8798,-1.864,-1.8428,-1.824,-1.809,-1.8192,-1.8667,-1.8867,-1.8844,-1.8596,-1.8529,-1.8428,-1.8273,-1.8273,-1.8263,-1.8267,-1.8268,-1.8278,-1.825,-1.8261,-1.8261,-1.8206,-1.8124,-1.8032,-1.7998,-1.7837,-1.7769,-1.3222,-1.3568,-1.3857,-1.4272,-1.444,-1.4643,-1.5269,-1.5782,-1.6335,-1.7017,-1.7627,-1.8273,-1.8922,-1.9231,-1.9578,-2.0225,-2.0342,-2.0508,-2.0867,-2.0945,-2.1022,-2.1244,0.0,0.0,-2.1845,-2.2252,0.0,0.0,0.0,0.0,-2.3107,-2.3216,-2.2909,-2.2109,-2.2228,-2.2204,-2.2002,-2.2013,-2.1908,-2.1721,-2.171,-2.1678,-2.1678,-2.1565,-2.1514,-2.1514,0.0,0.0,0.0,-2.1348,-2.1348,-2.1348,-2.1348,-2.1348,-2.1348,-2.1348,-2.1348,-2.1348,-2.1316,-2.1316,-2.1285,-2.1051,-2.1451,-2.197,-2.1772,-2.1628,-2.1514,-2.1514,-2.14,-2.1316,-2.1316,-2.1158,-2.0924,-2.0592,-2.0118,-1.9704,-1.9704,-1.9429,-1.9098,-1.871,-1.861,-1.8509,-1.8168,-1.811,-1.8032,-1.7852,-1.7647,-1.7476,-1.7339,-1.7141,-1.6968,-1.6881,-1.7467,-1.7842,-1.7808,-1.7647,-1.751,-1.751,-1.751,-1.751,-1.751,-1.7486,-1.7505,-1.7514,-1.7505,-1.743,-1.7316,-1.7317,-1.721,-1.7047,-1.7012,-1.7012,-1.3185,-1.3483,-1.3652,-1.4117,-1.4321,-1.4517,-1.4894,-1.5318,-1.5865,-1.6558,-1.718,-1.7797,-1.8322,-1.8913,-1.9381,-1.9657,-2.002,-2.0342,-2.0508,-2.0654,-2.078,-2.0984,-2.1089,0.0,0.0,0.0,0.0,0.0,0.0,0.0,-2.1627,-2.2172,-2.2158,-2.1328,-2.1474,-2.1506,-2.1293,-2.1167,-2.104,-2.0869,-2.0762,-2.0698,-2.0698,-2.0645,-2.0613,-2.0613,-2.056,0.0,0.0,-2.0528,-2.0528,-2.0528,-2.0528,-2.0528,-2.0528,-2.0528,-2.0528,-2.0528,-2.0528,-2.0528,-2.0506,-2.0215,-2.0313,-2.056,-2.0805,-2.0773,-2.0613,-2.0613,-2.0592,-2.0539,-2.0453,-2.0172,-1.9868,-1.9682,-1.9253,-1.8954,-1.8954,-1.8664,-1.8337,-1.791,-1.7842,-1.774,-1.7382,-1.7358,-1.7279,-1.7054,-1.6855,-1.6691,-1.6551,-1.6368,-1.6158,-1.5947,-1.6603,-1.695,-1.6751,-1.6647,-1.6577,-1.6429,-1.6429,-1.6429,-1.6429,-1.6421,-1.6438,-1.6438,-1.6438,-1.6395,-1.6369,-1.6342,-1.6315,-1.6228,-1.6246,-1.6246,-1.3143,-1.3398,-1.3525,-1.3997,-1.4201,-1.4363,-1.4566,-1.4985,-1.5443,-1.5982,-1.6689,-1.731,-1.7757,-1.8434,-1.8984,-1.9262,-1.9706,-2.0069,-2.0147,-2.0294,-2.0459,-2.0702,0.0,-2.0819,0.0,0.0,0.0,0.0,0.0,0.0,0.0,-2.1139,-2.1214,-2.0604,-2.0764,-2.0796,-2.0614,-2.0442,-2.028,-2.0074,-1.9944,-1.9846,-1.9813,-1.9813,-1.9813,-1.9813,0.0,0.0,0.0,-1.9813,-1.9813,-1.9813,-1.9813,-1.9813,-1.9813,-1.9813,-1.9813,-1.9813,-1.9813,-1.9813,-1.9748,-1.9396,-1.9264,-1.933,-1.9616,-1.9737,-1.9813,-1.9813,-1.9748,-1.9682,-1.9528,-1.9253,-1.8954,-1.8731,-1.8418,-1.8172,-1.8138,-1.7886,-1.7564,-1.7141,-1.7063,-1.6968,-1.6621,-1.6586,-1.6473,-1.6219,-1.6053,-1.5885,-1.5665,-1.5524,-1.5346,-1.5098,-1.5551,-1.5833,-1.5736,-1.57,-1.5603,-1.5444,-1.5453,-1.5453,-1.5453,-1.5461,-1.5443,-1.5443,-1.5459,-1.5468,-1.5468,-1.5453,-1.5436,-1.5444,-1.5365,-1.533,-1.3143,-1.3398,-1.3525,-1.3997,-1.4088,-1.4166,-1.4356,-1.4783,-1.5166,-1.5352,-1.6105,-1.6861,-1.731,-1.7757,-1.8313,-1.9143,-1.9301,-1.946,-1.9863,-1.9902,-2.0029,0.0,0.0,-2.0469,0.0,0.0,0.0,0.0,0.0,0.0,0.0,-2.0047,-2.0052,-1.99,-2.0042,-2.0053,-1.99,-1.99,-1.9704,-1.9318,-1.9318,-1.9241,-1.9098,-1.9098,-1.9098,0.0,0.0,0.0,0.0,-1.9098,-1.9098,-1.9098,-1.9098,-1.9098,-1.9098,-1.9098,-1.9098,-1.9098,-1.9098,-1.9098,-1.9031,-1.8643,-1.8499,-1.8442,-1.8134,-1.8539,-1.9098,-1.9098,-1.8975,-1.8774,-1.8576,-1.8418,-1.8202,-1.7808,-1.7579,-1.7373,-1.7235,-1.7038,-1.6795,-1.6377,-1.6307,-1.6202,-1.5868,-1.5798,-1.5692,-1.5267,-1.5196,-1.5062,-1.4677,-1.4605,-1.4497,-1.4165,-1.4129,-1.4338,-1.4867,-1.474,-1.4605,-1.4605,-1.4605,-1.4605,-1.4605,-1.4605,-1.4605,-1.4605,-1.4605,-1.4605,-1.4605,-1.4593,-1.4593,-1.4605,-1.4411,-1.4224,-1.3179,-1.3398,-1.3525,-1.3997,-1.4088,-1.4166,-1.4356,-1.4524,-1.4776,-1.5269,-1.5733,-1.6196,-1.6812,-1.7383,-1.7942,-1.8353,-1.8904,-1.9341,0.0,0.0,0.0,-2.002,-2.0029,-2.0069,0.0,0.0,0.0,0.0,0.0,0.0,0.0,-1.9193,-1.9143,-1.9162,-1.933,-1.933,-1.9142,-1.9142,-1.9008,-1.8751,-1.8751,-1.8674,-1.8539,-1.8539,0.0,0.0,0.0,0.0,0.0,-1.8506,-1.8539,-1.8573,-1.864,-1.8674,-1.8674,-1.8674,-1.864,-1.8539,-1.8539,-1.8472,-1.8303,-1.8046,-1.7876,-1.7706,-1.751,-1.7862,-1.8303,-1.8182,-1.7988,-1.7818,-1.7638,-1.7476,-1.7279,-1.7019,-1.6786,-1.6621,-1.6482,-1.6298,-1.6017,-1.563,-1.5559,-1.5417,-1.5062,-1.4991,-1.4848,-1.4489,-1.4453,-1.431,-1.3891,-1.3855,-1.3702,-1.3331,-1.3295,-1.3441,-1.392,-1.3884,-1.3855,-1.3855,-1.3855,-1.3855,-1.3855,-1.3855,-1.3855,-1.3855,-1.3702,-1.363,-1.363,-1.3506,-1.3448,-1.3455,-1.3361,-1.323,-1.3307,-1.3483,-1.361,-1.4004,-1.4088,-1.4124,-1.4237,-1.4363,-1.4517,-1.4936,-1.5311,-1.5733,-1.6237,-1.6886,-1.7416,-1.7708,-1.8353,-1.8825,0.0,0.0,0.0,-1.9548,0.0,0.0,0.0,0.0,0.0,0.0,0.0,0.0,0.0,-1.8411,-1.8203,-1.8076,-1.8472,-1.8607,-1.8516,-1.8516,-1.8405,-1.8202,-1.8202,-1.81,-1.7886,-1.7886,0.0,0.0,0.0,0.0,0.0,-1.7828,-1.793,-1.8008,-1.8076,-1.811,-1.811,-1.811,-1.8076,-1.8008,-1.7896,-1.7794,-1.7623,-1.7304,-1.6985,-1.6777,-1.6707,-1.7097,-1.7554,-1.7329,-1.7123,-1.6959,-1.6821,-1.6656,-1.6403,-1.6149,-1.5982,-1.5806,-1.5568,-1.5453,-1.5275,-1.4955,-1.4848,-1.4669,-1.4353,-1.4245,-1.4065,-1.3695,-1.3659,-1.3513,-1.3083,-1.3046,-1.29,-1.2489,-1.2452,-1.2489,-1.2599,-1.2863,-1.3046,-1.3046,-1.3046,-1.3046,-1.3046,-1.3046,-1.301,-1.2936,-1.2826,-1.2709,-1.2636,-1.2512,-1.2415,-1.2338,-1.2318,-1.2201,0.0,-1.3568,-1.3779,-1.4046,-1.4088,-1.4088,-1.4088,-1.4243,0.0,-1.4398,-1.4894,-1.5394,-1.565,-1.6196,-1.6771,-1.727,-1.7676,-1.804,0.0,-1.8531,0.0,0.0,0.0,0.0,0.0,0.0,0.0,0.0,0.0,0.0,0.0,-1.7606,-1.7213,-1.6848,-1.7486,-1.7872,-1.7906,-1.7906,-1.7828,-1.7638,-1.7638,-1.7476,-1.7132,-1.7132,0.0,0.0,0.0,0.0,0.0,-1.7132,-1.7245,-1.7436,-1.747,-1.747,-1.747,-1.747,-1.747,-1.7401,-1.721,-1.7132,-1.7028,-1.6412,-1.6017,-1.5727,-1.5727,-1.6228,-1.6795,-1.6577,-1.6368,-1.6202,-1.6026,-1.5842,-1.5621,-1.524,-1.5133,-1.5026,-1.4605,-1.4533,-1.4461,-1.4353,-1.4173,-1.3956,-1.3754,-1.3572,-1.3309,-1.29,-1.2826,-1.2673,-1.2298,-1.2231,-1.2077,-1.1669,-1.1595,-1.1446,-1.1037,-1.1744,-1.2224,-1.2224,-1.2224,-1.2224,-1.2224,-1.2187,-1.2114,-1.1929,-1.1892,-1.1781,-1.1558,-1.1558,-1.1484,-1.1298,-1.1298,-1.1092,-1.3652,0.0,-1.3779,-1.4046,-1.4088,-1.4088,0.0,-1.413,-1.4201,-1.4356,-1.4524,-1.481,-1.5352,-1.5733,-1.6105,-1.6558,-1.7139,-1.7554,-1.7635,0.0,0.0,-1.8241,0.0,0.0,0.0,0.0,0.0,0.0,0.0,0.0,0.0,-1.6558,-1.6175,-1.6053,-1.6219,-1.6577,-1.7151,-1.7151,-1.7151,-1.7107,-1.7107,-1.6899,-1.6517,-1.6517,0.0,0.0,0.0,0.0,-1.6377,-1.6482,-1.6612,-1.6821,-1.6968,-1.7047,-1.7047,-1.7047,-1.6934,-1.6786,-1.6586,-1.6447,-1.6272,-1.5665,-1.5303,-1.5081,-1.4919,-1.5417,-1.5974,-1.5621,-1.548,-1.5382,-1.5026,-1.4927,-1.4776,-1.4453,-1.4346,-1.4238,-1.3855,-1.3746,-1.371,-1.3521,-1.3448,-1.3302,-1.2936,-1.2826,-1.2673,-1.2268,-1.2077,-1.1892,-1.1632,-1.1484,-1.1223,-1.0812,-1.0775,-1.0625,-1.0218,-1.0925,-1.1372,-1.1372,-1.1372,-1.1372,-1.1372,-1.1223,-1.1149,-1.1074,-1.0775,-1.0513,-1.0331,-1.0331,-1.0293,-1.0255,-1.0255,-1.011,-1.3864,-1.3864,-1.3913,-1.4046,-1.4088,-1.4088,-1.4088,-1.4088,-1.4124,-1.4243,-1.4356,-1.4524,-1.4852,-1.5269,-1.565,-1.5891,-1.6517,0.0,0.0,0.0,-1.7383,0.0,0.0,0.0,0.0,0.0,0.0,0.0,0.0,0.0,0.0,-1.5892,-1.5488,-1.539,-1.539,-1.57,-1.6403,-1.6403,-1.6403,-1.6403,-1.6403,-1.6193,-1.5806,-1.5806,-1.5594,0.0,0.0,0.0,-1.57,-1.5771,-1.5982,-1.6254,-1.6368,-1.6403,-1.6403,-1.6403,-1.6333,-1.6184,-1.5912,-1.5594,-1.5248,-1.4848,-1.4561,-1.4346,-1.4173,-1.4389,-1.474,-1.4697,-1.4705,-1.4597,-1.4209,-1.4101,-1.4036,-1.3739,-1.3695,-1.3593,-1.3156,-1.3083,-1.3046,-1.282,-1.2709,-1.2562,-1.2224,-1.2114,-1.1892,-1.1521,-1.1298,-1.1074,-1.0887,-1.0663,-1.04,-0.9992,-0.9954,-0.9771,-0.9387,-0.9755,-1.0169,-1.0513,-1.055,-1.055,-1.055,-1.0368,-1.0175,-0.9981,-0.9685,-0.9458,-0.9349,-0.9349,-0.9349,-0.9349,-0.9349,-0.9198,-1.4088,-1.4088,-1.4088,-1.4088,-1.4088,-1.4088,-1.4088,-1.4088,-1.4088,-1.4088,-1.4243,-1.4356,-1.4391,-1.4852,0.0,-1.5269,0.0,0.0,-1.6484,-1.6484,-1.6484,0.0,0.0,0.0,0.0,0.0,0.0,0.0,0.0,0.0,0.0,-1.5312,-1.4955,-1.4792,-1.4792,-1.5034,-1.5551,-1.5586,-1.5621,-1.5621,-1.5621,-1.5417,-1.5098,-1.5098,-1.4883,0.0,0.0,0.0,-1.5098,-1.5098,-1.5303,-1.5621,-1.5621,-1.5621,-1.5621,-1.5621,-1.5621,-1.5551,-1.5161,-1.4669,-1.4173,-1.4021,-1.3811,-1.3572,-1.3419,-1.3346,-1.3382,-1.3695,-1.384,-1.3804,-1.3411,-1.3309,-1.3273,-1.3046,-1.301,-1.29,-1.2489,-1.2415,-1.2378,-1.2157,-1.1966,-1.1781,-1.1558,-1.1372,-1.1149,-1.07,-1.0472,-1.0306,-1.0122,-0.9926,-0.9642,-0.9269,-0.9231,-0.9072,-0.8682,-0.8644,-0.8913,-0.9566,-0.9687,-0.9758,-0.9757,-0.9571,-0.9297,-0.8909,-0.8721,-0.8605,-0.8562,-0.8562,-0.8562,-0.8562,-0.8562,-0.8374,-1.4088,-1.4088,-1.4088,-1.4088,-1.4088,-1.4088,-1.4088,-1.4088,-1.4088,-1.4088,-1.4124,-1.4201,-1.4356,-1.4482,-1.4608,0.0,0.0,-1.5367,0.0,0.0,0.0,0.0,0.0,0.0,0.0,0.0,0.0,0.0,0.0,0.0,0.0,0.0,-1.4238,-1.4201,-1.4201,-1.4274,-1.4346,-1.4633,-1.4776,-1.4776,-1.4776,-1.4669,-1.4533,-1.4533,-1.4389,0.0,0.0,-1.4317,-1.4533,-1.4533,-1.4641,-1.4776,-1.4776,-1.4776,-1.4776,-1.4776,-1.4776,-1.474,-1.4382,-1.3876,-1.3375,-1.3346,-1.3083,-1.2783,-1.2746,-1.2636,-1.2452,-1.2335,-1.2703,-1.3003,-1.2599,-1.2489,-1.2415,-1.2224,-1.2187,-1.2077,-1.1669,-1.1595,-1.1521,-1.1335,-1.126,-1.1111,-1.0738,-1.0663,-1.0513,-1.0105,-0.9858,-0.9706,-0.9712,-0.9473,-0.9223,-0.8986,-0.895,-0.8788,-0.8391,-0.835,-0.8305,-0.8211,-0.8789,-0.9132,-0.9057,-0.9026,-0.8828,-0.8427,-0.8386,-0.826,-0.8008,-0.8008,-0.8008,-0.8008,-0.8008,-0.789,-1.4088,-1.4088,-1.4088,-1.4088,-1.4088,-1.4088,-1.4088,-1.4088,-1.4088,-1.4088,-1.4088,-1.4124,-1.4201,0.0,-1.4482,-1.465,0.0,0.0,0.0,0.0,0.0,0.0,0.0,0.0,0.0,0.0,0.0,0.0,0.0,0.0,0.0,0.0,-1.3739,-1.363,-1.3593,-1.355,-1.3441,-1.3586,-1.3848,-1.4181,-1.4181,-1.4036,-1.3739,-1.3739,-1.363,-1.3441,0.0,-1.3557,-1.3739,-1.3739,-1.3848,-1.4,-1.4,-1.4,-1.4,-1.4,-1.3956,-1.3811,-1.355,-1.3185,-1.2826,-1.2636,-1.2415,-1.2224,-1.2003,-1.1892,-1.1744,-1.1298,-1.1706,-1.2187,-1.1892,-1.1744,-1.1632,-1.1558,-1.1521,-1.1409,-1.0999,-1.0925,-1.0854,-1.0646,-1.0592,-1.0528,-1.0238,-1.0186,-1.0024,-0.9587,-0.9358,-0.9181,-0.9065,-0.886,-0.8591,-0.8217,-0.8176,-0.8098,-0.7777,-0.7777,-0.7814,-0.7885,-0.822,-0.8333,-0.8213,-0.8176,-0.8057,-0.7777,-0.7777,-0.7694,-0.7563,-0.7563,-0.7522,-0.7435,-0.7435,-0.7225,-1.4088,-1.4088,-1.4088,-1.4088,-1.4088,-1.4088,-1.4088,-1.4088,-1.4088,-1.4088,-1.4088,-1.4088,0.0,-1.4243,0.0,-1.4531,-1.4531,0.0,0.0,0.0,0.0,0.0,0.0,0.0,0.0,0.0,0.0,0.0,0.0,0.0,0.0,0.0,-1.3309,-1.3119,-1.3119,-1.3046,-1.29,-1.29,-1.3119,-1.3608,-1.3608,-1.3419,-1.3119,-1.3119,-1.3046,-1.29,-1.29,-1.2973,-1.3119,-1.3119,-1.3229,-1.3346,-1.3309,-1.3273,-1.3229,-1.3229,-1.3083,-1.29,-1.2673,-1.2489,-1.2261,-1.1892,-1.1744,-1.1632,-1.1298,-1.1149,-1.0999,-1.0513,-1.0738,-1.1111,-1.1074,-1.0925,-1.0812,-1.0812,-1.0859,-1.0787,-1.0377,-1.0345,-1.0286,-1.0035,-0.9948,-0.9886,-0.971,-0.9658,-0.949,-0.9037,-0.8831,-0.8661,-0.8454,-0.8288,-0.8066,-0.7724,-0.7682,-0.7602,-0.7354,-0.727,-0.7346,-0.7632,-0.7764,-0.7802,-0.7682,-0.7682,-0.756,-0.7266,-0.7266,-0.7182,-0.7098,-0.7098,-0.6968,-0.68,-0.68,-0.6544,-1.4088,-1.4088,-1.4088,-1.4088,-1.4088,-1.4088,-1.4088,-1.4088,-1.4088,-1.4088,-1.4088,-1.4088,0.0,-1.413,-1.4124,-1.413,0.0,0.0,0.0,0.0,0.0,0.0,0.0,0.0,0.0,0.0,0.0,0.0,0.0,0.0,0.0,0.0,0.0,-1.2936,-1.2936,-1.29,-1.29,-1.29,-1.2936,-1.2973,-1.2973,-1.2936,-1.2936,-1.2936,-1.29,-1.29,-1.29,-1.29,-1.2936,-1.2936,-1.2936,-1.2936,-1.2746,-1.2562,-1.2378,-1.2378,-1.2261,-1.2077,-1.1855,-1.1632,-1.1446,-1.1223,-1.1037,-1.085,-1.0625,-1.0438,-1.0255,-0.9992,-0.9733,-0.9544,-0.9922,-0.9997,-0.9992,-0.9992,-1.0116,-1.0156,-0.9737,-0.9826,-0.9817,-0.9375,-0.9253,-0.9222,-0.8996,-0.8959,-0.8837,-0.8435,-0.8288,-0.8183,-0.7974,-0.7942,-0.7906,-0.7863,-0.7863,-0.7775,-0.7515,-0.7244,-0.7068,-0.6895,-0.7325,-0.7694,-0.7855,-0.7863,-0.7639,-0.7109,-0.7109,-0.6885,-0.6445,-0.6445,-0.636,-0.6142,-0.6142,-0.6007,-1.4088,-1.4088,-1.4088,-1.4088,-1.4088,-1.4088,-1.4088,-1.4088,-1.4088,-1.4088,-1.4088,0.0,0.0,0.0,-1.3828,-1.3701,0.0,0.0,0.0,0.0,0.0,0.0,0.0,0.0,0.0,0.0,0.0,0.0,0.0,0.0,0.0,0.0,0.0,-1.215,-1.215,-1.215,-1.215,-1.215,-1.215,-1.2157,-1.2526,-1.2562,-1.2342,-1.2342,-1.2268,-1.215,-1.215,-1.215,-1.215,-1.215,-1.215,-1.212,-1.1929,-1.1818,-1.1744,-1.1595,-1.1521,-1.1409,-1.1074,-1.0887,-1.0775,-1.0475,-1.0293,-1.018,-0.9846,-0.9695,-0.9575,-0.9256,-0.9062,-0.9062,-0.9562,-0.9519,-0.9364,-0.9449,-0.9542,-0.9521,-0.9245,-0.923,-0.9201,-0.8868,-0.8807,-0.8762,-0.85,-0.8473,-0.8392,-0.81,-0.8025,-0.7933,-0.7676,-0.7643,-0.7591,-0.7408,-0.7279,-0.719,-0.7061,-0.6833,-0.6653,-0.6567,-0.6913,-0.7041,-0.6962,-0.6962,-0.6874,-0.6653,-0.6653,-0.652,-0.6213,-0.6213,-0.5947,-0.5411,-0.5411,-0.5188,-1.4088,-1.4088,-1.4088,-1.3997,-1.3955,-1.3955,-1.387,-1.3997,-1.4088,-1.3997,-1.3913,-1.3828,-1.3652,0.0,0.0,0.0,0.0,0.0,0.0,0.0,0.0,0.0,0.0,0.0,0.0,0.0,0.0,0.0,0.0,0.0,0.0,0.0,0.0,0.0,-1.1521,-1.1521,-1.1521,-1.1521,-1.1521,-1.1521,-1.1929,-1.204,-1.1892,-1.1892,-1.1781,-1.1595,-1.1595,-1.1558,-1.1521,-1.1521,-1.1484,-1.1409,-1.1186,-1.1074,-1.0999,-1.0812,-1.07,-1.0663,-1.0255,-1.0105,-1.0067,-0.9652,-0.9539,-0.9463,-0.9127,-0.8985,-0.8913,-0.8589,-0.8436,-0.8457,-0.8953,-0.8926,-0.8796,-0.8796,-0.8836,-0.8839,-0.8641,-0.8643,-0.864,-0.8431,-0.8369,-0.8324,-0.8137,-0.8113,-0.8025,-0.7812,-0.7768,-0.768,-0.7411,-0.737,-0.7279,-0.701,-0.6789,-0.6659,-0.6659,-0.6435,-0.6254,-0.6163,-0.6302,-0.6346,-0.6299,-0.6299,-0.6254,-0.6077,-0.6077,-0.5947,-0.5638,-0.5638,-0.528,-0.4565,-0.4565,-0.4297,-1.4088,-1.4088,-1.4046,-1.3779,-1.3695,-1.3652,-1.344,-1.3743,-1.3997,-1.3737,-1.3519,-1.3398,-1.3392,-1.3228,0.0,0.0,0.0,0.0,0.0,0.0,0.0,0.0,0.0,0.0,0.0,0.0,0.0,0.0,0.0,0.0,0.0,0.0,0.0,0.0,-1.1074,-1.1074,-1.1074,-1.1074,-1.1074,-1.1074,-1.1074,-1.1298,-1.1706,-1.1706,-1.1595,-1.1409,-1.1409,-1.126,-1.1074,-1.1074,-1.0962,-1.0775,-1.0556,-1.0368,-1.018,-0.996,-0.9879,-0.9846,-0.9435,-0.9284,-0.9208,-0.8818,-0.8699,-0.8665,-0.8441,-0.8346,-0.826,-0.807,-0.7801,-0.7646,-0.7824,-0.8078,-0.8234,-0.7975,-0.807,-0.816,-0.7955,-0.804,-0.8157,-0.794,-0.79,-0.79,-0.79,-0.79,-0.7812,-0.7551,-0.7507,-0.7415,-0.7139,-0.7095,-0.701,-0.6792,-0.6567,-0.6384,-0.6384,-0.6213,-0.5991,-0.5719,-0.5502,-0.5594,-0.6083,-0.6083,-0.5861,-0.5416,-0.5371,-0.5149,-0.4705,-0.4705,-0.4304,-0.3587,-0.3587,-0.3317,-1.387,-1.3822,-1.3779,-1.3519,-1.3483,-1.344,-1.3228,-1.3398,-1.3525,-1.3313,-1.3228,-1.3094,-1.2747,0.0,0.0,0.0,0.0,0.0,0.0,0.0,0.0,0.0,0.0,0.0,0.0,0.0,0.0,0.0,0.0,0.0,0.0,0.0,0.0,0.0,-1.0255,-1.0255,-1.0255,-1.0255,-1.0255,-1.0255,-1.0255,-1.0556,-1.1074,-1.1074,-1.0887,-1.055,-1.055,-1.0443,-1.0255,-1.0255,-1.0218,-1.0143,-0.9809,-0.962,-0.9506,-0.9198,-0.9046,-0.9008,-0.8746,-0.867,-0.8594,-0.8203,-0.805,-0.8038,-0.7783,-0.7703,-0.7677,-0.7722,-0.7659,-0.7611,-0.761,-0.7661,-0.7754,-0.788,-0.7961,-0.7956,-0.7912,-0.795,-0.7896,-0.768,-0.7635,-0.7547,-0.7363,-0.7319,-0.7319,-0.7231,-0.7102,-0.6925,-0.6653,-0.6609,-0.652,-0.6349,-0.6077,-0.5855,-0.5725,-0.5327,-0.506,-0.5015,-0.4746,-0.479,-0.5104,-0.5104,-0.4971,-0.4612,-0.4612,-0.4389,-0.3944,-0.3944,-0.3542,-0.2827,-0.2827,-0.2557,-1.3652,-1.3525,-1.3398,-1.3179,-1.3052,-1.2918,-1.2619,-1.2796,0.0,0.0,-1.2619,-1.2406,-1.2015,-1.1671,0.0,0.0,0.0,0.0,0.0,0.0,0.0,0.0,0.0,0.0,0.0,0.0,0.0,0.0,0.0,0.0,0.0,0.0,0.0,0.0,-0.9425,-0.9425,-0.9425,-0.9425,-0.9425,-0.9425,-0.9425,-0.9614,-0.9986,-1.0288,-1.0218,-0.9846,-0.969,-0.9539,-0.9425,-0.9425,-0.9425,-0.9387,-0.9051,-0.8941,-0.8899,-0.847,-0.8356,-0.8318,-0.8021,-0.7906,-0.7868,-0.7557,-0.7486,-0.7489,-0.7319,-0.7281,-0.7345,-0.742,-0.7433,-0.7375,-0.7342,-0.7323,-0.7367,-0.7544,-0.7588,-0.7588,-0.7588,-0.7588,-0.7544,-0.7367,-0.7323,-0.7279,-0.7013,-0.6966,-0.6966,-0.683,-0.6697,-0.6567,-0.6302,-0.621,-0.5988,-0.568,-0.5455,-0.5191,-0.4971,-0.4525,-0.4257,-0.4257,-0.3942,-0.3764,-0.381,-0.4123,-0.4078,-0.3762,-0.3762,-0.354,-0.3184,-0.3094,-0.2691,-0.2064,-0.1974,-0.1749,-1.3398,-1.3179,-1.2966,-1.2662,-1.2406,-1.2106,-1.1714,-1.1886,-1.2106,-1.1929,0.0,-1.1499,-1.1241,0.0,0.0,0.0,0.0,0.0,0.0,0.0,0.0,0.0,0.0,0.0,0.0,0.0,0.0,0.0,0.0,0.0,0.0,0.0,0.0,0.0,-0.8627,-0.8627,-0.8627,-0.8627,-0.8627,0.0,-0.8627,-0.8623,-0.8627,-0.9425,-0.9582,-0.9208,-0.878,-0.8627,-0.8627,-0.8585,-0.8589,-0.8585,-0.8365,-0.8289,-0.825,-0.7863,-0.7706,-0.7668,-0.7296,-0.718,-0.7142,-0.6942,-0.6976,-0.7078,-0.7053,-0.7109,-0.7179,-0.7197,-0.7168,-0.7095,-0.7098,-0.7051,-0.7051,-0.7051,-0.7051,-0.7051,-0.7051,-0.7051,-0.7051,-0.7051,-0.7051,-0.6966,-0.6792,-0.6748,-0.6659,-0.6387,-0.634,-0.621,-0.5994,-0.5769,-0.5408,-0.4921,-0.4701,-0.448,-0.421,-0.3764,-0.3497,-0.3452,-0.3048,-0.269,-0.2379,-0.3094,-0.3272,-0.2823,-0.2778,-0.2645,-0.2379,-0.2199,-0.1839,-0.1345,-0.1166,-0.0942,-1.3003,-1.2705,-1.2448,-1.202,-1.1456,-1.0982,-1.0852,-1.0679,-1.0598,-1.0852,-1.0852,-1.0722,0.0,0.0,0.0,0.0,0.0,0.0,0.0,0.0,0.0,0.0,0.0,0.0,0.0,0.0,0.0,0.0,0.0,0.0,0.0,0.0,0.0,-0.8012,-0.8136,-0.8217,-0.8217,-0.8217,-0.8136,0.0,-0.8012,-0.7897,-0.7787,-0.8589,-0.8818,-0.8556,-0.8169,-0.8012,-0.7974,-0.7825,-0.7748,-0.7748,-0.7526,-0.745,-0.7411,-0.7173,-0.7092,-0.7092,-0.698,-0.698,-0.6942,-0.6714,-0.6749,-0.6863,-0.6822,-0.6864,-0.6992,-0.7105,-0.7115,-0.7051,-0.6925,-0.6881,-0.6792,-0.6609,-0.67,-0.6881,-0.6881,-0.67,-0.6564,-0.6564,-0.6564,-0.6517,-0.6476,-0.6476,-0.6343,-0.5897,-0.5722,-0.546,-0.506,-0.4971,-0.4659,-0.3987,-0.3855,-0.3676,-0.3226,-0.2915,-0.2648,-0.2512,-0.2198,-0.1838,-0.1436,-0.2243,-0.2512,-0.2063,-0.2018,-0.1839,-0.1391,-0.1345,-0.1166,-0.0852,-0.0807,-0.0673,-1.2577,-1.21,-1.1757,-1.1154,-1.0511,-0.999,-0.999,-0.9641,-0.9336,-0.9419,-0.9728,-0.9859,0.0,0.0,0.0,0.0,0.0,0.0,0.0,0.0,0.0,0.0,0.0,0.0,0.0,0.0,0.0,0.0,0.0,0.0,0.0,-0.7322,-0.7361,-0.7361,-0.748,-0.7522,-0.7522,-0.7522,-0.748,-0.7361,-0.7361,-0.7322,-0.7249,-0.7748,-0.7944,-0.7795,-0.7518,-0.7361,-0.7361,-0.7249,-0.7211,-0.7211,-0.7099,-0.7061,-0.7022,-0.683,-0.6753,-0.6753,-0.6637,-0.6602,-0.6613,-0.657,-0.6661,-0.6736,-0.6679,-0.6741,-0.683,-0.6766,-0.6786,-0.6741,-0.6656,-0.6526,-0.6438,-0.6302,-0.6435,-0.6612,-0.6612,-0.6435,-0.6257,-0.6257,-0.6166,-0.6033,-0.5944,-0.5722,-0.5502,-0.528,-0.5013,-0.4701,-0.4212,-0.4168,-0.39,-0.3139,-0.3051,-0.2871,-0.242,-0.2108,-0.1885,-0.1705,-0.1436,-0.1166,-0.0897,-0.1391,-0.1525,-0.1256,-0.1256,-0.1166,-0.0897,-0.0807,-0.0673,-0.0538,-0.0404,-0.0314,-1.2143,-1.1499,-1.0852,-1.0207,-0.9559,0.0,-0.9038,-0.8727,-0.8328,-0.8065,-0.8596,0.0,0.0,0.0,0.0,0.0,0.0,0.0,0.0,0.0,0.0,0.0,0.0,0.0,0.0,0.0,0.0,0.0,0.0,0.0,-0.6788,-0.6826,-0.6865,-0.6865,-0.6865,-0.6903,-0.6903,-0.6903,-0.6865,-0.6865,-0.6826,-0.6788,-0.6788,-0.6988,-0.7065,-0.7142,-0.6942,-0.6865,-0.6865,-0.6826,-0.6788,-0.6788,-0.6788,-0.6788,-0.6788,-0.656,-0.6486,-0.6447,-0.6257,-0.62,-0.6237,-0.6354,-0.6471,-0.6595,-0.6544,-0.6636,-0.6659,-0.6432,-0.6343,-0.6343,-0.6254,-0.608,-0.5905,-0.5861,-0.5944,-0.6074,-0.621,-0.6035,-0.5861,-0.5861,-0.5633,-0.5411,-0.5238,-0.4837,-0.4527,-0.4527,-0.4255,-0.3898,-0.3452,-0.3363,-0.3094,-0.2378,-0.2289,-0.2064,-0.166,-0.1391,-0.1211,-0.0987,-0.0762,-0.0628,-0.0583,-0.0583,-0.0583,-0.0583,-0.0628,-0.0628,-0.0583,-0.0404,-0.0314,-0.0314,-0.009,0.0,-1.1929,-1.0809,-0.9689,-0.9213,-0.8732,-0.8288,0.0,0.0,-0.7577,0.0,0.0,0.0,0.0,0.0,0.0,0.0,0.0,0.0,0.0,0.0,0.0,0.0,0.0,0.0,0.0,0.0,0.0,0.0,0.0,0.0,-0.6374,-0.6563,-0.6641,-0.6641,-0.6826,-0.6903,-0.6903,-0.6903,-0.6826,-0.6641,-0.6451,-0.6374,-0.6374,-0.6412,-0.6602,-0.6942,-0.6714,-0.6641,-0.6637,-0.6451,-0.6374,-0.6374,-0.6374,-0.6374,-0.6335,-0.6096,-0.598,-0.598,-0.575,-0.5789,-0.5885,-0.5904,-0.6045,-0.6257,-0.6276,-0.6328,-0.6432,-0.6213,-0.6127,-0.6038,-0.5638,-0.5324,-0.5099,-0.4926,-0.4748,-0.4743,-0.5416,-0.5193,-0.4882,-0.4882,-0.4656,-0.4478,-0.4433,-0.4076,-0.3765,-0.3765,-0.3361,-0.2957,-0.2693,-0.2513,-0.2154,-0.1615,-0.1391,-0.1166,-0.0852,-0.0807,-0.0718,-0.0493,-0.0448,-0.0314,-0.009,-0.009,-0.009,-0.009,-0.0314,-0.0314,-0.009,-0.0045,-0.0045,-0.0045,0.0,0.0,-1.1025,-0.9898,-0.8947,-0.8596,-0.8025,-0.754,-0.7279,-0.6966,-0.67,-0.6567,0.0,0.0,0.0,0.0,0.0,0.0,0.0,0.0,0.0,0.0,0.0,0.0,0.0,0.0,0.0,0.0,0.0,0.0,0.0,-0.606,-0.606,-0.6296,-0.6412,-0.6412,-0.6525,-0.6563,-0.6563,-0.6563,-0.6525,-0.6412,-0.6338,-0.63,-0.63,-0.6141,-0.6254,-0.6563,-0.649,-0.6412,-0.6412,-0.6177,-0.606,-0.606,-0.5948,-0.5912,-0.5912,-0.5792,-0.575,-0.5724,-0.5604,-0.5587,-0.5615,-0.5637,-0.5715,-0.5823,-0.576,-0.5772,-0.5769,-0.5416,-0.5327,-0.5238,-0.4879,-0.4523,-0.421,-0.4123,-0.3808,-0.3583,-0.3941,-0.4032,-0.3989,-0.3764,-0.3583,-0.3494,-0.3494,-0.3227,-0.2962,-0.2826,-0.2511,-0.2153,-0.1749,-0.166,-0.1436,-0.1031,-0.0942,-0.0762,-0.0538,-0.0538,-0.0448,-0.018,-0.018,-0.0135,0.0,0.0,0.0,0.0,-0.0135,-0.0135,0.0,0.0,0.0,0.0,0.0,0.0,-1.0164,-0.9165,-0.8416,-0.8021,-0.7404,-0.683,0.0,0.0,-0.5813,0.0,0.0,0.0,0.0,0.0,0.0,0.0,0.0,0.0,0.0,0.0,0.0,0.0,0.0,0.0,0.0,0.0,0.0,0.0,0.0,-0.5786,-0.5825,-0.6025,-0.6145,-0.618,-0.618,-0.6219,-0.63,-0.63,-0.6261,-0.618,-0.618,-0.618,-0.6106,-0.5906,-0.5944,-0.6106,-0.6106,-0.6106,-0.6106,-0.5906,-0.5825,-0.5786,-0.5595,-0.5521,-0.5518,-0.5404,-0.5386,-0.5387,-0.5239,-0.5189,-0.5229,-0.5147,-0.518,-0.5175,-0.5124,-0.5104,-0.5015,-0.4572,-0.4438,-0.4346,-0.4032,-0.363,-0.332,-0.332,-0.2959,-0.2644,-0.278,-0.3094,-0.3184,-0.2734,-0.2599,-0.2599,-0.251,-0.2332,-0.2109,-0.193,-0.1705,-0.1391,-0.1031,-0.0942,-0.0852,-0.0628,-0.0583,-0.0449,-0.0314,-0.0314,-0.0224,0.0,0.0,0.0,0.0,0.0,0.0,0.0,0.0,0.0,0.0,0.0,0.0,0.0,0.0,0.0,-0.9559,-0.8771,-0.8069,-0.7316,-0.6786,-0.6296,0.0,0.0,0.0,0.0,0.0,0.0,0.0,0.0,0.0,0.0,0.0,0.0,0.0,0.0,0.0,0.0,0.0,0.0,0.0,0.0,0.0,0.0,0.0,-0.5398,-0.5598,-0.5637,-0.5715,-0.5902,-0.5941,-0.606,-0.63,-0.63,-0.618,-0.5941,-0.5941,-0.5825,-0.5637,-0.5637,-0.5637,-0.5637,-0.5637,-0.5637,-0.5637,-0.5637,-0.5598,-0.5598,-0.5401,-0.5321,-0.5282,-0.4893,-0.477,-0.4781,-0.4418,-0.4382,-0.4497,-0.4247,-0.4264,-0.4383,-0.4342,-0.4342,-0.4255,-0.381,-0.3676,-0.3542,-0.3092,-0.278,-0.2558,-0.2558,-0.2199,-0.1973,-0.2423,-0.2558,-0.2423,-0.1929,-0.1839,-0.1794,-0.1524,-0.13,-0.1166,-0.1166,-0.0942,-0.0762,-0.0718,-0.0538,-0.0448,-0.0403,-0.018,-0.0045,0.0,0.0,0.0,0.0,0.0,0.0,0.0,0.0,0.0,0.0,0.0,0.0,0.0,0.0,0.0,0.0,0.0,0.0,-0.9257,-0.8556,-0.7808,-0.7102,-0.6567,-0.6035,-0.5411,-0.4877,0.0,0.0,0.0,0.0,0.0,0.0,0.0,0.0,0.0,0.0,0.0,0.0,0.0,0.0,0.0,0.0,0.0,0.0,0.0,0.0,0.0,0.0,-0.5201,-0.5321,-0.5518,-0.5712,-0.5712,-0.575,-0.5831,-0.5831,-0.5792,-0.5712,-0.5712,-0.5595,-0.5401,-0.5282,-0.5126,-0.5012,-0.474,-0.4935,-0.5398,-0.5129,-0.5012,-0.4973,-0.4662,-0.4545,-0.4506,-0.4233,-0.4179,-0.4149,-0.3755,-0.3681,-0.3741,-0.3439,-0.3382,-0.3403,-0.3403,-0.3403,-0.3315,-0.3005,-0.2781,-0.2602,-0.2287,-0.1884,-0.157,-0.1391,-0.1211,-0.1121,-0.13,-0.148,-0.148,-0.1166,-0.1076,-0.1076,-0.0987,-0.0897,-0.0807,-0.0673,-0.0583,-0.0448,-0.0269,-0.018,-0.0135,-0.0135,-0.0045,0.0,0.0,0.0,0.0,0.0,0.0,0.0,0.0,0.0,0.0,0.0,0.0,0.0,0.0,0.0,0.0,0.0,0.0,0.0,-0.9126,-0.8428,-0.772,-0.6972,-0.6393,-0.5769,-0.5055,0.0,0.0,0.0,0.0,0.0,0.0,0.0,0.0,0.0,0.0,0.0,0.0,0.0,0.0,0.0,0.0,0.0,0.0,0.0,0.0,0.0,0.0,0.0,-0.4696,-0.4815,-0.5012,-0.5285,-0.5362,-0.5401,-0.5401,-0.5401,-0.5362,-0.5285,-0.5285,-0.5168,-0.4893,-0.4774,-0.4579,-0.4389,-0.3958,-0.4192,-0.4854,-0.4545,-0.4387,-0.4348,-0.3919,-0.3763,-0.3728,-0.348,-0.3423,-0.3463,-0.312,-0.306,-0.3037,-0.2633,-0.251,-0.251,-0.2419,-0.2374,-0.2331,-0.2109,-0.193,-0.1749,-0.148,-0.1211,-0.0897,-0.0673,-0.0583,-0.0583,-0.0494,-0.0718,-0.0897,-0.0628,-0.0583,-0.0583,-0.0494,-0.0449,-0.0404,-0.0269,-0.0269,-0.018,-0.0045,0.0,0.0,0.0,0.0,0.0,0.0,0.0,0.0,0.0,0.0,0.0,0.0,0.0,0.0,0.0,0.0,0.0045,0.0135,0.0045,0.0045,0.0135,0.0135,0.018,0.0,0.0,0.0,0.0,0.0,0.0,-0.4837,0.0,0.0,0.0,0.0,0.0,0.0,0.0,0.0,0.0,0.0,0.0,0.0,0.0,0.0,0.0,0.0,0.0,0.0,0.0,0.0,0.0,0.0,-0.3565,-0.404,-0.4079,-0.4272,-0.4662,-0.4851,-0.4965,-0.4965,-0.4965,-0.4851,-0.4659,-0.4659,-0.4467,-0.4079,-0.4079,-0.396,-0.3724,-0.329,-0.3446,-0.4038,-0.3841,-0.3763,-0.3724,-0.3251,-0.3056,-0.3026,-0.2698,-0.2599,-0.2661,-0.2417,-0.2425,-0.2379,-0.193,-0.1749,-0.1705,-0.148,-0.1391,-0.1345,-0.1121,-0.1076,-0.1031,-0.0762,-0.0673,-0.0628,-0.0448,-0.0403,-0.0314,-0.0045,-0.0359,-0.0628,-0.0448,-0.0403,-0.0314,-0.0045,0.0,0.0,0.0,0.0,0.0,0.0,0.0,0.0,0.0,0.0,0.0,0.0,0.0,0.0,0.0,0.0,0.0,0.0,0.0,0.0,0.0,0.0,0.0135,0.0403,0.0135,0.0135,0.0403,0.0403,0.0538,-0.9432,0.0,0.0,0.0,0.0,0.0,0.0,0.0,0.0,0.0,0.0,0.0,0.0,0.0,0.0,0.0,0.0,0.0,0.0,0.0,0.0,0.0,0.0,0.0,0.0,0.0,0.0,0.0,-0.2626,-0.294,-0.3368,-0.3684,-0.3919,-0.4036,-0.4112,-0.4151,-0.4151,-0.4151,-0.4112,-0.4036,-0.4036,-0.38,-0.3368,-0.3368,-0.3175,-0.2862,-0.2586,-0.2469,-0.2508,-0.2744,-0.2862,-0.2823,-0.2547,-0.2456,-0.2414,-0.2025,-0.1916,-0.1939,-0.1517,-0.141,-0.1436,-0.1121,-0.0987,-0.0987,-0.0897,-0.0897,-0.0897,-0.0807,-0.0718,-0.0538,-0.0269,-0.018,-0.018,-0.0135,-0.009,-0.009,0.0,-0.009,-0.018,-0.0135,-0.009,-0.009,0.0,0.0,0.0,0.0,0.0,0.0,0.0,0.0,0.0,0.0,0.0,0.0,0.0,0.0,0.0,0.0,0.0,0.0,0.0,0.0,0.009,0.0269,0.0269,0.0404,0.0628,0.0404,0.0404,0.0628,0.0807,0.1031,-0.9777,-0.8986,-0.8153,0.0,0.0,0.0,-0.5057,-0.4342,0.0,0.0,0.0,0.0,0.0,0.0,0.0,0.0,0.0,0.0,0.0,0.0,0.0,0.0,0.0,0.0,0.0,0.0,0.0,-0.1804,-0.2002,-0.2314,-0.2704,-0.3057,-0.3255,-0.3255,-0.3255,-0.3255,-0.3255,-0.3255,-0.3255,-0.3255,-0.3255,-0.3057,-0.2741,-0.2741,-0.251,-0.2119,-0.1923,-0.1687,-0.1491,-0.1648,-0.1804,-0.1964,-0.1746,-0.1647,-0.163,-0.1329,-0.1233,-0.1262,-0.0965,-0.0888,-0.0897,-0.0673,-0.0583,-0.0538,-0.0449,-0.0404,-0.0404,-0.0404,-0.0314,-0.018,-0.0045,0.0,0.0,0.0,0.0,0.0,0.0,0.0,0.0,0.0,0.0,0.0,0.0,0.0,0.0,0.0,0.0,0.0,0.0,0.0,0.0,0.0,0.0,0.0,0.0,0.0,0.0,0.0,0.0,0.0,0.0,0.0,0.0135,0.0403,0.0403,0.0583,0.0987,0.0807,0.0852,0.1166,0.1525,0.1749,-1.0246,-0.9336,-0.8504,0.0,0.0,0.0,-0.5322,-0.4563,-0.376,0.0,0.0,0.0,0.0,0.0,0.0,0.0,0.0,0.0,0.0,0.0,0.0,0.0,0.0,0.0,0.0,-0.0746,-0.0943,-0.1218,-0.1415,-0.1689,-0.204,-0.2235,-0.2354,-0.2354,-0.2354,-0.2354,-0.2354,-0.2354,-0.2354,-0.2354,-0.2354,-0.2275,-0.204,-0.204,-0.1845,-0.1493,-0.1296,-0.1061,-0.0825,-0.0628,-0.0825,-0.1182,-0.0968,-0.0856,-0.0863,-0.0729,-0.0654,-0.0657,-0.0624,-0.0628,-0.0583,-0.0404,-0.0359,-0.0314,-0.009,0.0,0.0,0.0,0.0,0.0,0.0,0.0,0.0,0.0,0.0,0.0,0.0,0.0,0.0,0.0,0.0,0.0,0.0,0.0,0.0,0.0,0.0,0.0,0.0,0.0,0.0,0.0,0.0,0.0,0.0,0.0,0.0,0.0,0.0,0.0,0.0,0.0045,0.018,0.0448,0.0493,0.0897,0.1569,0.1345,0.148,0.1885,0.2378,0.2603,0.0,0.0,0.0,0.0,0.0,0.0,-0.6035,-0.5322,-0.452,0.0,0.0,0.0,0.0,0.0,0.0,0.0,0.0,0.0,0.0,0.0,0.0,0.0,0.0,0.0,0.0,-0.0393,-0.051,-0.0707,-0.0904,-0.1061,-0.1139,-0.1414,-0.1532,-0.1532,-0.1532,-0.1532,-0.1532,-0.1532,-0.1532,-0.1532,-0.1532,-0.1414,-0.1139,-0.1139,-0.1021,-0.0786,-0.0746,-0.0628,-0.0432,-0.0393,-0.051,-0.0748,-0.0686,-0.07,-0.0713,-0.0474,-0.0396,-0.0446,-0.0224,-0.0135,-0.0135,-0.009,-0.009,-0.009,0.0,0.0,0.0,0.0,0.0,0.0,0.0,0.0,0.0,0.0,0.0,0.0,0.0,0.0,0.0,0.0,0.0,0.0,0.0,0.0,0.0,0.0,0.0,0.0,0.0,0.0,0.0,0.0,0.0,0.0,0.0,0.0,0.0,0.0,0.0,0.0,0.0,0.0224,0.0404,0.0628,0.1211,0.1883,0.2598,0.2332,0.2289,0.2379,0.305,0.3363,0.0,0.0,0.0,-0.8775,0.0,0.0,0.0,-0.5899,-0.5099,-0.4166,0.0,0.0,0.0,0.0,0.0,0.0,0.0,0.0,0.0,0.0,0.0,0.0,0.0,0.0,0.0,-0.0163,-0.0244,-0.0448,-0.0651,-0.0769,-0.076,-0.088,-0.0955,-0.0943,-0.0943,-0.0943,-0.0943,-0.0943,-0.0943,-0.0943,-0.0943,-0.0864,-0.0746,-0.0746,-0.0628,-0.0432,-0.0432,-0.0353,-0.0157,-0.0159,-0.02,-0.0321,-0.0287,-0.0336,-0.0343,-0.0219,-0.0178,-0.018,-0.0045,0.0,0.0,0.0,0.0,0.0,0.0,0.0,0.0,0.0,0.0,0.0,0.0,0.0,0.0,0.0,0.0,0.0,0.0,0.0,0.0,0.0,0.0,0.0,0.0,0.0,0.0,0.0,0.0,0.0,0.0,0.0,0.0,0.0,0.0,0.0,0.0,0.0,0.0,0.0,0.0,0.0045,0.018,0.0314,0.0583,0.1031,0.1883,0.2599,0.3047,0.3272,0.3317,0.3227,0.3719,0.4034,0.0,0.0,0.0,0.0,0.0,-0.8157,0.0,0.0,0.0,-0.4696,0.0,0.0,0.0,0.0,0.0,0.0,0.0,0.0,0.0,0.0,0.0,0.0,0.0,0.0,0.0,0.0042,-0.0084,-0.021,-0.0379,-0.0501,-0.0492,-0.0492,-0.0487,-0.0478,-0.0478,-0.0477,-0.0474,-0.0474,-0.0473,-0.0471,-0.0471,-0.0471,-0.0471,-0.0471,-0.0393,-0.0236,-0.0236,-0.0157,0.0,0.0,0.0,0.0,0.0,0.0,0.0,0.0,0.0,0.0,0.0,0.0,0.0,0.0,0.0,0.0,0.0,0.0,0.0,0.0,0.0,0.0,0.0,0.0,0.0,0.0,0.0,0.0,0.0,0.0,0.0,0.0,0.0,0.0,0.0,0.0,0.0,0.0,0.0,0.0,0.0,0.0,0.0,0.0,0.0,0.0,0.0,0.0,0.0,0.0,0.0045,0.018,0.0403,0.0538,0.0897,0.1615,0.2465,0.3092,0.3405,0.4032,0.4208,0.4072,0.4387,0.4656,0.0,0.0,0.0,0.0,-0.9646,0.0,0.0,0.0,-0.6605,-0.5494,0.0,0.0,0.0,0.0,0.0,0.0,0.0,0.0,0.0,0.0,0.0,0.0,0.0,0.0,0.0,0.0,0.0,-0.0042,-0.0042,-0.0084,-0.0084,-0.0084,-0.0084,-0.0084,-0.0084,-0.0083,-0.0081,-0.0081,-0.008,-0.0079,-0.0079,-0.0079,-0.0079,-0.0079,-0.0039,-0.0039,-0.0039,-0.004,0.0,0.0,0.0,0.0,0.0,0.0,0.0,0.0,0.0,0.0,0.0,0.0,0.0,0.0,0.0,0.0,0.0,0.0,0.0,0.0,0.0,0.0,0.0,0.0,0.0,0.0,0.0,0.0,0.0,0.0,0.0,0.0,0.0,0.0,0.0,0.0,0.0,0.0,0.0,0.0,0.0,0.0,0.0,0.0,0.0,0.0,0.0,0.0,0.0,0.0,0.0224,0.0359,0.0403,0.0987,0.1615,0.2379,0.2734,0.3315,0.4164,0.4253,0.4389,0.4614,0.506,0.5369,0.0,0.0,0.0,0.0,0.0,0.0,-0.899,0.0,-0.7445,0.0,0.0,0.0,0.0,0.0,0.0,0.0,-0.0718,0.0,0.0,0.0,0.0,0.0,0.0,0.0,0.0,0.0,0.0,0.0,0.0,0.0,0.0,0.0,0.0,0.0,0.0,0.0,0.0,0.0,0.0,0.0,0.0,0.0,0.0,0.0,0.0,0.0,0.0,0.0,0.0,0.0,0.0,0.0,0.0,0.0,0.0,0.0,0.0,0.0,0.0,0.0,0.0,0.0,0.0,0.0,0.0,0.0,0.0,0.0,0.0,0.0,0.0,0.0,0.0,0.0,0.0,0.0,0.0,0.0,0.0,0.0,0.0,0.0,0.0,0.0,0.0,0.0,0.0,0.0,0.0,0.0,0.0,0.0,0.0,0.0,0.0,0.0,0.0045,0.0224,0.0583,0.0852,0.0987,0.166,0.2242,0.2735,0.336,0.3987,0.4525,0.479,0.5146,0.5505,0.5547,0.5725,-1.4195,0.0,0.0,0.0,0.0,0.0,0.0,0.0,0.0,0.0,0.0,0.0,0.0,0.0,0.0,0.0,0.0,-0.0448,0.0,0.0,0.0,0.0,0.0,0.0,0.0,0.0,0.0,0.0,0.0,0.0,0.0,0.0,0.0,0.0,0.0,0.0,0.0,0.0,0.0,0.0,0.0,0.0,0.0,0.0,0.0,0.0,0.0,0.0,0.0,0.0,0.0,0.0,0.0,0.0,0.0,0.0,0.0,0.0,0.0,0.0,0.0,0.0,0.0,0.0,0.0,0.0,0.0,0.0,0.0,0.0,0.0,0.0,0.0,0.0,0.0,0.0,0.0,0.0,0.0,0.0,0.0,0.0,0.0,0.0,0.0,0.0,0.0,0.0,0.0,0.0,0.0,0.0,0.0,0.0,0.0,0.0045,0.0269,0.0673,0.0987,0.1345,0.1705,0.2288,0.278,0.3179,0.3896,0.4478,0.4882,0.5282,0.5683,0.6083,0.5902,0.5991,0.0,0.0,0.0,-1.2534,0.0,0.0,0.0,0.0,-0.8903,0.0,0.0,0.0,0.0,0.0,0.0,0.0,0.0,0.0,0.0,0.0,0.0,0.0,0.0,0.0,0.0,0.0,0.0,0.0,0.0,0.0,0.0,0.0,0.0,0.0,0.0,0.0,0.0,0.0,0.0,0.0,0.0,0.0,0.0,0.0,0.0,0.0,0.0,0.0,0.0,0.0,0.0,0.0,0.0,0.0,0.0,0.0,0.0,0.0,0.0,0.0,0.0,0.0,0.0,0.0,0.0,0.0,0.0,0.0,0.0,0.0,0.0,0.0,0.0,0.0,0.0,0.0,0.0,0.0,0.0,0.0,0.0,0.0,0.0,0.0,0.0,0.0,0.0,0.0,0.0,0.0,0.0,0.0,0.0,0.0,0.0,0.0224,0.0673,0.1345,0.1391,0.1705,0.2424,0.2735,0.3179,0.3848,0.4164,0.4656,0.5371,0.5589,0.5811,0.6083,0.6083,0.6349,0.0,0.0,-1.3701,-1.3009,0.0,0.0,0.0,0.0,0.0,0.0,0.0,0.0,0.0,0.0,0.0,0.0,0.0,0.0,0.0,0.0,0.0,0.0,0.0,0.0,0.0,0.0,0.0,0.0045,0.0,0.0,0.0,0.0,0.0,0.0,0.0,0.0,0.0,0.0,0.0,0.0,0.0,0.0,0.0,0.0,0.0,0.0,0.0,0.0,0.0,0.0,0.0,0.0,0.0,0.0,0.0,0.0,0.0,0.0,0.0,0.0,0.0,0.0,0.0,0.0,0.0,0.0,0.0,0.0,0.0,0.0,0.0,0.0,0.0,0.0,0.0,0.0,0.0,0.0,0.0,0.0,0.0,0.0,0.0,0.0,0.0,0.0,0.0,0.0,0.0,0.0,0.0,0.0,0.018,0.0269,0.0269,0.0762,0.1166,0.1391,0.1839,0.2378,0.296,0.336,0.3849,0.4433,0.4966,0.5366,0.5589,0.5988,0.6299,0.6571,0.6571,0.6659,-1.5374,-1.4706,0.0,-1.3483,-1.2924,0.0,-1.18,0.0,0.0,0.0,0.0,0.0,0.0,0.0,0.0,0.0,0.0,0.0,0.0,0.0359,0.0,0.0,0.0,0.0,0.0,0.0,0.0494,0.0045,0.0,0.0,0.0,0.0,0.0,0.0,0.0,0.0,0.0,0.0,0.0,0.0,0.0,0.0,0.0,0.0,0.0,0.0,0.0,0.0,0.0,0.0,0.0,0.0,0.0,0.0,0.0,0.0,0.0,0.0,0.0,0.0,0.0,0.0,0.0,0.0,0.0,0.0,0.0,0.0,0.0,0.0,0.0,0.0,0.0,0.0,0.0,0.0,0.0,0.0,0.0,0.0,0.0,0.0,0.0,0.0,0.0,0.0,0.0,0.0,0.0,0.009,0.0135,0.0135,0.0359,0.0583,0.0762,0.1345,0.1749,0.1928,0.2556,0.3094,0.3585,0.4028,0.4518,0.5057,0.5589,0.5855,0.5941,0.6343,0.6612,0.6795,0.6881,0.6925]},{"header":{"parameterUnit":"m.s-1","parameterCategory":1,"la1":30.6,"la2":29.2853,"lo1":-89.7004,"lo2":-87.6739,"dy":0.0162,"dx":0.0183,"nx":112,"ny":82,"refTime":"2023-08-19T18:00:00:Z","depth":0,"parameterNumber":3,"parameterNumberName":"V-component_of_WINDS"},"data":[0.0,0.0,0.0,0.0,0.0,0.0,0.0,0.0,0.0,0.0,0.0,0.0,0.0,0.0,0.0,0.0,0.0,0.0,0.0,0.0,0.0,0.0,0.0,0.0,0.0,0.0,0.0,0.0,0.0,0.0,0.0,0.0,0.0,0.0,0.0,0.0,0.0,0.0,0.0,0.0,0.0,0.0,0.0,0.0,0.0,0.0,0.0,0.0,0.0,0.0,0.0,0.0,0.0,0.0,0.0,0.0,0.0,0.0,0.0,0.0,0.0,0.0,0.0,0.0,0.0,0.0,0.0,0.0,0.0,0.0,0.0,0.0,0.0,0.0,0.0,0.0,0.0,0.0,0.0,0.0,0.0,0.0,0.0,0.0,0.0,0.0,0.0,0.0,0.0,0.0,0.9637,0.8233,0.5758,0.3807,0.2868,0.1928,0.1076,0.0403,0.0,0.0,0.0,0.0,0.0,0.0,0.0,0.0,0.0,0.0,0.0,0.0,0.0,0.0,0.0,0.0,0.0,0.0,0.0,0.0,0.0,0.0,0.0,0.0,0.0,0.0,0.0,0.0,0.0,0.0,0.0,0.0,0.0,0.0,0.0,0.0,0.0,0.0,0.0,0.0,0.0,0.0,0.0,0.0,0.0,0.0,0.0,0.0,0.0,0.0,0.0,0.0,0.0,0.0,0.0,0.0,0.0,0.0,0.0,0.0,0.0,0.0,0.0,0.0,0.0,0.0,0.0,0.0,0.0,0.0,0.0,0.0,0.0,0.0,0.0,0.0,0.0,0.0,0.0,0.0,0.0,0.0,0.0,0.0,0.0,0.0,0.0,0.0,0.0,0.0,0.0,0.0,0.0,0.0,0.0,0.0,0.0,0.0,0.0,0.0,0.0,0.0,0.0,0.0,0.8807,0.6381,0.4654,0.3318,0.2378,0.1614,0.0852,0.009,0.0,0.0,0.0,0.0,0.0,0.0,0.0,0.0,0.0,0.0,0.0,0.0,0.0,0.0,0.0,0.0,0.0,0.0,0.0,0.0,0.0,0.0,0.0,0.0,0.0,0.0,0.0,0.0,0.0,0.0,0.0,0.0,0.0,0.0,0.0,0.0,0.0,0.0,0.0,0.0,0.0,0.0,0.0,0.0,0.0,0.0,0.0,0.0,0.0,0.0,0.0,0.0,0.0,0.0,0.0,0.0,0.0,0.0,0.0,0.0,0.0,0.0,0.0,0.0,0.0,0.0,0.0,0.0,0.0,0.0,0.0,0.0,0.0,0.0,0.0,0.0,0.0,0.0,0.0,0.0,0.0,0.0,0.0,0.0,0.0,0.0,0.0,0.0,0.0,0.0,0.0,0.0,0.0,0.0,0.0,0.0,0.0,0.0,0.0,0.0,0.0,0.0,0.0,0.889,0.7441,0.5361,0.4074,0.2959,0.1839,0.1121,0.0403,-0.0314,-0.0628,0.0,0.0,0.0,0.0,0.0,0.0,0.0,0.0,0.0,0.0,0.0,0.0,0.0,0.0,0.0,0.0,0.0,0.0,0.0,0.0,0.0,0.0,0.0,0.0,0.0,0.0,0.0,0.0,0.0,0.0,0.0,0.0,0.0,0.0,0.0,0.0,0.0,0.0,0.0,0.0,0.0,0.0,0.0,0.0,0.0,0.0,0.0,0.0,0.0,0.0,0.0,0.0,0.0,0.0,0.0,0.0,0.0,0.0,0.0,0.0,0.0,0.0,0.0,0.0,0.0,0.0,0.0,0.0,0.0,0.0,0.0,0.0,0.0,0.0,0.0,0.0,0.0,0.0,0.0,0.0,0.0,0.0,0.0,0.0,0.0,0.0,0.0,0.0,0.0,0.0,0.0,0.0,0.0,0.0,0.0,0.0,0.0,0.0,0.0,0.0,0.0,0.0,0.7533,0.6384,0.4872,0.376,0.2644,0.148,0.0807,0.0134,-0.0673,-0.1121,0.0,0.0,0.0,0.0,0.0,0.0,0.0,0.0,0.0,0.0,0.0,0.0,0.0,0.0,0.0,0.0,0.0,0.0,0.0,0.0,0.0,0.0,0.0,0.0,0.0,0.0,0.0,0.0,0.0,0.0,0.0,0.0,0.0,0.0,0.0,0.0,0.0,0.0,0.0,0.0,0.0,0.0,0.0,0.0,0.0,0.0,0.0,0.0,0.0,0.0,0.0,0.0,0.0,0.0,0.0,0.0,0.0,0.0,0.0,0.0,0.0,0.0,0.0,0.0,0.0,0.0,0.0,0.0,0.0,0.0,0.0,0.0,0.0,0.0,0.0,0.0,0.0,0.0,0.0,0.0,0.0,0.0,0.0,0.0,0.0,0.0,0.0,0.0,0.0,0.0,0.0,0.0,0.0,0.0,0.0,0.0,0.0,0.0,0.0,0.0,0.0,0.0,0.718,0.5985,0.4828,0.3624,0.251,0.148,0.0942,0.0269,-0.0628,-0.1121,0.0,0.0,0.0,0.0,0.0,0.0,0.0,0.0,0.0,0.0,0.0,0.0,0.0,0.0,0.0,0.0,0.0,0.0,0.0,0.0,0.0,0.0,0.0,0.0,0.0,0.0,0.0,0.0,0.0,0.0,0.0,0.0,0.0,0.0,0.0,0.0,0.0,0.0,0.0,0.0,0.0,0.0,0.0,0.0,0.0,0.0,0.0,0.0,0.0,0.0,0.0,0.0,0.0,0.0,0.0,0.0,0.0,0.0,0.0,0.0,0.0,0.0,0.0,0.0,0.0,0.0,0.0,0.0,0.0,0.0,0.0,0.0,0.0,0.0,0.0,0.0,0.0,0.0,0.0,0.0,0.0,0.0,0.0,0.0,0.0,0.0,0.0,0.0,0.0,0.0,0.0,0.0,0.0,0.0,0.0,0.0,0.0,0.0,0.0,0.0,0.0,0.0,0.6959,0.5944,0.0,0.3898,0.2959,0.1973,0.1166,0.0359,-0.0448,0.0,0.0,0.0,0.0,0.0,0.0,0.0,0.0,0.0,0.0,0.0,0.0,0.0,0.0,0.0,0.0,0.0,0.0,0.0,0.0,0.0,0.0,0.0,0.0,0.0,0.0,0.0,0.0,0.0,0.0,0.0,0.0,0.0,0.0,0.0,0.0,0.0,0.0,0.0,0.0,0.0,0.0,0.0,0.0,0.0,0.0,0.0,0.0,0.0,0.0,0.0,0.0,0.0,0.0,0.0,0.0,0.0,0.0,0.0,0.0,0.0,0.0,0.0,0.0,0.0,0.0,0.0,0.0,0.0,0.0,0.0,0.0,0.0,0.0,0.0,0.0,0.0,0.0,0.0,0.0,0.0,0.0,0.0,0.0,0.0,0.0,0.0,0.0,0.0,0.0,0.0,0.0,0.0,0.0,0.0,0.0,0.0,0.0,0.0,0.0,0.0,0.0,0.7757,0.6915,0.5988,0.0,0.4078,0.3229,0.2288,0.1436,0.0583,-0.0224,0.0,0.0,0.0,0.0,0.0,0.0,0.0,0.0,0.0,0.0,0.0,0.0,0.0,0.0,0.0,0.0,0.0,0.0,0.0,0.0,0.0,0.0,0.0,0.0,0.0,0.0,0.0,0.0,0.0,0.0,0.0,0.0,0.0,0.0,0.0,0.0,0.0,0.0,0.0,0.0,0.0,0.0,0.0,0.0,0.0,0.0,0.0,0.0,0.0,0.0,0.0,0.0,0.0,0.0,0.0,0.0,0.0,0.0,0.0,0.0,0.0,0.0,0.0,0.0,0.0,0.0,0.0,0.0,0.0,0.0,0.0,0.0,0.0,0.0,0.0,0.0,0.0,0.0,0.0,0.0,0.0,0.0,0.0,0.0,0.0,0.0,0.0,0.0,0.0,0.0,0.0,0.0,0.0,0.0,0.0,0.0,0.0,0.0,0.0,0.0,0.0,0.0,0.7937,0.6962,0.603,0.5097,0.4166,0.3229,0.2288,0.1705,0.1031,0.0,0.0,0.0,0.0,0.0,0.0,0.0,0.0,0.0,0.0,0.0,0.0,0.0,0.0,0.0,0.0,0.0,0.0,0.0,0.0,0.0,0.0,0.0,0.0,0.0,0.0,0.0,0.0,0.0,0.0,0.0,0.0,0.0,0.0,0.0,0.0,0.0,0.0,0.0,0.0,0.0,0.0,0.0,0.0,0.0,0.0,0.0,0.0,0.0,0.0,0.0,0.0,0.0,0.0,0.0,0.0,0.0,0.0,0.0,0.0,0.0,0.0,0.0,0.0,0.0,0.0,0.0,0.0,0.0,0.0,0.0,0.0,0.0,0.0,0.0,0.0,0.0,0.0,0.0,0.0,0.0,0.0,0.0,0.0,0.0,0.0,0.0,0.0,0.0,0.0,0.0,0.0,0.0,0.0,0.0,0.0,0.0,0.0,0.0,0.0,0.0,0.0,0.0,0.7713,0.6871,0.6163,0.5542,0.4835,0.4034,0.3274,0.2422,0.1615,0.0807,0.0,0.0,0.0,0.0,0.0,0.0,0.0,0.0,0.0,0.0,0.0,0.0,0.0,0.0,0.0,0.0,0.0,0.0,0.0,0.0,0.0,0.0,0.0,0.0,0.0,0.0,0.0,0.0,0.0,0.0,0.0,0.0,0.0,0.0,0.0,0.0,0.0,0.0,0.0,0.0,0.0,0.0,0.0,0.0,0.0,0.0,0.0,0.0,0.0,0.0,0.0,0.0,0.0,0.0,0.0,0.0,0.0,0.0,0.0,0.0,0.0,0.0,0.0,0.0,0.0,0.0,0.0,0.0,0.0,0.0,0.0,0.0,0.0,0.0,0.0,0.0,0.0,0.0,0.0,0.0,0.0,0.0,0.0,0.0,0.0,0.0,0.0,0.0,0.0,0.0,0.0,0.0,0.0,0.0,0.0,0.0,0.0,0.0,0.0,0.0,0.0,0.0,0.7757,0.7007,0.639,0.5899,0.5327,0.4659,0.3808,0.3048,0.2287,0.157,0.0,0.0,0.0,0.0,0.0,0.0,0.0,0.0,0.0,0.0,0.0,0.0,0.0,0.0,0.0,0.0,0.0,0.0,0.0,0.0,0.0,0.0,0.0,0.0,0.0,0.0,0.0,0.0,0.0,0.0,0.0,0.0,0.0,0.0,0.0,0.0,0.0,0.0,0.0,0.0,0.0,0.0,0.0,0.0,0.0,0.0,0.0,0.0,0.0,0.0,0.0,0.0,0.0,0.0,0.0,0.0,0.0,0.0,0.0,0.0,0.0,0.0,0.0,0.0,0.0,0.0,0.0,0.0,0.0,0.0,0.0,0.0,0.0,0.0,0.0,0.0,0.0,0.0,0.0,0.0,0.0,0.0,0.0,0.0,0.0,0.0,0.0,0.0,0.0,0.0,0.0,0.0,0.0,0.0,0.0,0.0,0.0,0.0,0.0,0.0,0.0,0.0,0.794,0.7279,0.6659,0.6216,0.5727,0.5057,0.4117,0.3583,0.3004,0.2378,0.0,0.0,0.0,0.0,0.0,0.0,0.0,0.0,0.0,0.0,0.0,0.0,0.0,0.0,0.0,0.0,0.0,0.0,0.0,0.0,0.0,0.0,0.0,0.0,0.0,0.0,0.0,0.0,0.0,0.0,0.0,0.0,0.0,0.0,0.0,0.0,0.0,0.0,0.0,0.0,0.0,0.0,0.0,0.0,0.0,0.0,0.0,0.0,0.0,0.0,0.0,0.0,0.0,0.0,0.0,0.0,0.0,0.0,0.0,0.0,1.5784,0.0,0.0,0.0,0.0,0.0,0.0,0.0,0.0,0.0,0.0,0.0,0.0,0.0,0.0,0.0,0.0,0.0,0.0,0.0,0.0,0.0,0.0,0.0,0.0,0.0,0.0,0.0,0.0,0.0,0.0,0.0,0.0,0.0,0.0,0.0,0.0,0.0,0.0,0.0,0.0,0.0,0.7984,0.7408,0.6922,0.6659,0.6035,0.55,0.5102,0.4251,0.3628,0.3318,0.2598,0.0,0.0,0.0,0.0,0.0,0.0,0.0,0.0,0.0,0.0,0.0,0.0,0.0,0.0,0.0,0.0,0.0,0.0,0.0,0.0,0.0,0.0,0.0,0.0,0.0,0.0,0.0,0.0,0.0,0.0,0.0,0.0,0.0,0.0,0.0,0.0,0.0,0.0,0.0,0.0,0.0,0.0,0.0,0.0,0.0,0.0,0.0,0.0,0.0,0.0,0.0,0.0,0.0,0.0,0.0,0.0,0.0,0.0,0.0,0.0,1.5784,0.0,0.0,0.0,0.0,0.0,0.0,0.0,0.0,0.0,0.0,0.0,0.0,0.0,0.0,0.0,0.0,0.0,0.0,0.0,0.0,0.0,0.0,0.0,0.0,0.0,0.0,0.0,0.0,0.0,0.0,0.0,0.0,0.0,0.0,0.0,0.0,0.0,0.0,0.0,0.0,0.8288,0.7804,0.7363,0.6966,0.6609,0.621,0.5772,0.5142,0.4607,0.43,0.3715,0.0,0.0,0.0,0.0,0.0,0.0,0.0,0.0,0.0,0.0,0.0,0.0,0.0,0.0,0.0,0.0,0.0,0.0,0.0,0.0,0.0,0.0,0.0,0.0,0.0,0.0,0.0,0.0,0.0,0.0,0.0,0.0,0.0,0.0,0.0,0.0,0.0,0.0,0.0,0.0,0.0,0.0,0.0,0.0,0.0,0.0,0.0,0.0,0.0,0.0,0.0,0.0,0.0,1.6521,1.6161,1.602,1.5826,1.5551,1.5337,1.5571,1.5678,1.5678,0.0,0.0,0.0,0.0,0.0,0.0,0.0,0.0,0.0,0.0,0.0,0.0,0.0,0.0,0.0,0.0,0.0,0.0,0.0,0.0,0.0,0.0,0.0,0.0,0.0,1.4088,1.4088,0.0,0.0,0.0,0.0,0.0,0.0,0.0,0.0,0.0,0.0,0.0,0.0,0.8767,0.8332,0.7852,0.736,0.7228,0.6962,0.639,0.6077,0.5719,0.5275,0.4832,0.4476,0.0,0.0,0.0,0.0,0.0,0.0,0.0,0.0,0.0,0.0,0.0,0.0,0.0,0.0,0.0,0.0,0.0,0.0,0.0,0.0,0.0,0.0,0.0,0.0,0.0,0.0,0.0,0.0,0.0,0.0,0.0,0.0,2.8259,2.7307,0.0,0.0,0.0,0.0,0.0,0.0,0.0,0.0,0.0,0.0,0.0,0.0,0.0,0.0,1.8185,1.7834,1.7253,1.644,1.6351,1.5956,1.54,1.54,1.5237,1.5068,1.5109,0.0,1.5122,1.5122,0.0,0.0,0.0,0.0,0.0,0.0,0.0,0.0,0.0,0.0,0.0,0.0,0.0,0.0,0.0,0.0,0.0,0.0,0.0,0.0,0.0,0.0,1.4088,1.4088,1.4088,1.4088,0.0,1.4088,1.3997,1.3737,0.0,0.0,0.0,0.0,0.0,0.0,0.0,0.0,0.9257,0.8815,0.8372,0.8065,0.7713,0.7401,0.7312,0.6912,0.6514,0.6251,0.5991,0.568,0.5238,0.5191,0.0,0.0,0.0,0.0,0.0,0.0,0.0,0.0,0.0,0.0,0.0,0.0,0.0,0.0,0.0,0.0,0.0,0.0,0.0,0.0,0.0,0.0,0.0,0.0,0.0,0.0,0.0,0.0,0.0,2.8717,2.7896,2.7064,2.6039,2.5187,0.0,0.0,0.0,0.0,0.0,0.0,0.0,0.0,0.0,2.0047,1.9529,1.9059,1.8689,1.817,1.7648,1.7072,1.6536,1.6139,1.5835,1.5575,1.527,1.4943,1.4943,1.4754,1.4539,1.4874,1.5008,1.5008,0.0,0.0,0.0,0.0,0.0,1.4716,1.4716,1.4522,0.0,0.0,0.0,0.0,0.0,0.0,0.0,0.0,0.0,0.0,0.0,0.0,0.0,1.4088,1.4088,1.4088,1.4088,1.4088,1.3997,0.0,1.3652,1.3392,1.279,0.0,0.0,0.0,0.0,1.025,1.0077,0.9641,0.9248,0.8863,0.864,0.8416,0.8149,0.7925,0.7709,0.7448,0.7316,0.7139,0.6779,0.6735,0.6735,0.0,0.0,0.0,0.0,0.0,0.0,0.0,0.0,0.0,0.0,0.0,0.0,0.0,0.0,0.0,0.0,0.0,0.0,0.0,0.0,0.0,0.0,0.0,0.0,0.0,0.0,0.0,0.0,2.8165,2.75,2.6698,2.5638,2.4775,0.0,0.0,0.0,0.0,0.0,0.0,2.138,2.0865,2.0518,2.0334,1.9692,1.9274,1.9081,1.8405,1.7902,1.7602,1.6812,1.6328,1.6111,1.5719,1.5301,1.4847,1.4847,1.4631,1.4284,1.4643,1.4787,1.4787,1.4787,1.4787,1.4787,1.4787,1.4603,1.4409,1.4409,1.4305,1.4166,1.4166,0.0,1.425,1.425,0.0,0.0,0.0,0.0,1.425,1.425,1.425,1.425,1.425,1.425,1.425,1.425,1.425,1.4166,0.0,1.3737,1.3519,1.3045,0.0,0.0,0.0,0.0,1.0982,1.0982,1.0554,1.0125,0.9777,0.9646,0.9428,0.9069,0.8986,0.8855,0.8596,0.8548,0.8456,0.8181,0.8137,0.8185,0.8269,0.0,0.0,0.0,0.0,0.0,0.0,0.0,0.0,0.0,0.0,0.0,0.0,0.0,0.0,0.0,0.0,0.0,0.0,0.0,0.0,0.0,0.0,0.0,0.0,0.0,0.0,0.0,0.0,0.0,2.6138,2.541,0.0,0.0,0.0,0.0,2.2523,2.2287,2.1812,2.0978,2.0918,2.0566,1.9938,1.9524,1.9207,1.9016,1.8334,1.7816,1.7409,1.6909,1.6366,1.5702,1.5529,1.5146,1.472,1.472,1.4706,1.4657,1.4284,1.4135,1.4135,1.4135,1.4135,1.4135,1.4135,1.4122,1.4108,1.4108,1.4257,1.4398,1.4398,1.4524,1.4657,1.4657,1.4657,0.0,0.0,1.4657,1.4657,1.4657,1.4657,1.4657,1.4657,1.4657,1.4657,1.4657,1.4657,1.4531,0.0,1.387,1.3695,1.3652,0.0,1.3052,1.3009,1.2406,1.1929,1.1929,1.137,1.0939,1.0939,1.0511,1.025,1.0207,1.0038,0.982,0.9559,0.9515,0.9423,0.9148,0.9148,0.9235,0.9492,0.9676,0.0,0.0,0.0,0.0,0.0,0.0,0.0,0.0,0.0,0.0,0.0,0.0,0.0,0.0,0.0,0.0,0.0,0.0,0.0,0.0,0.0,0.0,0.0,0.0,0.0,0.0,0.0,0.0,2.5961,2.5185,0.0,2.3677,2.3018,2.2478,2.2099,2.1638,2.1224,2.0899,2.0643,2.0418,2.0147,1.9863,1.9548,1.9192,1.8834,1.8353,1.7797,1.7351,1.6853,1.636,1.6147,1.5775,1.536,1.536,1.5276,1.5151,1.4873,1.4622,1.4496,1.4496,1.4496,1.4496,1.4496,1.4496,1.4496,1.4496,1.4531,1.4608,1.4783,1.4992,1.5151,1.5151,1.5151,1.5151,1.5151,1.5151,1.5151,1.5151,1.5151,1.5151,1.5151,1.5151,1.5151,1.5151,1.5151,1.511,1.4943,1.4615,1.4321,1.4188,1.4019,1.3808,1.3519,1.3137,1.2833,1.2705,1.2216,1.1775,1.1607,1.13,1.0999,1.0833,1.0751,1.0668,1.058,1.0585,1.0538,1.045,1.0409,1.0559,1.0879,1.0969,1.1261,0.0,0.0,0.0,0.0,0.0,0.0,0.0,0.0,0.0,0.0,0.0,0.0,0.0,0.0,0.0,0.0,0.0,0.0,0.0,0.0,0.0,0.0,0.0,0.0,0.0,0.0,2.6225,2.5708,2.4941,2.42,2.3482,2.2927,2.2365,2.1845,2.1436,2.1099,2.0906,2.0664,2.0459,2.042,2.0177,1.9902,1.9627,1.9271,1.8873,1.8434,1.7951,1.7514,1.7009,1.6845,1.6476,1.6031,1.6031,1.594,1.5816,1.5616,1.545,1.5235,1.4859,1.4692,1.4692,1.4692,1.4741,1.4866,1.4985,1.511,1.52,1.5458,1.565,1.5858,1.5858,1.5858,1.5858,1.5858,1.5858,1.5858,1.5858,1.5858,1.5858,1.5858,1.5858,1.5858,1.5858,1.5858,1.5858,1.5858,1.5276,1.4783,1.465,1.4566,1.444,1.4195,1.3904,1.3664,1.358,1.3038,1.2616,1.2447,1.2138,1.1874,1.1674,1.1588,1.1548,1.1548,1.1548,1.1588,1.1628,1.1628,1.1825,1.2161,1.2375,1.2808,1.3512,0.0,0.0,0.0,0.0,0.0,0.0,0.0,0.0,0.0,0.0,0.0,0.0,0.0,0.0,0.0,0.0,0.0,0.0,0.0,0.0,0.0,0.0,0.0,2.6236,2.6027,2.5758,2.5347,2.4838,2.4309,2.3677,2.3261,2.2703,2.1883,2.1807,2.154,2.0945,2.0906,2.0819,2.0605,2.0411,2.0303,2.0303,1.9666,1.9301,1.9301,1.8714,1.8193,1.774,1.7505,1.7188,1.673,1.673,1.673,1.673,1.6525,1.6435,1.6312,1.5193,1.4734,1.4734,1.4734,1.4908,1.5208,1.5575,1.5906,1.617,1.636,1.6566,1.673,1.673,1.673,1.673,1.673,1.673,1.673,1.673,1.673,1.673,1.673,1.673,1.673,1.673,1.673,1.673,1.6722,1.5891,1.5151,1.5117,1.4894,1.4845,1.5061,1.4618,0.0,1.45,1.3858,1.3429,1.3429,1.3087,1.2811,1.285,1.2606,1.2447,1.2441,1.2441,1.252,1.2725,1.2725,1.2916,1.3343,1.3943,1.4549,1.5117,0.0,0.0,0.0,0.0,0.0,0.0,0.0,0.0,0.0,0.0,0.0,0.0,0.0,0.0,0.0,0.0,0.0,0.0,0.0,0.0,0.0,0.0,2.6499,2.643,2.6236,2.598,2.5571,2.5241,2.479,2.4116,2.3666,2.3224,2.2703,2.2138,2.1731,2.154,2.1128,2.0867,2.0819,2.0615,2.045,2.0303,2.0108,1.9872,1.9518,1.9192,1.8825,1.8416,1.8233,1.7951,1.7627,1.7627,1.7627,1.7635,1.7261,1.7147,1.7017,1.6072,1.5707,1.5707,1.5707,1.5865,1.6072,1.6319,1.6689,1.7066,1.7106,1.7343,1.7627,1.7627,1.7627,1.7627,1.7627,1.7627,1.7627,1.7627,1.7627,1.7627,1.7627,1.7627,1.7627,1.7627,1.7627,1.7543,1.7267,1.686,1.6349,1.5761,1.5754,1.5622,1.51,1.5027,0.0,1.4795,1.4429,1.4191,1.4191,1.3797,1.3585,1.374,1.3548,1.3473,1.3622,1.3622,1.3659,1.3696,1.374,1.3843,1.4146,1.5145,1.5727,0.0,0.0,0.0,0.0,0.0,0.0,0.0,0.0,0.0,0.0,0.0,0.0,0.0,0.0,0.0,0.0,0.0,0.0,0.0,0.0,0.0,0.0,2.6705,2.6671,2.6589,2.6374,2.6097,2.5875,2.5535,2.5099,2.4575,2.4105,2.3641,2.315,2.2628,2.2138,2.1807,2.1474,2.1205,2.1022,2.0925,2.0731,2.0547,2.0459,2.0264,1.9872,1.9666,1.9381,1.9073,1.8953,1.8754,0.0,1.8554,1.8514,1.8393,1.8072,1.787,0.0,0.0,0.0,0.0,0.0,1.6738,1.6853,1.7139,1.7514,1.7838,1.791,1.8152,1.8434,1.8514,1.8554,1.8554,1.8554,1.8554,1.8554,1.8554,1.8554,1.8554,1.8554,1.843,1.8276,1.8276,1.8145,1.7921,1.7684,0.0,0.0,1.6571,1.6323,1.6076,1.5697,1.5593,1.5573,1.5519,1.5141,1.4935,1.4935,1.46,1.4446,1.4553,1.4446,0.0,0.0,0.0,1.4597,1.4669,1.4848,0.0,0.0,0.0,1.6829,1.694,0.0,0.0,0.0,1.709,1.7294,0.0,0.0,0.0,0.0,0.0,0.0,0.0,0.0,0.0,0.0,0.0,0.0,0.0,0.0,0.0,0.0,2.7024,2.6943,2.676,2.6465,2.6283,2.6213,2.5723,2.5312,2.5052,2.4575,2.4043,2.3446,2.3187,2.274,2.1997,0.0,0.0,0.0,0.0,2.1167,2.0984,2.077,2.0576,2.0381,2.0137,1.9902,1.9754,1.9715,1.9627,1.946,1.942,1.9311,1.9121,1.8904,1.8665,1.8393,1.7261,1.6853,1.6894,1.7392,1.7554,0.0,0.0,0.0,0.0,1.8745,1.8944,1.9112,1.9301,1.9381,1.942,1.942,1.942,1.945,1.9365,1.9356,1.9337,1.9291,1.9014,1.8756,1.8756,1.8432,1.8128,1.8082,1.8073,1.7908,1.737,1.6778,1.6371,1.6501,1.6269,1.6175,1.634,1.5949,1.5674,1.5674,0.0,0.0,1.5382,1.5382,1.5382,1.5382,1.5417,1.5524,1.5709,1.6061,1.6404,1.6675,1.7265,1.776,1.8154,1.8801,1.9265,1.9499,1.8416,1.8256,0.0,0.0,0.0,0.0,0.0,0.0,0.0,0.0,0.0,0.0,0.0,0.0,0.0,0.0,0.0,2.7268,2.7248,2.7167,2.6977,2.6875,2.6683,2.6248,2.6097,2.5828,2.53,2.4981,2.4635,2.408,2.3677,2.3261,2.2777,2.2478,0.0,2.1911,2.1617,2.1436,2.1397,2.1167,2.1051,2.1012,0.0,0.0,2.0634,2.0489,2.0411,2.0323,2.0177,2.0069,2.0029,1.9597,1.9311,1.9024,1.8112,1.7757,1.7797,1.8264,1.8465,1.8505,1.8904,1.9192,1.9359,1.9399,1.9557,1.9745,1.9784,1.9942,0.0,2.0108,2.0216,2.0246,1.9898,1.9773,1.9687,1.9293,1.9149,1.9101,1.9101,1.9033,1.887,1.8543,1.8475,1.8341,1.7927,1.7517,1.7099,1.6635,1.6669,1.6738,1.6773,1.6675,1.663,1.663,1.6438,1.6394,1.6551,1.6438,1.6394,1.6551,1.6716,1.689,1.7028,1.7107,1.7178,1.7253,1.7847,1.8432,1.9035,1.9664,2.0281,2.0818,1.9717,1.9481,0.0,0.0,0.0,0.0,0.0,0.0,0.0,0.0,0.0,0.0,0.0,2.8151,0.0,0.0,2.7987,2.7822,2.7809,2.7723,2.7436,2.7302,2.7032,2.6499,2.6349,2.6141,2.5793,2.5382,2.4981,2.4635,2.4261,2.3824,2.3335,2.3113,2.2815,2.2402,2.2214,2.1987,2.1807,2.1693,2.1617,2.1502,2.1415,2.1339,2.1339,2.1262,2.1185,2.1185,2.1002,2.0848,2.0741,2.0264,2.0059,1.9893,1.946,1.9024,1.8705,1.9033,1.9152,1.9192,1.9666,1.9872,1.999,2.0177,2.0323,2.0401,2.0527,2.0468,2.0407,2.0521,2.0428,2.0322,2.0166,2.0142,2.0082,1.9861,1.964,1.9434,1.9434,1.9299,1.9088,1.8901,1.8861,1.8791,1.858,1.8462,1.8178,1.7529,1.7545,1.7623,1.7672,1.7706,1.7706,1.7706,1.7594,1.7594,1.7706,1.7594,1.7594,1.7706,1.7808,1.7867,1.7944,1.8056,1.809,1.809,1.8789,1.943,2.0007,2.061,2.1246,2.1939,2.1385,2.1049,0.0,0.0,0.0,0.0,0.0,0.0,0.0,0.0,2.9275,2.9058,2.8912,2.8844,2.8812,2.878,2.8716,2.8495,2.8463,2.8333,2.802,2.7789,2.749,2.7019,2.6701,2.644,2.6258,2.5816,2.5406,2.5123,2.4826,2.4406,2.3849,2.3776,2.353,2.2964,2.2889,2.2703,2.2327,2.2289,2.2176,2.2025,2.2025,2.2025,2.2025,2.2025,2.2025,2.2025,2.1769,2.154,2.1282,2.0964,2.0838,2.0838,2.0838,2.0353,1.9662,1.9795,1.9872,1.9912,2.0342,2.044,2.0449,2.0786,2.0831,2.0847,2.1009,2.0805,2.0595,2.0769,2.0576,2.0339,2.0459,2.0463,2.0442,2.0348,2.0045,1.9774,1.9774,1.9515,1.9297,1.9297,1.933,1.9363,1.9363,1.9441,1.9309,1.8596,1.8539,1.8596,1.871,1.871,1.871,1.871,1.871,1.871,1.871,1.871,1.8744,1.8777,1.8777,1.8777,1.88,1.8988,1.9098,1.9098,1.9775,2.0368,2.0884,2.1521,2.2176,2.2896,2.3021,2.2654,3.2516,3.1921,3.1335,3.1116,3.0852,3.0614,0.0,0.0,3.0068,2.9747,2.9685,2.9637,2.9509,2.9477,2.9383,2.9067,2.9004,2.8908,2.8554,2.8346,2.8137,2.7875,2.7289,2.6794,2.6393,2.6311,2.6082,2.5571,2.5312,2.5016,2.4612,2.4467,2.42,2.3787,2.3604,2.3372,2.315,2.3001,2.2889,2.2852,2.2852,2.2852,2.2852,2.2852,2.2852,2.2852,2.2478,2.2063,2.1731,2.1693,2.1655,2.1655,2.1655,2.136,2.0893,2.0795,2.075,2.0789,2.1002,2.0943,2.0751,2.0788,2.0661,2.0468,2.0468,2.0591,2.0713,2.0835,2.097,2.1043,2.082,2.0769,2.0671,2.0237,2.0085,2.0053,2.0053,2.0009,2.0009,2.0009,2.0128,2.0258,2.0258,2.0366,2.0172,1.9309,1.933,1.9473,1.9473,1.9473,1.9473,1.9473,1.9473,1.9473,1.9473,1.9473,1.9539,1.9736,1.9736,1.9791,1.9901,2.0096,2.0226,2.0226,2.0433,2.0862,2.1498,2.2207,2.2914,2.3606,2.4187,2.3961,3.3261,3.2772,3.2379,3.2005,3.1807,3.1665,3.1378,3.1146,3.0955,3.0837,3.0554,3.0358,3.0312,3.0235,3.0083,0.0,2.973,2.9574,2.9324,2.8976,2.872,2.8638,2.8118,2.7556,2.6985,2.6714,2.6427,2.6082,2.5908,2.5664,2.5229,2.5182,2.4897,2.4371,2.4299,2.4093,2.3824,2.3751,2.3703,2.3703,2.3703,2.3703,2.3703,2.3703,2.3472,2.3022,2.2746,2.2292,2.1754,2.1656,2.162,2.162,2.162,2.1502,2.1314,2.1069,2.0856,2.0632,2.0837,2.0897,2.0865,2.1009,2.1051,2.1023,2.1023,2.0981,2.0973,2.111,2.1072,2.1041,2.1038,2.1047,2.099,2.0788,2.0732,2.0732,2.0732,2.0784,2.0848,2.0848,2.0996,2.1092,2.1092,2.125,2.125,2.0962,2.0613,2.0388,2.0518,2.0518,2.0518,2.0518,2.0603,2.0656,2.0656,2.0709,2.0805,2.0869,2.0901,2.0901,2.0985,2.1049,2.1092,2.1092,2.1345,2.1759,2.2362,2.2855,2.3397,2.3997,2.43,2.4434,3.3987,3.364,3.3387,3.298,3.2738,3.2547,3.2312,3.2061,3.1836,3.1766,3.148,3.1219,3.1073,3.097,3.0836,3.0613,3.0463,3.0267,3.0115,2.9668,2.9369,2.9369,2.8881,2.8333,2.7855,2.7255,2.685,2.6667,2.6474,2.6198,2.5921,2.5816,2.5523,2.5052,2.4981,2.4802,2.4514,2.4503,2.4445,2.4269,2.4269,2.4223,2.4048,2.4048,2.3745,2.3178,2.3015,2.2579,2.2012,2.1896,2.1827,2.1792,2.1792,2.1715,2.1579,2.1392,2.1072,2.074,2.0903,2.0994,2.1051,2.1259,2.1379,2.1439,2.1439,2.1319,2.1195,2.137,2.1305,2.121,2.1411,2.1486,2.1486,2.1486,2.1506,2.1537,2.1537,2.1651,2.1721,2.1721,2.1846,2.197,2.2021,2.2187,2.2372,2.25,2.2021,2.1628,2.1577,2.1588,2.1588,2.1588,2.1659,2.1721,2.1721,2.1803,2.1896,2.1896,2.1896,2.1896,2.1896,2.1849,2.1856,2.1856,2.2109,2.25,2.295,2.3218,2.3531,2.3928,2.4633,2.5365,3.4864,3.448,3.4136,3.4059,3.361,3.315,3.315,3.2964,3.2695,3.2437,3.237,3.2203,3.1752,3.1682,3.1596,3.1307,3.1087,3.094,3.0807,3.0372,3.0068,3.0068,2.9495,2.9067,0.0,2.8085,2.7436,2.7268,2.6897,2.6692,2.6692,2.6371,2.6094,2.5875,2.5676,2.5465,2.5276,2.5276,2.5012,2.4474,2.4474,2.421,2.3718,2.3718,2.3606,2.337,2.337,2.3157,2.2763,2.2752,2.2696,2.2571,2.2571,2.2296,2.1884,2.1874,2.1688,2.149,2.1607,2.1517,2.1308,2.1508,2.1411,2.1204,2.1204,2.1276,2.1411,2.1643,2.1776,2.192,2.2123,2.2154,2.2154,2.2154,2.2278,2.2359,2.2359,2.2476,2.2561,2.2561,2.272,2.2896,2.3027,2.3215,2.339,2.3518,2.3535,2.3297,2.2622,2.2573,2.2573,2.2573,2.2561,2.2561,2.2561,2.2573,2.2561,2.2561,2.2561,2.2561,2.2561,2.2504,2.2461,2.2461,2.2625,2.2828,2.3103,2.3113,2.3135,2.3185,2.5743,2.7338,3.5649,3.5334,3.5028,3.4666,3.4407,3.421,3.3968,3.379,3.3601,3.3314,3.3087,3.2846,3.2477,3.2367,3.2244,3.2064,3.1824,3.1668,3.1596,3.1087,3.0703,3.0703,3.016,0.0,0.0,0.0,0.0,2.7776,2.7543,2.7323,2.71,2.6985,2.6794,2.6452,2.6371,2.6058,2.5506,2.5506,2.5222,2.4633,2.4633,2.4534,2.4349,2.4349,2.4119,2.3722,2.3626,2.3323,2.2868,2.2718,2.2642,2.2611,2.2611,2.2503,2.2359,2.2359,2.2309,2.2165,2.1661,2.159,2.1707,2.1771,2.1836,2.1874,2.1987,2.2099,2.2242,2.2439,2.258,2.2702,2.2775,2.2909,2.3012,2.3012,2.3108,2.3203,2.3203,2.331,2.3446,2.3577,2.3725,2.3884,2.4018,2.4089,2.4218,2.4494,2.3989,2.3518,2.3297,2.3267,2.3267,2.3267,2.3446,2.3607,2.3607,2.3771,2.3859,2.3859,2.3693,2.3596,2.3596,2.3354,2.3315,2.3564,2.3605,2.3874,2.4357,2.4498,2.4702,2.4996,2.5855,2.7065,3.6378,3.6079,3.5832,3.5419,3.5214,3.5021,3.4754,3.4554,3.4374,3.405,3.3806,3.3543,3.3177,3.306,3.2926,3.2753,3.248,3.2302,3.2302,3.1752,3.1365,3.1365,3.0792,3.0418,0.0,0.0,0.0,2.843,2.8203,2.7954,2.7656,2.759,2.7423,2.7108,2.6814,2.6445,2.5955,2.5752,2.5325,2.4766,2.4594,2.4493,2.4493,2.4493,2.4302,2.3959,2.388,2.3616,2.3215,2.3088,2.2985,2.2967,2.2967,2.2967,2.2967,2.2967,2.2985,2.2925,2.2187,2.2075,2.2261,2.2322,2.2439,2.2543,2.2726,2.2836,2.2975,2.3185,2.3335,2.3454,2.3454,2.3586,2.3704,2.3704,2.3868,2.4031,2.4031,2.4163,2.4337,2.4478,2.4609,2.4766,2.4978,2.5077,2.5217,2.5425,2.4951,2.4483,2.4253,2.4224,2.4224,2.4224,2.4452,2.4567,2.4567,2.4709,2.4851,2.4908,2.459,2.4453,2.4523,2.4043,2.388,2.4099,2.4914,2.5647,2.6217,2.6157,2.6241,2.6523,2.6608,2.7411,3.7017,3.6736,3.6523,3.6364,3.5985,3.5633,3.5492,3.5281,3.5041,3.4618,3.4546,3.4374,0.0,0.0,3.3642,3.3372,3.306,3.2841,3.2841,3.237,3.2038,0.0,0.0,0.0,0.0,0.0,0.0,2.9257,0.0,2.8541,2.8352,2.817,2.796,2.7802,2.7052,2.6627,2.6575,2.5981,2.5419,2.49,2.438,2.416,2.416,2.416,2.416,2.416,2.416,2.4031,2.3859,2.3859,2.3771,2.3666,2.3666,2.3666,2.3666,2.3666,2.3754,2.3771,2.3215,2.3,2.3,2.3108,2.3168,2.3198,2.339,2.3539,2.3704,2.3813,2.3989,2.416,2.4147,2.4263,2.435,2.4379,2.4622,2.4863,2.4863,2.5061,2.5244,2.5272,2.5398,2.5605,2.5907,2.619,2.6363,2.6363,2.639,2.6176,2.5536,2.5453,2.5453,2.5453,2.5481,2.5481,2.5481,2.5481,2.5536,2.5673,2.5301,2.5176,2.5368,2.468,2.4298,2.4352,2.6545,2.7909,2.8381,2.7894,2.7646,2.7647,2.7912,2.8355,3.7577,3.7299,3.7048,3.6799,3.6536,3.6305,3.6114,3.5915,3.5667,3.5264,3.5118,3.4923,3.4399,3.43,0.0,3.3949,3.3668,0.0,3.3471,3.298,0.0,3.2602,0.0,3.1754,3.1754,3.1146,0.0,0.0,2.9806,2.9226,2.8894,2.883,2.8466,2.7687,2.7449,2.6952,2.6109,2.5488,2.5112,2.4964,2.4845,2.4765,2.4765,2.4765,2.4765,2.4765,2.4765,2.4736,2.4694,2.4694,2.4679,2.465,2.465,2.465,2.465,2.465,2.4666,2.4679,2.4507,2.416,2.3809,2.3839,2.3914,2.4031,2.4176,2.4334,2.452,2.465,2.4736,2.4793,2.4878,2.5034,2.5161,2.53,2.555,2.5784,2.5784,2.5907,2.6082,2.627,2.6522,2.6718,2.6912,2.7067,2.7236,2.7312,2.7439,2.7144,2.6188,2.6149,2.6229,2.6229,2.6402,2.6534,2.6534,2.6613,2.6692,2.6718,2.6428,2.6289,2.633,2.6567,2.7045,2.7809,2.8408,2.8581,2.8339,2.8183,2.8131,2.8128,2.8185,2.8425,3.8051,3.7792,3.7539,3.7374,3.711,3.6853,3.6615,3.6409,3.6152,3.5739,3.5577,3.5389,3.4947,3.4804,3.4683,0.0,0.0,0.0,3.3975,3.3523,3.3193,0.0,3.2683,0.0,3.2342,3.1781,3.1452,0.0,3.0568,2.9898,2.9651,2.9557,2.9108,2.8204,2.7837,2.709,2.5907,2.5563,2.5397,2.5397,2.5397,2.5397,2.5397,2.5397,2.5397,2.5397,0.0,2.5397,2.5397,2.5397,2.5397,2.5397,2.5397,2.5397,2.5397,2.5397,2.5397,2.5397,2.5453,2.5272,2.4921,2.4679,2.4637,2.4736,2.495,2.5104,2.523,2.537,2.5453,2.5508,2.5591,2.5729,2.5933,2.6096,2.6297,2.6457,2.6525,2.668,2.6901,2.7159,2.7439,2.765,2.7725,2.7898,2.8061,2.8134,2.8207,2.8046,2.75,2.7246,2.7133,2.7185,2.7338,2.7464,2.75,2.7575,2.764,2.7715,2.752,2.7365,2.7275,2.7718,2.8425,2.9434,2.9335,2.9109,2.8779,2.8673,2.8684,2.8748,2.8818,2.8919,3.8481,3.8206,3.7951,3.7934,3.7649,3.7298,3.7054,3.6818,3.6553,3.6152,3.5954,3.5773,3.5389,3.5228,3.5088,3.4828,0.0,3.4521,3.4399,3.405,3.3797,3.3771,3.3272,3.2938,3.2938,3.2425,3.2122,3.2122,3.1336,3.0717,3.0447,3.024,2.9671,2.8764,2.7979,2.7046,2.6016,2.6002,2.6002,2.6002,2.6002,2.6002,2.6002,2.6015,2.6015,2.6015,0.0,0.0,2.6069,2.6069,2.6069,2.6069,2.6069,2.6069,2.6069,2.6069,2.6069,2.6084,2.6192,2.6245,2.6123,2.555,2.5356,2.5411,2.5729,2.5825,2.5879,2.5988,2.6123,2.6245,2.6272,2.6445,2.6642,2.6814,2.6956,2.7097,2.7225,2.7489,2.7765,2.7997,2.8264,2.8448,2.8456,2.8662,2.8826,2.885,2.885,2.8896,2.902,2.8472,2.811,2.8247,2.8271,2.8328,2.8448,2.8472,2.8519,2.863,2.852,2.8396,2.8218,2.8467,2.9022,2.9871,2.9681,2.9555,2.9506,2.93,2.9296,2.9448,2.956,2.9649,3.8689,3.8453,3.8206,3.8086,3.7915,3.7739,3.754,3.7242,3.6915,3.6571,3.6343,3.6067,3.5622,3.5532,3.5441,3.5245,3.5088,3.4947,3.4811,3.4546,3.4325,0.0,3.3822,3.3523,3.3523,3.3007,0.0,0.0,0.0,3.1809,3.1161,3.047,2.9448,2.7947,2.7241,2.6767,2.6551,2.6551,2.6551,2.6551,2.6551,2.6551,2.6578,2.668,2.6733,2.6718,0.0,0.0,2.689,2.689,2.689,2.689,2.689,2.689,2.689,2.689,2.689,2.689,2.6916,2.6916,2.6837,2.6283,2.6176,2.6297,2.6351,2.6522,2.6707,2.6718,2.6837,2.6956,2.7115,2.7207,2.731,2.7549,2.771,2.787,2.8061,2.8376,2.8701,2.8865,2.902,2.9182,2.9348,2.9416,2.9483,2.9595,2.97,2.9782,2.982,2.9257,2.8935,2.9082,2.9182,2.9273,2.9296,2.9296,2.9296,2.9335,2.935,2.9373,2.9325,2.9534,2.9704,2.983,2.9996,3.0053,2.9977,2.9896,2.9941,3.014,3.0161,3.0225,3.8851,3.8658,3.8485,3.835,3.8153,3.7967,3.7845,3.7595,3.7261,3.6915,3.6635,3.6364,3.6023,3.5822,3.5661,3.5481,3.5383,3.5268,3.5128,3.4947,3.4763,3.4618,3.4325,3.4101,3.4025,3.3575,0.0,0.0,0.0,3.2563,3.1894,3.0691,2.9456,2.8169,2.7491,2.7178,2.7178,2.7229,2.7255,2.728,2.7302,2.7312,2.7312,2.7373,2.7424,2.7424,2.7489,0.0,2.7515,2.7515,2.7515,2.7515,2.7515,2.7515,2.7515,2.7515,2.7515,2.754,2.7645,2.7685,2.7645,2.7489,2.7261,2.7045,2.7137,2.7276,2.7424,2.7424,2.7555,2.7685,2.779,2.79,2.8033,2.8204,2.847,2.8716,2.8889,2.9097,2.9319,2.9522,2.9671,2.9804,2.9946,3.0011,3.0092,3.0156,3.0279,3.038,3.041,3.0225,3.0032,2.9837,2.9881,2.9984,3.0108,3.013,3.0135,3.0182,3.0199,3.0199,3.0182,3.01,3.0121,3.0316,3.057,3.0634,3.041,3.0489,3.0572,3.0658,3.074,3.0797,3.895,3.8807,3.8689,3.8525,3.8332,3.8152,3.8052,3.7845,3.7558,3.7242,3.6913,3.6612,3.6385,3.6105,3.5844,3.5667,3.5611,3.5514,3.536,3.5245,3.5152,3.4994,3.4763,0.0,3.4448,3.4101,0.0,0.0,0.0,0.0,3.2145,3.0872,2.9661,2.8533,2.8047,2.7775,2.7785,2.79,2.7974,2.7999,2.8052,2.807,2.807,2.811,2.8094,2.8134,2.8134,0.0,0.0,2.8158,2.8158,2.8158,2.8158,2.8158,2.8158,2.8158,2.8158,2.8183,2.8341,2.8389,2.8414,2.8598,2.8231,2.7755,2.7934,2.8042,2.8094,2.8094,2.8238,2.8389,2.8389,2.8518,2.8716,2.8858,2.9198,2.9515,2.9627,2.9738,2.9875,3.013,3.0258,3.0363,3.0477,3.0576,3.0654,3.0675,3.0794,3.0898,3.0965,3.1098,3.1038,3.0686,3.0563,3.0601,3.0797,3.0838,3.0898,3.0945,3.0945,3.0928,3.0858,3.063,3.0647,3.0982,3.1156,3.1156,3.0985,3.1078,3.1154,3.1173,3.1288,3.1327,3.895,3.8851,3.8728,3.8556,3.8494,3.8396,3.8152,3.7984,3.7793,3.7448,3.7164,3.6851,3.6544,3.636,3.6152,3.5839,3.5773,3.5701,3.5514,3.5469,3.5423,3.5268,0.0,0.0,3.4875,3.4594,0.0,0.0,0.0,0.0,3.1228,3.0879,3.0058,2.8554,2.8387,2.8356,2.8415,2.8431,2.8487,2.863,2.8614,2.8638,2.8638,2.8748,2.8811,2.8811,0.0,0.0,0.0,2.8982,2.8982,2.8982,2.8982,2.8982,2.8982,2.8982,2.8982,2.8982,2.9006,2.9006,2.9029,2.9175,2.8858,2.8439,2.8567,2.8701,2.8811,2.8811,2.892,2.9006,2.9006,2.9121,2.9266,2.9477,2.9826,3.0124,3.0124,3.0279,3.0489,3.0683,3.0744,3.0804,3.1075,3.1131,3.1154,3.1235,3.1351,3.1447,3.1523,3.1653,3.1746,3.1748,3.143,3.1218,3.1237,3.1351,3.1428,3.1428,3.1428,3.1428,3.1428,3.1464,3.1498,3.1515,3.1498,3.1606,3.1891,3.1646,3.1615,3.1726,3.1744,3.1744,3.8983,3.8881,3.8822,3.8655,3.8559,3.8444,3.83,3.8153,3.795,3.7631,3.7373,3.7105,3.6849,3.6527,3.6259,3.611,3.5932,3.5773,3.5701,3.5594,3.5543,3.5446,3.536,0.0,0.0,0.0,0.0,0.0,0.0,0.0,3.1988,3.1518,3.0568,2.9021,2.8889,2.8865,2.8974,2.9067,2.9159,2.9257,2.9309,2.9355,2.9355,2.9416,2.9438,2.9438,2.9499,0.0,0.0,2.9522,2.9522,2.9522,2.9522,2.9522,2.9522,2.9522,2.9522,2.9522,2.9522,2.9522,2.956,2.976,2.9694,2.9499,2.9303,2.9325,2.9438,2.9438,2.9477,2.9538,2.9621,2.9766,2.9946,3.0092,3.0368,3.0555,3.0555,3.0757,3.0975,3.1179,3.1218,3.1276,3.1521,3.1557,3.1578,3.1656,3.1784,3.1893,3.1965,3.2037,3.2144,3.2249,3.1894,3.1711,3.1839,3.1893,3.193,3.1984,3.1984,3.1984,3.1984,3.2054,3.2089,3.2089,3.2089,3.2177,3.23,3.2073,3.202,3.2109,3.2143,3.2143,3.8997,3.891,3.8866,3.8719,3.8624,3.8544,3.8446,3.8285,3.8103,3.788,3.7595,3.7334,3.7124,3.6771,3.6468,3.6322,3.6105,3.5927,3.5883,3.5778,3.5706,3.5588,0.0,3.552,0.0,0.0,0.0,0.0,0.0,0.0,0.0,3.2243,3.123,2.9563,2.938,2.9357,2.9509,2.9605,2.9716,2.9832,2.9919,2.9984,3.0006,3.0006,3.0006,3.0006,0.0,0.0,0.0,3.0006,3.0006,3.0006,3.0006,3.0006,3.0006,3.0006,3.0006,3.0006,3.0006,3.0006,3.0049,3.03,3.0384,3.0342,3.0135,3.0032,3.0006,3.0006,3.0049,3.0092,3.0215,3.0368,3.0555,3.0716,3.0882,3.1004,3.1024,3.1215,3.1443,3.1653,3.1673,3.1746,3.1929,3.1947,3.1984,3.2091,3.2197,3.2301,3.2387,3.2455,3.2539,3.2655,3.242,3.2283,3.2353,3.237,3.2439,3.2471,3.2489,3.2489,3.2489,3.2506,3.2558,3.2558,3.2594,3.2611,3.2611,3.2489,3.2453,3.2471,3.2487,3.2504,3.8997,3.891,3.8866,3.8719,3.8707,3.8658,3.8525,3.8385,3.8256,3.8118,3.7827,3.7539,3.7334,3.7124,3.6831,3.6385,3.6301,3.6216,3.6019,3.5997,3.5949,0.0,0.0,3.5723,0.0,0.0,0.0,0.0,0.0,0.0,0.0,3.2956,3.2012,3.0065,2.9853,2.987,2.9995,2.9995,3.0124,3.0396,3.0396,3.0422,3.0489,3.0489,3.0489,0.0,0.0,0.0,0.0,3.0489,3.0489,3.0489,3.0489,3.0489,3.0489,3.0489,3.0489,3.0489,3.0489,3.0489,3.0531,3.0723,3.0788,3.0845,3.1095,3.0855,3.0489,3.0489,3.0589,3.0712,3.0764,3.0882,3.1055,3.1237,3.1389,3.1504,3.1579,3.1709,3.1838,3.2055,3.209,3.2144,3.2266,3.2301,3.2352,3.2555,3.2588,3.2672,3.2868,3.29,3.2948,3.307,3.3086,3.2975,3.2718,3.2818,3.29,3.29,3.29,3.29,3.29,3.29,3.29,3.29,3.29,3.29,3.29,3.2969,3.2969,3.29,3.2751,3.2811,3.8964,3.891,3.8866,3.8719,3.8707,3.8658,3.8525,3.8462,3.8366,3.8152,3.7984,3.781,3.754,3.7279,3.6992,3.6811,3.6509,3.628,0.0,0.0,0.0,3.5932,3.5949,3.5927,0.0,0.0,0.0,0.0,0.0,0.0,0.0,3.2828,3.1859,3.0518,3.0342,3.0342,3.0485,3.0485,3.0568,3.0749,3.0749,3.0773,3.0855,3.0855,0.0,0.0,0.0,0.0,0.0,3.0875,3.0855,3.0834,3.0794,3.0773,3.0773,3.0773,3.0794,3.0855,3.0855,3.0895,3.0995,3.11,3.1198,3.1295,3.1428,3.1252,3.0995,3.1021,3.1157,3.1254,3.1334,3.1447,3.1578,3.1674,3.182,3.1929,3.2001,3.2073,3.2214,3.2404,3.2438,3.2506,3.2672,3.2705,3.277,3.293,3.2945,3.3008,3.3229,3.3244,3.3286,3.3415,3.343,3.3371,3.3196,3.3211,3.3244,3.3244,3.3244,3.3244,3.3244,3.3244,3.3244,3.3244,3.3286,3.3316,3.3316,3.3324,3.339,3.3513,3.3383,3.3372,3.8921,3.8881,3.8837,3.8738,3.8707,3.8673,3.859,3.8544,3.8444,3.8283,3.8135,3.7984,3.7792,3.7485,3.7242,3.7126,3.6811,3.655,0.0,0.0,0.0,3.6191,0.0,0.0,0.0,0.0,0.0,0.0,0.0,0.0,0.0,3.296,3.2091,3.1151,3.0895,3.0814,3.0892,3.0892,3.0935,3.1055,3.1055,3.1114,3.1215,3.1215,0.0,0.0,0.0,0.0,0.0,3.1271,3.1213,3.119,3.1151,3.1131,3.1131,3.1131,3.1151,3.119,3.1232,3.1291,3.1387,3.1542,3.1693,3.1803,3.184,3.1654,3.1426,3.1506,3.1618,3.1728,3.1802,3.1911,3.202,3.2126,3.2232,3.2318,3.2456,3.2489,3.2573,3.2721,3.277,3.285,3.3011,3.3057,3.3135,3.3268,3.3283,3.3342,3.3534,3.3549,3.3605,3.3739,3.3753,3.3739,3.3698,3.3619,3.3549,3.3549,3.3549,3.3549,3.3549,3.3549,3.3563,3.3591,3.3633,3.3657,3.3684,3.3689,3.3766,3.3899,3.3844,3.3865,0.0,3.8851,3.8777,3.8723,3.8707,3.8707,3.8707,3.8609,0.0,3.851,3.83,3.8101,3.8018,3.781,3.7558,3.7353,3.7163,3.6987,0.0,3.6766,0.0,0.0,0.0,0.0,0.0,0.0,0.0,0.0,0.0,0.0,0.0,3.3287,3.2545,3.1854,3.1464,3.1269,3.1249,3.1249,3.1271,3.1334,3.1334,3.1447,3.1635,3.1635,0.0,0.0,0.0,0.0,0.0,3.1635,3.1596,3.1536,3.1517,3.1517,3.1517,3.1517,3.1517,3.1555,3.1615,3.1635,3.1691,3.2037,3.2214,3.2335,3.2335,3.2109,3.1838,3.193,3.2037,3.2144,3.2232,3.2301,3.2386,3.2589,3.2639,3.2688,3.29,3.2932,3.2963,3.3011,3.3088,3.318,3.3307,3.3382,3.3466,3.3605,3.3633,3.3671,3.3788,3.3834,3.3868,3.4011,3.4036,3.4086,3.4221,3.3985,3.3815,3.3815,3.3815,3.3815,3.3815,3.3829,3.3855,3.3921,3.3934,3.3972,3.4049,3.4049,3.4074,3.4136,3.4136,3.4265,3.8822,0.0,3.8777,3.8723,3.8707,3.8707,0.0,3.8692,3.8624,3.8525,3.8462,3.8332,3.8118,3.7984,3.7827,3.7631,3.7392,3.722,3.7182,0.0,0.0,3.6888,0.0,0.0,0.0,0.0,0.0,0.0,0.0,0.0,0.0,3.321,3.2354,3.2197,3.2091,3.193,3.167,3.167,3.167,3.1671,3.1671,3.1783,3.1983,3.1983,0.0,0.0,0.0,0.0,3.2055,3.2001,3.1912,3.1802,3.1746,3.1726,3.1726,3.1726,3.1764,3.182,3.1947,3.2019,3.2108,3.2387,3.2538,3.262,3.2737,3.2506,3.2214,3.2386,3.2454,3.2522,3.2688,3.2755,3.2802,3.2945,3.2993,3.3039,3.3244,3.3289,3.3304,3.336,3.339,3.3448,3.3591,3.3633,3.3671,3.382,3.3868,3.3934,3.4023,3.4074,3.4161,3.4293,3.4305,3.4351,3.4495,3.4257,3.4111,3.4111,3.4111,3.4111,3.4111,3.4161,3.4185,3.4209,3.4305,3.4386,3.4461,3.4461,3.4473,3.4484,3.4484,3.4547,3.8747,3.8747,3.875,3.8723,3.8707,3.8707,3.8707,3.8707,3.8673,3.8609,3.8525,3.8462,3.8316,3.8152,3.8018,3.7897,3.7649,0.0,0.0,0.0,3.7279,0.0,0.0,0.0,0.0,0.0,0.0,0.0,0.0,0.0,0.0,3.3318,3.2472,3.254,3.254,3.237,3.202,3.202,3.202,3.202,3.202,3.2126,3.2318,3.2318,3.2421,0.0,0.0,0.0,3.237,3.2335,3.2232,3.2073,3.2037,3.202,3.202,3.202,3.2055,3.2109,3.2266,3.2421,3.2607,3.277,3.2898,3.2993,3.3088,3.2995,3.2818,3.2816,3.2834,3.2882,3.3073,3.3119,3.3168,3.3271,3.3268,3.3331,3.3506,3.3534,3.3549,3.3615,3.3657,3.3712,3.3815,3.3855,3.3934,3.4061,3.4136,3.4209,3.4269,3.434,3.442,3.4561,3.4572,3.4645,3.473,3.4588,3.4469,3.4386,3.4374,3.4374,3.4374,3.445,3.4487,3.4524,3.4628,3.4691,3.474,3.474,3.474,3.474,3.474,3.4781,3.8707,3.8707,3.8707,3.8707,3.8707,3.8707,3.8707,3.8707,3.8707,3.8707,3.8609,3.8525,3.8491,3.8316,0.0,3.8152,0.0,0.0,3.7685,3.7685,3.7685,0.0,0.0,0.0,0.0,0.0,0.0,0.0,0.0,0.0,0.0,3.3503,3.2721,3.2838,3.2838,3.2706,3.242,3.2403,3.2386,3.2386,3.2386,3.2506,3.2655,3.2655,3.2753,0.0,0.0,0.0,3.2655,3.2655,3.2538,3.2386,3.2386,3.2386,3.2386,3.2386,3.2386,3.242,3.2605,3.285,3.3088,3.3132,3.3241,3.3382,3.3422,3.3452,3.3437,3.3268,3.3208,3.3223,3.3404,3.3466,3.3481,3.3549,3.3563,3.3605,3.3739,3.3766,3.378,3.386,3.3908,3.3972,3.4049,3.4111,3.4185,3.4328,3.4521,3.4652,3.4727,3.4905,3.5066,3.5206,3.5217,3.5238,3.5315,3.5325,3.5258,3.5087,3.4932,3.4891,3.5034,3.5105,3.5159,3.5239,3.5306,3.5334,3.5325,3.5325,3.5325,3.5325,3.5325,3.539,3.8707,3.8707,3.8707,3.8707,3.8707,3.8707,3.8707,3.8707,3.8707,3.8707,3.8673,3.8624,3.8525,3.8478,3.843,0.0,0.0,3.8154,0.0,0.0,0.0,0.0,0.0,0.0,0.0,0.0,0.0,0.0,0.0,0.0,0.0,0.0,3.3039,3.3055,3.3055,3.3024,3.2993,3.2866,3.2802,3.2802,3.2802,3.285,3.2932,3.2932,3.2995,0.0,0.0,3.3026,3.2932,3.2932,3.2884,3.2802,3.2802,3.2802,3.2802,3.2802,3.2802,3.2818,3.2977,3.3193,3.3419,3.3452,3.3534,3.3629,3.3643,3.3684,3.3753,3.3775,3.3638,3.3545,3.3698,3.3739,3.3766,3.3815,3.3829,3.3868,3.4011,3.4036,3.4061,3.4124,3.4148,3.4197,3.4316,3.434,3.4386,3.4528,3.5249,3.5757,3.5775,3.6465,3.6992,3.7071,3.71,3.7138,3.727,3.7279,3.7269,3.723,3.6435,3.629,3.7013,3.7061,3.7129,3.7242,3.7251,3.7259,3.7274,3.7274,3.7274,3.7274,3.7274,3.732,3.8707,3.8707,3.8707,3.8707,3.8707,3.8707,3.8707,3.8707,3.8707,3.8707,3.8707,3.8673,3.8624,0.0,3.8478,3.8415,0.0,0.0,0.0,0.0,0.0,0.0,0.0,0.0,0.0,0.0,0.0,0.0,0.0,0.0,0.0,0.0,3.3271,3.3316,3.3331,3.3327,3.3371,3.3313,3.3226,3.3106,3.3106,3.3168,3.3271,3.3271,3.3316,3.3371,0.0,3.3345,3.3271,3.3271,3.3226,3.3183,3.3183,3.3183,3.3183,3.3183,3.318,3.3241,3.3327,3.3473,3.3633,3.3684,3.3766,3.3815,3.3895,3.3934,3.3985,3.4136,3.3998,3.3829,3.3934,3.3985,3.4023,3.4049,3.4061,3.4099,3.4233,3.4257,3.4423,3.4958,3.5056,3.5259,3.5852,3.5968,3.5993,3.6092,3.6515,3.6822,3.6871,3.7262,3.7585,3.7649,3.7658,3.7695,3.7802,3.7802,3.7774,3.77,3.7268,3.7203,3.763,3.7658,3.7703,3.7802,3.7802,3.7819,3.7806,3.7806,3.7814,3.7811,3.7811,3.7832,3.8707,3.8707,3.8707,3.8707,3.8707,3.8707,3.8707,3.8707,3.8707,3.8707,3.8707,3.8707,0.0,3.8609,0.0,3.8481,3.8481,0.0,0.0,0.0,0.0,0.0,0.0,0.0,0.0,0.0,0.0,0.0,0.0,0.0,0.0,0.0,3.3466,3.352,3.352,3.3549,3.3605,3.3605,3.352,3.3367,3.3367,3.3422,3.352,3.352,3.3549,3.3605,3.3605,3.3577,3.352,3.352,3.3477,3.3452,3.3466,3.3481,3.3477,3.3477,3.3534,3.3605,3.3671,3.3739,3.3802,3.3934,3.3985,3.4023,3.4136,3.4185,3.4233,3.4386,3.4316,3.4197,3.4209,3.4257,3.4293,3.4293,3.4442,3.4608,3.4753,3.4926,3.5289,3.6031,3.6177,3.6416,3.7211,3.7345,3.7368,3.7461,3.769,3.789,3.7937,3.8173,3.836,3.8391,3.8399,3.8435,3.8503,3.8519,3.8465,3.8369,3.8163,3.8136,3.8399,3.8399,3.8443,3.85,3.85,3.8516,3.8531,3.8531,3.8535,3.8565,3.8565,3.859,3.8707,3.8707,3.8707,3.8707,3.8707,3.8707,3.8707,3.8707,3.8707,3.8707,3.8707,3.8707,0.0,3.8692,3.8673,3.8692,0.0,0.0,0.0,0.0,0.0,0.0,0.0,0.0,0.0,0.0,0.0,0.0,0.0,0.0,0.0,0.0,0.0,3.3591,3.3591,3.3605,3.3605,3.3605,3.3591,3.3577,3.3577,3.3591,3.3591,3.3591,3.3605,3.3605,3.3605,3.3605,3.3591,3.3591,3.3591,3.3591,3.3643,3.3712,3.378,3.378,3.3802,3.3868,3.3947,3.4023,3.4086,3.4161,3.4221,3.4281,3.4351,3.4409,3.4484,3.4561,3.4655,3.4708,3.4602,3.458,3.4561,3.4561,3.5135,3.5713,3.587,3.6513,3.7122,3.7256,3.7287,3.7335,3.747,3.7499,3.7528,3.7661,3.8373,3.8915,3.8978,3.9702,4.0206,4.0215,4.0215,4.0232,4.0301,4.0311,4.0342,4.0392,3.9522,3.9352,4.0177,4.0215,4.0238,4.0315,4.0315,4.0334,4.0407,4.0407,4.044,4.0494,4.0494,4.0494,3.8707,3.8707,3.8707,3.8707,3.8707,3.8707,3.8707,3.8707,3.8707,3.8707,3.8707,0.0,0.0,0.0,3.878,3.8825,0.0,0.0,0.0,0.0,0.0,0.0,0.0,0.0,0.0,0.0,0.0,0.0,0.0,0.0,0.0,0.0,0.0,3.3842,3.3842,3.3842,3.3842,3.3842,3.3842,3.386,3.3726,3.3712,3.3793,3.3793,3.382,3.3842,3.3842,3.3842,3.3842,3.3842,3.3842,3.3873,3.3921,3.3959,3.3985,3.4036,3.4061,3.4099,3.4209,3.4269,3.4305,3.4397,3.4473,3.4506,3.4623,3.4666,3.4821,3.5472,3.5684,3.5684,3.5533,3.5524,3.5727,3.6209,3.6568,3.6816,3.6907,3.7192,3.7601,3.8223,3.8337,3.8528,3.9146,3.9232,3.927,3.9371,3.9665,3.9883,3.9953,4.0257,4.0466,4.046,4.0503,4.0519,4.0562,4.0561,4.0571,4.0605,4.0231,4.0189,4.0519,4.0519,4.0534,4.0571,4.0571,4.0593,4.0661,4.0661,4.0701,4.0756,4.0756,4.0784,3.8707,3.8707,3.8707,3.8719,3.8735,3.8735,3.8765,3.8719,3.8707,3.8719,3.875,3.878,3.8822,0.0,0.0,0.0,0.0,0.0,0.0,0.0,0.0,0.0,0.0,0.0,0.0,0.0,0.0,0.0,0.0,0.0,0.0,0.0,0.0,0.0,3.4061,3.4061,3.4061,3.4061,3.4061,3.4061,3.3921,3.3881,3.3934,3.3934,3.3972,3.4036,3.4036,3.4049,3.4061,3.4061,3.4074,3.4099,3.4173,3.4209,3.4233,3.4293,3.4328,3.434,3.4484,3.4528,3.4539,3.4658,3.4689,3.471,3.482,3.5058,3.5419,3.6122,3.6539,3.6814,3.6938,3.6824,3.6815,3.7357,3.7709,3.7909,3.7995,3.8194,3.8575,3.9241,3.9374,3.9583,4.022,4.0325,4.0342,4.0424,4.0432,4.0449,4.0479,4.0507,4.0503,4.0531,4.0569,4.061,4.061,4.0626,4.0635,4.0629,4.0647,4.064,4.0628,4.0628,4.0635,4.0662,4.0662,4.0701,4.0764,4.0764,4.0792,4.0859,4.0859,4.0888,3.8707,3.8707,3.8723,3.8777,3.8807,3.8822,3.8896,3.881,3.8719,3.8792,3.8848,3.891,3.8892,3.8968,0.0,0.0,0.0,0.0,0.0,0.0,0.0,0.0,0.0,0.0,0.0,0.0,0.0,0.0,0.0,0.0,0.0,0.0,0.0,0.0,3.4209,3.4209,3.4209,3.4209,3.4209,3.4209,3.4209,3.4136,3.3998,3.3998,3.4036,3.4099,3.4099,3.4148,3.4209,3.4209,3.4245,3.4305,3.4393,3.445,3.4506,3.4591,3.4594,3.4623,3.4758,3.4798,3.4819,3.4879,3.4889,3.4917,3.4992,3.5617,3.6319,3.6401,3.7099,3.8008,3.8889,3.8418,3.7725,3.7721,3.8379,3.9019,3.9101,3.9742,4.0316,4.0379,4.0407,4.0407,4.0407,4.0407,4.0424,4.0493,4.0502,4.0499,4.0489,4.0496,4.0531,4.0588,4.0605,4.0595,4.0595,4.0661,4.0694,4.0694,4.0763,4.077,4.07,4.07,4.0733,4.0794,4.08,4.0829,4.0902,4.0902,4.0946,4.0996,4.0996,4.0999,3.8765,3.8762,3.8777,3.8848,3.8881,3.8896,3.8968,3.891,3.8866,3.8939,3.8968,3.8993,3.9087,0.0,0.0,0.0,0.0,0.0,0.0,0.0,0.0,0.0,0.0,0.0,0.0,0.0,0.0,0.0,0.0,0.0,0.0,0.0,0.0,0.0,3.4484,3.4484,3.4484,3.4484,3.4484,3.4484,3.4484,3.4393,3.4209,3.4209,3.4269,3.4374,3.4374,3.4427,3.4484,3.4484,3.4495,3.4517,3.4634,3.4687,3.4718,3.4781,3.4821,3.4831,3.4917,3.4936,3.4955,3.5009,3.5044,3.5167,3.5844,3.6241,3.6706,3.7953,3.8503,3.8931,3.9846,3.9876,3.9659,3.9614,3.9797,3.9998,4.0006,4.0198,4.0388,4.0449,4.0458,4.0474,4.0468,4.0476,4.0476,4.0492,4.0535,4.0565,4.0571,4.0579,4.0593,4.066,4.0662,4.0694,4.0732,4.0806,4.084,4.0846,4.0858,4.0853,4.0834,4.0834,4.0851,4.0873,4.0873,4.0898,4.0963,4.0963,4.1,4.1075,4.1075,4.1073,3.8822,3.8866,3.891,3.8964,3.9007,3.9031,3.9129,3.9092,0.0,0.0,3.9129,3.9197,3.9298,3.9401,0.0,0.0,0.0,0.0,0.0,0.0,0.0,0.0,0.0,0.0,0.0,0.0,0.0,0.0,0.0,0.0,0.0,0.0,0.0,0.0,3.472,3.472,3.472,3.472,3.472,3.472,3.472,3.4668,3.4542,3.4454,3.4495,3.4623,3.4647,3.4689,3.472,3.472,3.472,3.473,3.484,3.4888,3.4879,3.4945,3.4973,3.4982,3.5091,3.5117,3.5126,3.5174,3.5409,3.5807,3.638,3.7025,3.7789,3.8849,3.9383,3.9791,4.0353,4.0495,4.0487,4.0455,4.0447,4.0447,4.0447,4.0447,4.0455,4.0487,4.0495,4.0503,4.055,4.0539,4.0539,4.0542,4.0564,4.0605,4.0647,4.0641,4.0675,4.0739,4.075,4.0804,4.0851,4.0903,4.0931,4.0931,4.0943,4.096,4.0975,4.0945,4.095,4.0941,4.0941,4.098,4.1029,4.1036,4.1064,4.11,4.1105,4.1095,3.891,3.8964,3.9036,3.9115,3.9197,3.929,3.9389,3.9337,3.929,3.9324,0.0,3.9452,3.9526,0.0,0.0,0.0,0.0,0.0,0.0,0.0,0.0,0.0,0.0,0.0,0.0,0.0,0.0,0.0,0.0,0.0,0.0,0.0,0.0,0.0,3.4927,3.4927,3.4927,3.4927,3.4927,0.0,3.4927,3.4908,3.4927,3.472,3.4697,3.4819,3.4889,3.4927,3.4927,3.4917,3.4936,3.4917,3.5011,3.5029,3.5038,3.5107,3.5122,3.513,3.5269,3.5293,3.53,3.53,3.5891,3.6627,3.6711,3.7894,3.9211,3.9307,3.9888,4.0496,4.0516,4.0504,4.0504,4.0504,4.0504,4.0504,4.0504,4.0504,4.0504,4.0504,4.0504,4.0539,4.0588,4.0595,4.061,4.0614,4.0602,4.0641,4.0713,4.0726,4.0736,4.0818,4.0863,4.0908,4.0917,4.096,4.1003,4.1007,4.102,4.1045,4.1103,4.1036,4.1002,4.1016,4.1019,4.1048,4.1103,4.1093,4.1092,4.1091,4.1097,4.1102,3.9003,3.9101,3.9183,3.9317,3.9464,3.9599,3.9635,3.9682,3.9724,3.9635,3.9635,3.967,0.0,0.0,0.0,0.0,0.0,0.0,0.0,0.0,0.0,0.0,0.0,0.0,0.0,0.0,0.0,0.0,0.0,0.0,0.0,0.0,0.0,3.5053,3.5065,3.5066,3.5066,3.5066,3.5065,0.0,3.5053,3.5079,3.5124,3.4936,3.4879,3.4964,3.5037,3.5053,3.5062,3.5115,3.5132,3.5132,3.522,3.5237,3.5245,3.5254,3.5251,3.5251,3.5293,3.5293,3.53,3.5364,3.5974,3.6807,3.749,3.8435,3.9404,4.0038,4.0354,4.0504,4.0565,4.0573,4.0588,4.0579,4.0583,4.0573,4.0573,4.0583,4.0586,4.0586,4.0586,4.0574,4.06,4.06,4.0621,4.0668,4.0713,4.0788,4.084,4.0851,4.0888,4.0939,4.0971,4.0988,4.0986,4.1049,4.1087,4.1075,4.1074,4.1072,4.1108,4.1091,4.1075,4.1081,4.1083,4.1092,4.1109,4.1091,4.1097,4.1104,4.1105,4.1108,3.9142,3.9272,3.9376,3.9551,3.9747,3.9881,3.9881,3.9967,4.0039,4.0,3.9946,3.9914,0.0,0.0,0.0,0.0,0.0,0.0,0.0,0.0,0.0,0.0,0.0,0.0,0.0,0.0,0.0,0.0,0.0,0.0,0.0,3.5203,3.5195,3.5195,3.519,3.5201,3.5201,3.5201,3.519,3.5195,3.5195,3.5203,3.5239,3.5132,3.5108,3.5162,3.5182,3.5195,3.5195,3.5239,3.5246,3.5246,3.5289,3.5297,3.5304,3.5342,3.5357,3.5357,3.5379,3.5405,3.5463,3.5888,3.6606,3.7485,3.8368,3.923,4.0007,4.0434,4.0549,4.0557,4.0591,4.0631,4.0646,4.0647,4.0626,4.0598,4.0598,4.0626,4.0654,4.0654,4.0648,4.0668,4.0681,4.0713,4.0763,4.0792,4.0826,4.0863,4.0936,4.0941,4.0967,4.1032,4.1059,4.1052,4.1042,4.1079,4.1109,4.1097,4.1108,4.1097,4.1103,4.1109,4.1104,4.1094,4.1094,4.1097,4.1103,4.1105,4.1108,4.111,4.1131,4.1151,3.9259,3.9452,3.9635,3.9826,4.0007,0.0,4.0147,4.0196,4.0261,4.0314,4.0225,0.0,0.0,0.0,0.0,0.0,0.0,0.0,0.0,0.0,0.0,0.0,0.0,0.0,0.0,0.0,0.0,0.0,0.0,0.0,3.533,3.5323,3.5315,3.5315,3.5315,3.5308,3.5308,3.5308,3.5315,3.5315,3.5323,3.533,3.533,3.5331,3.5316,3.53,3.53,3.5315,3.5315,3.5323,3.533,3.533,3.533,3.533,3.533,3.5393,3.5427,3.5434,3.5488,3.5617,3.5828,3.6502,3.7413,3.8383,3.9105,3.9921,4.061,4.0607,4.0621,4.0621,4.0635,4.0681,4.0726,4.0733,4.0681,4.0642,4.0641,4.0688,4.0733,4.0733,4.0725,4.0756,4.0818,4.0867,4.0922,4.0922,4.0912,4.0948,4.1007,4.1015,4.1036,4.1083,4.1108,4.11,4.1099,4.1109,4.1095,4.1101,4.1106,4.1108,4.1129,4.1129,4.1129,4.1129,4.1108,4.1108,4.1129,4.1111,4.1112,4.1112,4.1172,4.1191,3.9324,3.9647,3.9975,4.0108,4.0215,4.0289,0.0,0.0,4.0389,0.0,0.0,0.0,0.0,0.0,0.0,0.0,0.0,0.0,0.0,0.0,0.0,0.0,0.0,0.0,0.0,0.0,0.0,0.0,0.0,0.0,3.5467,3.5412,3.5398,3.5398,3.5323,3.5308,3.5308,3.5308,3.5323,3.5398,3.5453,3.5467,3.5467,3.546,3.5405,3.53,3.5364,3.5398,3.5379,3.5453,3.5467,3.5467,3.5467,3.5467,3.5474,3.5476,3.5496,3.5496,3.5554,3.6042,3.664,3.6755,3.79,3.9231,3.9346,3.9951,4.0607,4.0661,4.0694,4.0707,4.0764,4.0787,4.0796,4.0856,4.0877,4.0839,4.0794,4.0823,4.0862,4.0862,4.0868,4.0888,4.0893,4.093,4.098,4.098,4.0995,4.1007,4.1084,4.1095,4.1096,4.1101,4.1109,4.1097,4.1104,4.1105,4.1107,4.1091,4.1091,4.1132,4.1172,4.1191,4.1191,4.1191,4.1132,4.1132,4.1191,4.1191,4.1191,4.1191,4.1191,4.1191,3.9587,3.9884,4.0148,4.0225,4.0342,4.0436,4.0503,4.0539,4.0583,4.0605,0.0,0.0,0.0,0.0,0.0,0.0,0.0,0.0,0.0,0.0,0.0,0.0,0.0,0.0,0.0,0.0,0.0,0.0,0.0,3.5502,3.5502,3.5481,3.546,3.546,3.542,3.5412,3.5412,3.5412,3.542,3.546,3.5493,3.55,3.55,3.5508,3.5468,3.5412,3.5446,3.546,3.546,3.5482,3.5502,3.5502,3.5541,3.5567,3.5567,3.5566,3.5554,3.5637,3.615,3.6568,3.7018,3.8002,3.882,3.9554,4.0037,4.043,4.0726,4.0794,4.0806,4.0818,4.0842,4.0883,4.0917,4.0945,4.0956,4.0957,4.0924,4.0935,4.0958,4.096,4.0957,4.0964,4.0964,4.1006,4.1065,4.1055,4.1056,4.1076,4.1095,4.1099,4.1108,4.11,4.1102,4.1106,4.111,4.109,4.1111,4.1152,4.1152,4.1172,4.1191,4.1191,4.1191,4.1191,4.1172,4.1172,4.1191,4.1191,4.1191,4.1191,4.1191,4.1191,3.9837,4.0099,4.0243,4.0323,4.0441,4.0542,0.0,0.0,4.072,0.0,0.0,0.0,0.0,0.0,0.0,0.0,0.0,0.0,0.0,0.0,0.0,0.0,0.0,0.0,0.0,0.0,0.0,0.0,0.0,3.5528,3.5522,3.5528,3.5527,3.5501,3.5501,3.5494,3.55,3.55,3.5507,3.5501,3.5501,3.5501,3.5534,3.5528,3.5522,3.5534,3.5534,3.5534,3.5534,3.5528,3.5522,3.5528,3.5578,3.561,3.559,3.5628,3.5769,3.6045,3.6698,3.7218,3.7804,3.9096,3.9683,3.9979,4.0635,4.0834,4.0846,4.0917,4.0932,4.0922,4.0935,4.0972,4.1038,4.1038,4.1026,4.1028,4.1039,4.1036,4.1029,4.1022,4.1031,4.1031,4.1037,4.1067,4.1098,4.1107,4.1097,4.1109,4.11,4.1102,4.1104,4.1108,4.1129,4.113,4.1132,4.1132,4.1152,4.1191,4.1191,4.1191,4.1191,4.1191,4.1191,4.1191,4.1191,4.1191,4.1191,4.1191,4.1191,4.1191,4.1191,4.1191,4.0007,4.0187,4.0334,4.0457,4.0549,4.0609,0.0,0.0,0.0,0.0,0.0,0.0,0.0,0.0,0.0,0.0,0.0,0.0,0.0,0.0,0.0,0.0,0.0,0.0,0.0,0.0,0.0,0.0,0.0,3.5589,3.5598,3.5591,3.5579,3.5509,3.5502,3.5502,3.55,3.55,3.5501,3.5502,3.5502,3.5522,3.5591,3.5591,3.5591,3.5591,3.5591,3.5591,3.5591,3.5591,3.5598,3.5598,3.5608,3.5601,3.5606,3.5662,3.623,3.6938,3.6983,3.8089,3.9471,3.9577,4.0145,4.084,4.0883,4.0883,4.0912,4.0975,4.0988,4.1,4.0997,4.1039,4.1092,4.1092,4.1093,4.1085,4.1081,4.1092,4.1081,4.1087,4.1092,4.1094,4.1085,4.1093,4.1097,4.1097,4.1102,4.1106,4.1107,4.111,4.1091,4.1092,4.1152,4.1191,4.1191,4.1191,4.1191,4.1191,4.1191,4.1191,4.1191,4.1191,4.1191,4.1191,4.1191,4.1191,4.1191,4.1191,4.1191,4.1191,4.1191,4.1191,4.0098,4.0253,4.0405,4.0535,4.0605,4.0688,4.0756,4.0823,0.0,0.0,0.0,0.0,0.0,0.0,0.0,0.0,0.0,0.0,0.0,0.0,0.0,0.0,0.0,0.0,0.0,0.0,0.0,0.0,0.0,0.0,3.5599,3.5601,3.559,3.556,3.556,3.5554,3.556,3.556,3.5566,3.556,3.556,3.5578,3.5608,3.5606,3.5629,3.5665,3.5702,3.5676,3.5589,3.5648,3.5665,3.567,3.5713,3.5728,3.5733,3.5766,3.6323,3.7132,3.7704,3.8673,3.9766,4.0322,4.0699,4.0953,4.0953,4.0953,4.0979,4.1042,4.1058,4.107,4.1069,4.109,4.1103,4.1109,4.1095,4.1098,4.1093,4.1106,4.1106,4.1097,4.1099,4.1099,4.1101,4.1103,4.1105,4.1108,4.1109,4.1111,4.1151,4.1152,4.1152,4.1152,4.1191,4.1191,4.1191,4.1191,4.1191,4.1191,4.1191,4.1191,4.1191,4.1191,4.1191,4.1191,4.1191,4.1191,4.1191,4.1191,4.1191,4.1191,4.1191,4.1191,4.0128,4.03,4.0422,4.0577,4.0653,4.0726,4.0801,0.0,0.0,0.0,0.0,0.0,0.0,0.0,0.0,0.0,0.0,0.0,0.0,0.0,0.0,0.0,0.0,0.0,0.0,0.0,0.0,0.0,0.0,0.0,3.5669,3.5672,3.5665,3.5626,3.5614,3.5608,3.5608,3.5608,3.5614,3.5626,3.5626,3.5643,3.5662,3.5658,3.5684,3.5747,3.5778,3.5751,3.5667,3.5728,3.5728,3.5732,3.5782,3.5799,3.5842,3.6141,3.6814,3.7693,3.8565,3.9432,4.0276,4.0853,4.1037,4.1037,4.1022,4.1025,4.1047,4.1098,4.1107,4.1095,4.1106,4.1095,4.1103,4.1108,4.1109,4.1109,4.113,4.1126,4.1103,4.1108,4.1109,4.1109,4.113,4.113,4.1131,4.1132,4.1132,4.1152,4.1191,4.1191,4.1191,4.1191,4.1191,4.1191,4.1191,4.1191,4.1191,4.1191,4.1191,4.1191,4.1191,4.1191,4.1191,4.1191,4.1191,4.1191,4.1172,4.1191,4.1191,4.1172,4.1172,4.1171,0.0,0.0,0.0,0.0,0.0,0.0,4.0867,0.0,0.0,0.0,0.0,0.0,0.0,0.0,0.0,0.0,0.0,0.0,0.0,0.0,0.0,0.0,0.0,0.0,0.0,0.0,0.0,0.0,0.0,3.5799,3.5808,3.5803,3.5761,3.5713,3.5648,3.5612,3.5612,3.5612,3.5648,3.5693,3.5693,3.5737,3.5803,3.5803,3.5797,3.5803,3.5806,3.5791,3.5788,3.5791,3.5799,3.5803,3.581,3.5827,3.5947,3.6854,3.7762,3.8658,3.9516,4.0376,4.1103,4.1107,4.1095,4.1097,4.1106,4.1109,4.1091,4.1098,4.1099,4.11,4.1106,4.1108,4.1108,4.1091,4.1092,4.1112,4.1191,4.1151,4.1108,4.1091,4.1092,4.1112,4.1191,4.1191,4.1191,4.1191,4.1191,4.1191,4.1191,4.1191,4.1191,4.1191,4.1191,4.1191,4.1191,4.1191,4.1191,4.1191,4.1191,4.1191,4.1191,4.1191,4.1191,4.1191,4.1191,4.1172,4.1092,4.1172,4.1152,4.1092,4.1092,4.109,4.0057,0.0,0.0,0.0,0.0,0.0,0.0,0.0,0.0,0.0,0.0,0.0,0.0,0.0,0.0,0.0,0.0,0.0,0.0,0.0,0.0,0.0,0.0,0.0,0.0,0.0,0.0,0.0,3.5861,3.5856,3.5799,3.5807,3.5782,3.5769,3.5741,3.5736,3.5736,3.5736,3.5741,3.5769,3.5769,3.5775,3.5799,3.5799,3.5836,3.5862,3.5864,3.5872,3.5869,3.5872,3.5862,3.5866,3.5867,3.6264,3.6835,3.7093,3.8155,3.9464,3.9717,4.0366,4.1108,4.1098,4.1101,4.1101,4.1103,4.1103,4.1103,4.1105,4.1107,4.111,4.1151,4.1171,4.1171,4.1172,4.1172,4.1172,4.1191,4.1191,4.1171,4.1172,4.1172,4.1172,4.1191,4.1191,4.1191,4.1191,4.1191,4.1191,4.1191,4.1191,4.1191,4.1191,4.1191,4.1191,4.1191,4.1191,4.1191,4.1191,4.1191,4.1191,4.1191,4.1191,4.1172,4.1132,4.1132,4.1111,4.1108,4.1111,4.1111,4.1108,4.1105,4.11,3.9954,4.0119,4.0297,0.0,0.0,0.0,4.0821,4.0883,0.0,0.0,0.0,0.0,0.0,0.0,0.0,0.0,0.0,0.0,0.0,0.0,0.0,0.0,0.0,0.0,0.0,0.0,0.0,3.5931,3.594,3.5902,3.5855,3.5846,3.5849,3.5849,3.5849,3.5849,3.5849,3.5849,3.5849,3.5849,3.5849,3.5846,3.5833,3.5833,3.5889,3.5934,3.5945,3.5937,3.5946,3.5939,3.5931,3.5981,3.6345,3.6799,3.7328,3.8063,3.8965,3.9882,4.0223,4.0674,4.1103,4.1108,4.1109,4.111,4.113,4.1131,4.1131,4.1131,4.1132,4.1152,4.1191,4.1191,4.1191,4.1191,4.1191,4.1191,4.1191,4.1191,4.1191,4.1191,4.1191,4.1191,4.1191,4.1191,4.1191,4.1191,4.1191,4.1191,4.1191,4.1191,4.1191,4.1191,4.1191,4.1191,4.1191,4.1191,4.1191,4.1191,4.1191,4.1191,4.1191,4.1191,4.1172,4.1092,4.1092,4.1109,4.1101,4.1105,4.1104,4.1097,4.1104,4.1095,3.9796,4.0039,4.0224,0.0,0.0,0.0,4.0767,4.084,4.0921,0.0,0.0,0.0,0.0,0.0,0.0,0.0,0.0,0.0,0.0,0.0,0.0,0.0,0.0,0.0,0.0,3.6008,3.6003,3.5995,3.6007,3.5976,3.5919,3.5907,3.5919,3.5919,3.5919,3.5919,3.5919,3.5919,3.5919,3.5919,3.5919,3.5904,3.5919,3.5919,3.5949,3.6004,3.5992,3.6,3.6006,3.5991,3.6006,3.6094,3.696,3.7353,3.7646,3.929,3.9955,4.0131,4.0855,4.1108,4.1109,4.1111,4.1112,4.1112,4.1172,4.1191,4.1191,4.1191,4.1191,4.1191,4.1191,4.1191,4.1191,4.1191,4.1191,4.1191,4.1191,4.1191,4.1191,4.1191,4.1191,4.1191,4.1191,4.1191,4.1191,4.1191,4.1191,4.1191,4.1191,4.1191,4.1191,4.1191,4.1191,4.1191,4.1191,4.1191,4.1191,4.1191,4.1191,4.1191,4.1191,4.1191,4.1152,4.1091,4.1091,4.1103,4.1083,4.1091,4.1106,4.1109,4.1083,4.1089,0.0,0.0,0.0,0.0,0.0,0.0,4.0688,4.0767,4.0864,0.0,0.0,0.0,0.0,0.0,0.0,0.0,0.0,0.0,0.0,0.0,0.0,0.0,0.0,0.0,0.0,3.5994,3.5992,3.6009,3.6004,3.6,3.5978,3.5988,3.5983,3.5983,3.5983,3.5983,3.5983,3.5983,3.5983,3.5983,3.5983,3.5988,3.5978,3.5978,3.5982,3.6007,3.6008,3.5991,3.5993,3.5994,3.5992,3.6086,3.6966,3.7728,3.847,3.9528,4.031,4.0896,4.1113,4.1172,4.1172,4.1172,4.1172,4.1172,4.1191,4.1191,4.1191,4.1191,4.1191,4.1191,4.1191,4.1191,4.1191,4.1191,4.1191,4.1191,4.1191,4.1191,4.1191,4.1191,4.1191,4.1191,4.1191,4.1191,4.1191,4.1191,4.1191,4.1191,4.1191,4.1191,4.1191,4.1191,4.1191,4.1191,4.1191,4.1191,4.1191,4.1191,4.1191,4.1191,4.1191,4.1152,4.1111,4.1108,4.1095,4.107,4.1011,4.1067,4.1108,4.1103,4.1039,4.1015,0.0,0.0,0.0,4.0206,0.0,0.0,0.0,4.0688,4.0796,4.0921,0.0,0.0,0.0,0.0,0.0,0.0,0.0,0.0,0.0,0.0,0.0,0.0,0.0,0.0,0.0,3.7304,3.7304,3.7302,3.7299,3.7101,3.6672,3.665,3.6452,3.6003,3.6003,3.6003,3.6003,3.6003,3.6003,3.6003,3.6003,3.6005,3.6008,3.6008,3.5991,3.5993,3.5993,3.5994,3.6035,3.6464,3.666,3.6737,3.7616,3.8475,3.9354,4.0234,4.08,4.1152,4.1191,4.1191,4.1191,4.1191,4.1191,4.1191,4.1191,4.1191,4.1191,4.1191,4.1191,4.1191,4.1191,4.1191,4.1191,4.1191,4.1191,4.1191,4.1191,4.1191,4.1191,4.1191,4.1191,4.1191,4.1191,4.1191,4.1191,4.1191,4.1191,4.1191,4.1191,4.1191,4.1191,4.1191,4.1191,4.1191,4.1191,4.1191,4.1191,4.1191,4.1191,4.1191,4.1152,4.1112,4.1109,4.11,4.107,4.1031,4.1,4.1002,4.0999,4.1006,4.0964,4.0954,0.0,0.0,0.0,0.0,0.0,4.0316,0.0,0.0,0.0,4.0824,0.0,0.0,0.0,0.0,0.0,0.0,0.0,0.0,0.0,0.0,0.0,0.0,0.0,0.0,0.0,3.8594,3.8594,3.8593,3.8592,3.8297,3.7594,3.7555,3.7223,3.652,3.6501,3.6423,3.6247,3.6247,3.6169,3.5993,3.5993,3.5993,3.5993,3.5993,3.5994,3.5995,3.5995,3.6093,3.6309,3.7012,3.75,3.7871,3.8574,3.9277,4.0019,4.0879,4.1191,4.1191,4.1191,4.1191,4.1191,4.1191,4.1191,4.1191,4.1191,4.1191,4.1191,4.1191,4.1191,4.1191,4.1191,4.1191,4.1191,4.1191,4.1191,4.1191,4.1191,4.1191,4.1191,4.1191,4.1191,4.1191,4.1191,4.1191,4.1191,4.1191,4.1191,4.1191,4.1191,4.1191,4.1191,4.1191,4.1191,4.1191,4.1191,4.1191,4.1191,4.1191,4.1191,4.1152,4.1092,4.109,4.1103,4.1101,4.1039,4.0997,4.0972,4.0935,4.0897,4.0891,4.0878,4.0868,0.0,0.0,0.0,0.0,3.9986,0.0,0.0,0.0,4.0559,4.0705,0.0,0.0,0.0,0.0,0.0,0.0,0.0,0.0,0.0,0.0,0.0,0.0,0.0,0.0,0.0,0.0,3.8594,3.8594,3.8594,3.8555,3.8457,3.8457,3.8418,3.8301,3.8301,3.793,3.7168,3.7148,3.6758,3.5996,3.5996,3.5996,3.5996,3.5996,3.5996,3.5996,3.5996,3.6445,3.7168,3.7266,3.8203,3.9609,3.9707,3.9805,4.0019,4.0879,4.1191,4.1191,4.1191,4.1191,4.1191,4.1191,4.1191,4.1191,4.1191,4.1191,4.1191,4.1191,4.1191,4.1191,4.1191,4.1191,4.1191,4.1191,4.1191,4.1191,4.1191,4.1191,4.1191,4.1191,4.1191,4.1191,4.1191,4.1191,4.1191,4.1191,4.1191,4.1191,4.1191,4.1191,4.1191,4.1191,4.1191,4.1191,4.1191,4.1191,4.1191,4.1191,4.1132,4.1112,4.1092,4.1101,4.1101,4.1103,4.1022,4.0979,4.0902,4.0893,4.0898,4.0893,4.084,4.0781,0.0,0.0,0.0,0.0,0.0,0.0,4.0138,0.0,4.0414,0.0,0.0,0.0,0.0,0.0,0.0,0.0,4.1107,0.0,0.0,0.0,0.0,0.0,0.0,0.0,0.0,0.0,0.0,0.0,0.0,3.9883,3.9375,3.9355,3.9121,3.8613,3.8594,3.8418,3.8066,3.8047,3.7871,3.7519,3.7519,3.7519,3.7519,3.7519,3.7519,3.7519,3.7519,3.7715,3.8086,3.8594,3.9238,3.9941,4.0469,4.0644,4.0703,4.1074,4.1191,4.1191,4.1191,4.1191,4.1191,4.1191,4.1191,4.1191,4.1191,4.1191,4.1191,4.1191,4.1191,4.1191,4.1191,4.1191,4.1191,4.1191,4.1191,4.1191,4.1191,4.1191,4.1191,4.1191,4.1191,4.1191,4.1191,4.1191,4.1191,4.1191,4.1191,4.1191,4.1191,4.1191,4.1191,4.1191,4.1191,4.1191,4.1191,4.1191,4.1172,4.1132,4.1129,4.1104,4.1101,4.1099,4.1072,4.1042,4.0976,4.0939,4.0903,4.0853,4.0809,4.0782,4.0757,4.0732,3.8606,0.0,0.0,0.0,0.0,0.0,0.0,0.0,0.0,0.0,0.0,0.0,0.0,0.0,0.0,0.0,0.0,4.1091,0.0,0.0,0.0,0.0,0.0,0.0,0.0,0.0,0.0,4.1191,4.1191,4.0918,4.0293,4.0254,3.9961,3.9336,3.9316,3.9199,3.8965,3.8965,3.8848,3.8594,3.8594,3.8594,3.8594,3.8594,3.8594,3.8594,3.8594,3.873,3.9004,3.9648,4.0039,4.0312,4.0957,4.1191,4.1191,4.1191,4.1191,4.1191,4.1191,4.1191,4.1191,4.1191,4.1191,4.1191,4.1191,4.1191,4.1191,4.1191,4.1191,4.1191,4.1191,4.1191,4.1191,4.1191,4.1191,4.1191,4.1191,4.1191,4.1191,4.1191,4.1191,4.1191,4.1191,4.1191,4.1191,4.1191,4.1191,4.1191,4.1191,4.1191,4.1191,4.1191,4.1191,4.1191,4.1191,4.1172,4.1151,4.1108,4.1101,4.1091,4.1097,4.1089,4.1039,4.097,4.0928,4.0888,4.0862,4.0812,4.0758,4.07,4.0707,4.0694,0.0,0.0,0.0,3.9156,0.0,0.0,0.0,0.0,4.0158,0.0,0.0,0.0,0.0,0.0,0.0,0.0,0.0,0.0,0.0,0.0,0.0,0.0,0.0,0.0,0.0,0.0,0.0,4.1191,4.1191,4.1191,4.1152,4.1152,4.1152,4.1113,4.1113,4.0703,3.9863,3.9863,3.9434,3.8594,3.8594,3.8594,3.8594,3.8594,3.8594,3.8594,3.8594,3.9082,3.9863,3.9883,4.0391,4.1152,4.1191,4.1191,4.1191,4.1191,4.1191,4.1191,4.1191,4.1191,4.1191,4.1191,4.1191,4.1191,4.1191,4.1191,4.1191,4.1191,4.1191,4.1191,4.1191,4.1191,4.1191,4.1191,4.1191,4.1191,4.1191,4.1191,4.1191,4.1191,4.1191,4.1191,4.1191,4.1191,4.1191,4.1191,4.1191,4.1191,4.1191,4.1191,4.1191,4.1191,4.1191,4.1191,4.1191,4.1132,4.1108,4.1091,4.1109,4.1097,4.11,4.1042,4.097,4.0894,4.0902,4.0868,4.08,4.0732,4.07,4.07,4.07,4.066,0.0,0.0,3.8825,3.9021,0.0,0.0,0.0,0.0,0.0,0.0,0.0,0.0,0.0,0.0,0.0,0.0,0.0,0.0,0.0,0.0,0.0,0.0,0.0,0.0,0.0,0.0,0.0,4.1191,4.1191,4.1191,0.0,4.1191,4.1191,4.1191,4.1191,4.1055,4.0762,4.0762,4.0605,4.0312,4.0312,4.0312,4.0312,4.0312,4.0312,4.0312,4.0312,4.0488,4.0762,4.0762,4.0937,4.1191,4.1191,4.1191,4.1191,4.1191,4.1191,4.1191,4.1191,4.1191,4.1191,4.1191,4.1191,4.1191,4.1191,4.1191,4.1191,4.1191,4.1191,4.1191,4.1191,4.1191,4.1191,4.1191,4.1191,4.1191,4.1191,4.1191,4.1191,4.1191,4.1191,4.1191,4.1191,4.1191,4.1191,4.1191,4.1191,4.1191,4.1191,4.1191,4.1191,4.1191,4.1152,4.1132,4.1132,4.1106,4.1097,4.1109,4.1092,4.1083,4.1046,4.0976,4.0913,4.0893,4.0812,4.0761,4.0732,4.0675,4.0628,4.0624,4.0624,4.061,3.8172,3.8435,0.0,3.8881,3.905,0.0,3.9363,0.0,0.0,0.0,0.0,0.0,0.0,0.0,0.0,0.0,0.0,0.0,0.0,4.1092,0.0,0.0,0.0,0.0,0.0,0.0,4.113,4.1191,4.1191,4.1191,0.0,0.0,4.1191,4.1191,4.1191,4.1191,4.1191,4.1191,4.1191,4.1191,4.1191,4.1191,4.1191,4.1191,4.1191,4.1191,4.1191,4.1191,4.1191,4.1191,4.1191,4.1191,4.1191,4.1191,4.1191,4.1191,4.1191,4.1191,4.1191,4.1191,4.1191,4.1191,4.1191,4.1191,4.1191,4.1191,4.1191,4.1191,4.1191,4.1191,4.1191,4.1191,4.1191,4.1191,4.1191,4.1191,4.1191,4.1191,4.1191,4.1191,4.1191,4.1191,4.1191,4.1191,4.1191,4.1191,4.1191,4.1191,4.1191,4.1172,4.1152,4.1152,4.1131,4.1109,4.1106,4.1091,4.1095,4.1068,4.1053,4.1036,4.0976,4.0896,4.0845,4.0821,4.0732,4.0694,4.0662,4.0621,4.0598,4.0607,4.0573,4.0565]}]]